<?xml version='1.0' encoding='UTF-8'?><gpx version="1.1" creator="JPX - https://github.com/jenetics/jpx" xmlns="http://www.topografix.com/GPX/1/1"><trk><trkseg><trkpt lat="41.139503630890175" lon="15.080661295678501"><ele>567.0</ele><time>2026-04-12T04:53:04.112Z</time></trkpt><trkpt lat="41.13961834282806" lon="15.080035132669519"><ele>567.0</ele><time>2026-04-12T04:53:54.946Z</time></trkpt><trkpt lat="41.13948039387214" lon="15.080007189998108"><ele>567.0</ele><time>2026-04-12T04:54:02.035Z</time></trkpt><trkpt lat="41.13953325153481" lon="15.07991939842245"><ele>567.0</ele><time>2026-04-12T04:54:04.999Z</time></trkpt><trkpt lat="41.13958231177287" lon="15.079865902676321"><ele>567.0</ele><time>2026-04-12T04:54:06.999Z</time></trkpt><trkpt lat="41.13967589572178" lon="15.079855760573484"><ele>567.0</ele><time>2026-04-12T04:54:09.999Z</time></trkpt><trkpt lat="41.13975390822377" lon="15.0798729838394"><ele>565.8333333333334</ele><time>2026-04-12T04:54:12Z</time></trkpt><trkpt lat="41.139840416072616" lon="15.079876685474808"><ele>564.6666666666666</ele><time>2026-04-12T04:54:14Z</time></trkpt><trkpt lat="41.139924838402706" lon="15.07989973192726"><ele>563.5</ele><time>2026-04-12T04:54:16Z</time></trkpt><trkpt lat="41.13998417666543" lon="15.079949086246302"><ele>562.3333333333333</ele><time>2026-04-12T04:54:18Z</time></trkpt><trkpt lat="41.14001408618603" lon="15.080056842058982"><ele>561.1666666666666</ele><time>2026-04-12T04:54:20Z</time></trkpt><trkpt lat="41.14004702794806" lon="15.080131201958224"><ele>560.0</ele><time>2026-04-12T04:54:21Z</time></trkpt><trkpt lat="41.140104955452784" lon="15.080242488048642"><ele>563.6</ele><time>2026-04-12T04:54:23Z</time></trkpt><trkpt lat="41.14019376317685" lon="15.080342138666994"><ele>567.2</ele><time>2026-04-12T04:54:25Z</time></trkpt><trkpt lat="41.14026354446891" lon="15.080393550864173"><ele>570.8</ele><time>2026-04-12T04:54:26Z</time></trkpt><trkpt lat="41.14033962762408" lon="15.080491220088971"><ele>574.4</ele><time>2026-04-12T04:54:28Z</time></trkpt><trkpt lat="41.14039560159023" lon="15.080530679886065"><ele>578.0</ele><time>2026-04-12T04:54:29Z</time></trkpt><trkpt lat="41.140479612792966" lon="15.080622031467872"><ele>578.0</ele><time>2026-04-12T04:54:31Z</time></trkpt><trkpt lat="41.14057685266562" lon="15.08069736208702"><ele>578.0</ele><time>2026-04-12T04:54:33Z</time></trkpt><trkpt lat="41.14066673159629" lon="15.080794899670673"><ele>578.0</ele><time>2026-04-12T04:54:35Z</time></trkpt><trkpt lat="41.14076171468776" lon="15.08089746338414"><ele>578.0</ele><time>2026-04-12T04:54:37Z</time></trkpt><trkpt lat="41.140837147527144" lon="15.080987676944549"><ele>579.4</ele><time>2026-04-12T04:54:39Z</time></trkpt><trkpt lat="41.14091560307529" lon="15.081065828086473"><ele>580.8</ele><time>2026-04-12T04:54:41Z</time></trkpt><trkpt lat="41.14099681537265" lon="15.081126761823038"><ele>582.2</ele><time>2026-04-12T04:54:43Z</time></trkpt><trkpt lat="41.140912098419065" lon="15.081319594398982"><ele>583.6</ele><time>2026-04-12T04:54:46Z</time></trkpt><trkpt lat="41.14086592812074" lon="15.08140188922108"><ele>585.0</ele><time>2026-04-12T04:54:47Z</time></trkpt><trkpt lat="41.14079469124557" lon="15.08149812817446"><ele>585.0</ele><time>2026-04-12T04:54:48Z</time></trkpt><trkpt lat="41.14074786307482" lon="15.08159765511954"><ele>585.0</ele><time>2026-04-12T04:54:49Z</time></trkpt><trkpt lat="41.14068957214741" lon="15.081736680928426"><ele>585.0</ele><time>2026-04-12T04:54:51Z</time></trkpt><trkpt lat="41.14061552959685" lon="15.081853259387557"><ele>585.0</ele><time>2026-04-12T04:54:53Z</time></trkpt><trkpt lat="41.14055450196602" lon="15.081973234321854"><ele>585.0</ele><time>2026-04-12T04:54:55Z</time></trkpt><trkpt lat="41.140505275143305" lon="15.082082477686681"><ele>585.4</ele><time>2026-04-12T04:54:57Z</time></trkpt><trkpt lat="41.14044600186436" lon="15.082164060920409"><ele>585.8</ele><time>2026-04-12T04:54:59Z</time></trkpt><trkpt lat="41.140349841822804" lon="15.08221017077732"><ele>586.2</ele><time>2026-04-12T04:55:01Z</time></trkpt><trkpt lat="41.14026727132671" lon="15.082294838318704"><ele>586.6</ele><time>2026-04-12T04:55:03Z</time></trkpt><trkpt lat="41.14027474193363" lon="15.082437827298781"><ele>587.0</ele><time>2026-04-12T04:55:05Z</time></trkpt><trkpt lat="41.140399923963095" lon="15.082518208116111"><ele>587.5</ele><time>2026-04-12T04:55:07Z</time></trkpt><trkpt lat="41.1404762292051" lon="15.082541237903104"><ele>588.0</ele><time>2026-04-12T04:55:08Z</time></trkpt><trkpt lat="41.14055170273515" lon="15.082565397128697"><ele>588.5</ele><time>2026-04-12T04:55:09Z</time></trkpt><trkpt lat="41.140611713762866" lon="15.082592010252771"><ele>589.0</ele><time>2026-04-12T04:55:10Z</time></trkpt><trkpt lat="41.14070120126858" lon="15.082619878417109"><ele>589.5</ele><time>2026-04-12T04:55:11Z</time></trkpt><trkpt lat="41.14079970689928" lon="15.082642730553044"><ele>590.0</ele><time>2026-04-12T04:55:12Z</time></trkpt><trkpt lat="41.140886917791825" lon="15.082663777128797"><ele>590.4</ele><time>2026-04-12T04:55:13Z</time></trkpt><trkpt lat="41.14098200411398" lon="15.082676183111053"><ele>590.8</ele><time>2026-04-12T04:55:14Z</time></trkpt><trkpt lat="41.14107115849757" lon="15.082702012776654"><ele>591.2</ele><time>2026-04-12T04:55:15Z</time></trkpt><trkpt lat="41.14116952537611" lon="15.082728418207047"><ele>591.6</ele><time>2026-04-12T04:55:16Z</time></trkpt><trkpt lat="41.141269100456725" lon="15.082741912339486"><ele>592.0</ele><time>2026-04-12T04:55:17Z</time></trkpt><trkpt lat="41.14136418532849" lon="15.082756042000018"><ele>592.0</ele><time>2026-04-12T04:55:18Z</time></trkpt><trkpt lat="41.141465540946356" lon="15.082755714365927"><ele>592.0</ele><time>2026-04-12T04:55:19Z</time></trkpt><trkpt lat="41.14156474298245" lon="15.082765969652069"><ele>592.0</ele><time>2026-04-12T04:55:20Z</time></trkpt><trkpt lat="41.14166952727613" lon="15.082759513968753"><ele>592.0</ele><time>2026-04-12T04:55:21.001Z</time></trkpt><trkpt lat="41.141772369376866" lon="15.082752114138952"><ele>592.0</ele><time>2026-04-12T04:55:22.001Z</time></trkpt><trkpt lat="41.141873044766506" lon="15.08274232754312"><ele>592.8000000000001</ele><time>2026-04-12T04:55:23.001Z</time></trkpt><trkpt lat="41.14197579534298" lon="15.082726913825482"><ele>593.6</ele><time>2026-04-12T04:55:24.001Z</time></trkpt><trkpt lat="41.14207278415832" lon="15.082710857405328"><ele>594.4000000000001</ele><time>2026-04-12T04:55:25.001Z</time></trkpt><trkpt lat="41.14217152628509" lon="15.082697670100341"><ele>595.2</ele><time>2026-04-12T04:55:26.001Z</time></trkpt><trkpt lat="41.142270315656326" lon="15.082686717080366"><ele>596.0</ele><time>2026-04-12T04:55:27.001Z</time></trkpt><trkpt lat="41.142366306739106" lon="15.082672256679022"><ele>597.0</ele><time>2026-04-12T04:55:28.001Z</time></trkpt><trkpt lat="41.14245853012253" lon="15.082654523870273"><ele>598.0</ele><time>2026-04-12T04:55:29.001Z</time></trkpt><trkpt lat="41.142554889595665" lon="15.082643123900501"><ele>599.0</ele><time>2026-04-12T04:55:30.001Z</time></trkpt><trkpt lat="41.14264560327929" lon="15.082616120653993"><ele>600.0</ele><time>2026-04-12T04:55:31.001Z</time></trkpt><trkpt lat="41.14273266501542" lon="15.082598017840986"><ele>601.0</ele><time>2026-04-12T04:55:32.001Z</time></trkpt><trkpt lat="41.14282576976434" lon="15.082579597066848"><ele>601.0</ele><time>2026-04-12T04:55:33.001Z</time></trkpt><trkpt lat="41.14292322631971" lon="15.082562630504302"><ele>601.0</ele><time>2026-04-12T04:55:34.001Z</time></trkpt><trkpt lat="41.143016056174886" lon="15.082545599488023"><ele>601.0</ele><time>2026-04-12T04:55:35.001Z</time></trkpt><trkpt lat="41.14310854651203" lon="15.082517612553819"><ele>601.0</ele><time>2026-04-12T04:55:36.001Z</time></trkpt><trkpt lat="41.14320529145316" lon="15.082483931126628"><ele>601.0</ele><time>2026-04-12T04:55:37.001Z</time></trkpt><trkpt lat="41.14329593814414" lon="15.082442666014806"><ele>601.0</ele><time>2026-04-12T04:55:38.001Z</time></trkpt><trkpt lat="41.143392433825284" lon="15.082425030997001"><ele>601.0</ele><time>2026-04-12T04:55:39.001Z</time></trkpt><trkpt lat="41.14349129893435" lon="15.082405121279248"><ele>601.0</ele><time>2026-04-12T04:55:40.001Z</time></trkpt><trkpt lat="41.143582833546844" lon="15.082371251432185"><ele>601.0</ele><time>2026-04-12T04:55:41.001Z</time></trkpt><trkpt lat="41.14367091799638" lon="15.082333229899419"><ele>601.0</ele><time>2026-04-12T04:55:42.001Z</time></trkpt><trkpt lat="41.14375946825901" lon="15.082306806278524"><ele>601.0</ele><time>2026-04-12T04:55:43.001Z</time></trkpt><trkpt lat="41.14384787600614" lon="15.08228389374454"><ele>601.0</ele><time>2026-04-12T04:55:44.001Z</time></trkpt><trkpt lat="41.143937549581" lon="15.082257738697848"><ele>601.0</ele><time>2026-04-12T04:55:45.001Z</time></trkpt><trkpt lat="41.14402432621399" lon="15.082239002428436"><ele>601.0</ele><time>2026-04-12T04:55:46.001Z</time></trkpt><trkpt lat="41.14411200796453" lon="15.082225072817764"><ele>601.0</ele><time>2026-04-12T04:55:47.001Z</time></trkpt><trkpt lat="41.144199472425406" lon="15.082214431609614"><ele>601.0</ele><time>2026-04-12T04:55:48.001Z</time></trkpt><trkpt lat="41.14428700923655" lon="15.082201571398729"><ele>602.3333333333334</ele><time>2026-04-12T04:55:49.001Z</time></trkpt><trkpt lat="41.14437249205326" lon="15.082185947278656"><ele>603.6666666666667</ele><time>2026-04-12T04:55:50.001Z</time></trkpt><trkpt lat="41.14445828354268" lon="15.082173214089455"><ele>605.0</ele><time>2026-04-12T04:55:51.001Z</time></trkpt><trkpt lat="41.144546065555645" lon="15.08215095462999"><ele>606.3333333333334</ele><time>2026-04-12T04:55:52.001Z</time></trkpt><trkpt lat="41.14463453364912" lon="15.08213420012826"><ele>607.6666666666666</ele><time>2026-04-12T04:55:53.001Z</time></trkpt><trkpt lat="41.14472444948095" lon="15.08212810965305"><ele>609.0</ele><time>2026-04-12T04:55:54.001Z</time></trkpt><trkpt lat="41.14480480693495" lon="15.08213730034396"><ele>610.2</ele><time>2026-04-12T04:55:55.001Z</time></trkpt><trkpt lat="41.14489885590946" lon="15.082145865037987"><ele>611.4</ele><time>2026-04-12T04:55:56.001Z</time></trkpt><trkpt lat="41.14499702135368" lon="15.082156087109864"><ele>612.6</ele><time>2026-04-12T04:55:57.001Z</time></trkpt><trkpt lat="41.14509191077716" lon="15.082172195424828"><ele>613.8</ele><time>2026-04-12T04:55:58.001Z</time></trkpt><trkpt lat="41.14518678245041" lon="15.082188987938766"><ele>615.0</ele><time>2026-04-12T04:55:59.001Z</time></trkpt><trkpt lat="41.14528098356865" lon="15.082216817937033"><ele>615.0</ele><time>2026-04-12T04:56:00.001Z</time></trkpt><trkpt lat="41.14537497556829" lon="15.08225345833179"><ele>615.0</ele><time>2026-04-12T04:56:01.001Z</time></trkpt><trkpt lat="41.1454667123994" lon="15.082288265418326"><ele>615.0</ele><time>2026-04-12T04:56:02.001Z</time></trkpt><trkpt lat="41.14555776061272" lon="15.082330349528302"><ele>615.0</ele><time>2026-04-12T04:56:03.001Z</time></trkpt><trkpt lat="41.14564607751025" lon="15.082370849557456"><ele>615.0</ele><time>2026-04-12T04:56:04.001Z</time></trkpt><trkpt lat="41.14573346120251" lon="15.082408849797305"><ele>620.0</ele><time>2026-04-12T04:56:05.001Z</time></trkpt><trkpt lat="41.14582173646716" lon="15.082447346772105"><ele>625.0</ele><time>2026-04-12T04:56:06.001Z</time></trkpt><trkpt lat="41.14591251031891" lon="15.082484588654678"><ele>630.0</ele><time>2026-04-12T04:56:07.001Z</time></trkpt><trkpt lat="41.145997449270205" lon="15.08252894678773"><ele>635.0</ele><time>2026-04-12T04:56:08.001Z</time></trkpt><trkpt lat="41.146081903286806" lon="15.082588497142396"><ele>640.0</ele><time>2026-04-12T04:56:09.001Z</time></trkpt><trkpt lat="41.146159248651415" lon="15.08266135703405"><ele>640.0</ele><time>2026-04-12T04:56:10Z</time></trkpt><trkpt lat="41.146231464663444" lon="15.082743499587707"><ele>640.0</ele><time>2026-04-12T04:56:11Z</time></trkpt><trkpt lat="41.14630439890379" lon="15.082849910952268"><ele>640.0</ele><time>2026-04-12T04:56:12Z</time></trkpt><trkpt lat="41.1463620974883" lon="15.082970863616445"><ele>640.0</ele><time>2026-04-12T04:56:13Z</time></trkpt><trkpt lat="41.14645955695229" lon="15.083108551806056"><ele>640.0</ele><time>2026-04-12T04:56:14Z</time></trkpt><trkpt lat="41.14653213238153" lon="15.083242678505655"><ele>640.0</ele><time>2026-04-12T04:56:15Z</time></trkpt><trkpt lat="41.14660218696869" lon="15.083384043379565"><ele>640.0</ele><time>2026-04-12T04:56:16Z</time></trkpt><trkpt lat="41.14667261518755" lon="15.083544249780909"><ele>640.0</ele><time>2026-04-12T04:56:17Z</time></trkpt><trkpt lat="41.146743251977426" lon="15.08372519880598"><ele>641.3333333333334</ele><time>2026-04-12T04:56:18Z</time></trkpt><trkpt lat="41.14682197978419" lon="15.08389792928689"><ele>642.6666666666666</ele><time>2026-04-12T04:56:19Z</time></trkpt><trkpt lat="41.14688112640957" lon="15.084071542288358"><ele>644.0</ele><time>2026-04-12T04:56:20Z</time></trkpt><trkpt lat="41.14698518348502" lon="15.084282586607996"><ele>644.6666666666666</ele><time>2026-04-12T04:56:21Z</time></trkpt><trkpt lat="41.14706932032523" lon="15.084465115557185"><ele>645.3333333333334</ele><time>2026-04-12T04:56:22Z</time></trkpt><trkpt lat="41.14714941994764" lon="15.084644716071294"><ele>646.0</ele><time>2026-04-12T04:56:23Z</time></trkpt><trkpt lat="41.14722913388661" lon="15.084824948204558"><ele>646.0</ele><time>2026-04-12T04:56:24Z</time></trkpt><trkpt lat="41.14731304101395" lon="15.085007227282832"><ele>646.0</ele><time>2026-04-12T04:56:25Z</time></trkpt><trkpt lat="41.14740140268059" lon="15.085189102055466"><ele>646.0</ele><time>2026-04-12T04:56:26Z</time></trkpt><trkpt lat="41.14748699136599" lon="15.085379443636247"><ele>650.0</ele><time>2026-04-12T04:56:27Z</time></trkpt><trkpt lat="41.14756882672707" lon="15.08556449706888"><ele>654.0</ele><time>2026-04-12T04:56:28Z</time></trkpt><trkpt lat="41.147628930150525" lon="15.08576569159049"><ele>658.0</ele><time>2026-04-12T04:56:29Z</time></trkpt><trkpt lat="41.147671186791214" lon="15.085987496922915"><ele>663.3333333333334</ele><time>2026-04-12T04:56:30.015Z</time></trkpt><trkpt lat="41.14776236272513" lon="15.086170568762679"><ele>668.6666666666666</ele><time>2026-04-12T04:56:31.021Z</time></trkpt><trkpt lat="41.147846554245795" lon="15.086358044107572"><ele>674.0</ele><time>2026-04-12T04:56:32.032Z</time></trkpt><trkpt lat="41.14793079700583" lon="15.086541751704853"><ele>675.0</ele><time>2026-04-12T04:56:33.025Z</time></trkpt><trkpt lat="41.1480164645457" lon="15.08672616547866"><ele>676.0</ele><time>2026-04-12T04:56:34.024Z</time></trkpt><trkpt lat="41.14840619269865" lon="15.087470803423866"><ele>670.6666666666667</ele><time>2026-04-12T04:56:38Z</time></trkpt><trkpt lat="41.14849552614762" lon="15.087670754160847"><ele>665.3333333333334</ele><time>2026-04-12T04:56:39Z</time></trkpt><trkpt lat="41.148597569769976" lon="15.087900157643427"><ele>660.0</ele><time>2026-04-12T04:56:40Z</time></trkpt><trkpt lat="41.14869201188567" lon="15.088092534193999"><ele>657.0</ele><time>2026-04-12T04:56:41Z</time></trkpt><trkpt lat="41.14878847585641" lon="15.08829023945132"><ele>654.0</ele><time>2026-04-12T04:56:42Z</time></trkpt><trkpt lat="41.148869592128754" lon="15.088493517291884"><ele>651.0</ele><time>2026-04-12T04:56:43Z</time></trkpt><trkpt lat="41.14891852992663" lon="15.088723701185438"><ele>651.0</ele><time>2026-04-12T04:56:44Z</time></trkpt><trkpt lat="41.14897879420003" lon="15.088937580975411"><ele>651.0</ele><time>2026-04-12T04:56:45Z</time></trkpt><trkpt lat="41.14903326050307" lon="15.089151111313388"><ele>651.0</ele><time>2026-04-12T04:56:46Z</time></trkpt><trkpt lat="41.149083703268545" lon="15.0893669741556"><ele>650.6666666666666</ele><time>2026-04-12T04:56:47Z</time></trkpt><trkpt lat="41.14913385620339" lon="15.089587527745696"><ele>650.3333333333333</ele><time>2026-04-12T04:56:48Z</time></trkpt><trkpt lat="41.14917536706814" lon="15.08981879743257"><ele>650.0</ele><time>2026-04-12T04:56:49Z</time></trkpt><trkpt lat="41.149211087259516" lon="15.090057147733246"><ele>650.0</ele><time>2026-04-12T04:56:50Z</time></trkpt><trkpt lat="41.14924499990021" lon="15.090298812841912"><ele>650.0</ele><time>2026-04-12T04:56:51Z</time></trkpt><trkpt lat="41.14928054902322" lon="15.09053995340883"><ele>650.0</ele><time>2026-04-12T04:56:52Z</time></trkpt><trkpt lat="41.149322999724916" lon="15.090779719430186"><ele>651.0</ele><time>2026-04-12T04:56:53Z</time></trkpt><trkpt lat="41.14936988669966" lon="15.091020372293139"><ele>652.0</ele><time>2026-04-12T04:56:54Z</time></trkpt><trkpt lat="41.14941323154691" lon="15.091260117221841"><ele>653.0</ele><time>2026-04-12T04:56:55Z</time></trkpt><trkpt lat="41.14945211725853" lon="15.09150431406063"><ele>650.3333333333333</ele><time>2026-04-12T04:56:56Z</time></trkpt><trkpt lat="41.14948916108626" lon="15.091752373198322"><ele>647.6666666666666</ele><time>2026-04-12T04:56:57Z</time></trkpt><trkpt lat="41.14952436069874" lon="15.092000240661845"><ele>645.0</ele><time>2026-04-12T04:56:58Z</time></trkpt><trkpt lat="41.149563555735476" lon="15.092244732704899"><ele>640.0</ele><time>2026-04-12T04:56:59Z</time></trkpt><trkpt lat="41.1496050430862" lon="15.092488819939916"><ele>635.0</ele><time>2026-04-12T04:57:00Z</time></trkpt><trkpt lat="41.1496449293818" lon="15.092730541721137"><ele>630.0</ele><time>2026-04-12T04:57:01Z</time></trkpt><trkpt lat="41.14968752072031" lon="15.092972291296615"><ele>630.0</ele><time>2026-04-12T04:57:02Z</time></trkpt><trkpt lat="41.14972778710457" lon="15.093214239236385"><ele>630.0</ele><time>2026-04-12T04:57:03Z</time></trkpt><trkpt lat="41.14976582412576" lon="15.093455331120945"><ele>630.0</ele><time>2026-04-12T04:57:04Z</time></trkpt><trkpt lat="41.149804482601915" lon="15.093694006225135"><ele>634.0</ele><time>2026-04-12T04:57:05Z</time></trkpt><trkpt lat="41.14984104622628" lon="15.09393451047561"><ele>638.0</ele><time>2026-04-12T04:57:06Z</time></trkpt><trkpt lat="41.14987722784111" lon="15.094170995303333"><ele>642.0</ele><time>2026-04-12T04:57:07Z</time></trkpt><trkpt lat="41.14991537847901" lon="15.094407629006556"><ele>648.3333333333334</ele><time>2026-04-12T04:57:08Z</time></trkpt><trkpt lat="41.149955310872606" lon="15.094640482672306"><ele>654.6666666666667</ele><time>2026-04-12T04:57:09Z</time></trkpt><trkpt lat="41.14999692096746" lon="15.094873824716013"><ele>661.0</ele><time>2026-04-12T04:57:10Z</time></trkpt><trkpt lat="41.15004362020503" lon="15.095099596818025"><ele>661.0</ele><time>2026-04-12T04:57:11Z</time></trkpt><trkpt lat="41.150089225684354" lon="15.095326751137204"><ele>661.0</ele><time>2026-04-12T04:57:12Z</time></trkpt><trkpt lat="41.150142520779006" lon="15.095552065912928"><ele>661.0</ele><time>2026-04-12T04:57:13Z</time></trkpt><trkpt lat="41.15019844829984" lon="15.095778141675902"><ele>659.3333333333334</ele><time>2026-04-12T04:57:14Z</time></trkpt><trkpt lat="41.15026534726928" lon="15.095996239619911"><ele>657.6666666666666</ele><time>2026-04-12T04:57:15Z</time></trkpt><trkpt lat="41.150333020811445" lon="15.096218083137044"><ele>656.0</ele><time>2026-04-12T04:57:16Z</time></trkpt><trkpt lat="41.15040930130712" lon="15.096417342507134"><ele>655.3333333333333</ele><time>2026-04-12T04:57:17Z</time></trkpt><trkpt lat="41.15050449789179" lon="15.09660473255418"><ele>654.6666666666666</ele><time>2026-04-12T04:57:18Z</time></trkpt><trkpt lat="41.15060104834729" lon="15.09678751388363"><ele>654.0</ele><time>2026-04-12T04:57:19Z</time></trkpt><trkpt lat="41.15070022216509" lon="15.096965013967557"><ele>658.3333333333334</ele><time>2026-04-12T04:57:20Z</time></trkpt><trkpt lat="41.150802764031745" lon="15.097135331423257"><ele>662.6666666666667</ele><time>2026-04-12T04:57:21Z</time></trkpt><trkpt lat="41.15090516922094" lon="15.097296197125432"><ele>667.0</ele><time>2026-04-12T04:57:22Z</time></trkpt><trkpt lat="41.151011383938" lon="15.097449378369886"><ele>667.0</ele><time>2026-04-12T04:57:23Z</time></trkpt><trkpt lat="41.151123536698854" lon="15.097597904971344"><ele>667.0</ele><time>2026-04-12T04:57:24Z</time></trkpt><trkpt lat="41.151242777354305" lon="15.097731745796086"><ele>667.0</ele><time>2026-04-12T04:57:25Z</time></trkpt><trkpt lat="41.1513648017683" lon="15.09784707456892"><ele>667.0</ele><time>2026-04-12T04:57:26Z</time></trkpt><trkpt lat="41.15147461662734" lon="15.097948923251733"><ele>667.0</ele><time>2026-04-12T04:57:27Z</time></trkpt><trkpt lat="41.15160490024956" lon="15.098084021571577"><ele>667.0</ele><time>2026-04-12T04:57:28Z</time></trkpt><trkpt lat="41.15174018198782" lon="15.098202851209177"><ele>667.6666666666667</ele><time>2026-04-12T04:57:29Z</time></trkpt><trkpt lat="41.15187438297745" lon="15.098331718136194"><ele>668.3333333333334</ele><time>2026-04-12T04:57:30Z</time></trkpt><trkpt lat="41.15201494404259" lon="15.098462165089234"><ele>669.0</ele><time>2026-04-12T04:57:31Z</time></trkpt><trkpt lat="41.152157181604515" lon="15.098594914116493"><ele>669.0</ele><time>2026-04-12T04:57:32Z</time></trkpt><trkpt lat="41.15230638157706" lon="15.098727901823466"><ele>669.0</ele><time>2026-04-12T04:57:33Z</time></trkpt><trkpt lat="41.152456107654004" lon="15.098857124833753"><ele>669.0</ele><time>2026-04-12T04:57:34Z</time></trkpt><trkpt lat="41.15260879560482" lon="15.098988509065883"><ele>664.0</ele><time>2026-04-12T04:57:35Z</time></trkpt><trkpt lat="41.15275963096138" lon="15.099124176704391"><ele>659.0</ele><time>2026-04-12T04:57:36Z</time></trkpt><trkpt lat="41.152909285791765" lon="15.099262117067697"><ele>654.0</ele><time>2026-04-12T04:57:37Z</time></trkpt><trkpt lat="41.15305763503595" lon="15.099394820573453"><ele>654.0</ele><time>2026-04-12T04:57:38Z</time></trkpt><trkpt lat="41.153202268828615" lon="15.099523605492537"><ele>654.0</ele><time>2026-04-12T04:57:39Z</time></trkpt><trkpt lat="41.153343661822475" lon="15.099651114194858"><ele>654.0</ele><time>2026-04-12T04:57:40Z</time></trkpt><trkpt lat="41.153482447432836" lon="15.099777734014953"><ele>652.0</ele><time>2026-04-12T04:57:41.001Z</time></trkpt><trkpt lat="41.153619203616344" lon="15.099907771326258"><ele>650.0</ele><time>2026-04-12T04:57:42.001Z</time></trkpt><trkpt lat="41.1537547805961" lon="15.100029777809052"><ele>648.0</ele><time>2026-04-12T04:57:43.001Z</time></trkpt><trkpt lat="41.15388612832998" lon="15.100154087280535"><ele>648.0</ele><time>2026-04-12T04:57:44.001Z</time></trkpt><trkpt lat="41.1540199146931" lon="15.100274131777986"><ele>648.0</ele><time>2026-04-12T04:57:45.001Z</time></trkpt><trkpt lat="41.15415116464503" lon="15.100399234468222"><ele>648.0</ele><time>2026-04-12T04:57:46.001Z</time></trkpt><trkpt lat="41.15428193790392" lon="15.100521120980028"><ele>651.3333333333334</ele><time>2026-04-12T04:57:47.001Z</time></trkpt><trkpt lat="41.154414555749746" lon="15.100643303840931"><ele>654.6666666666667</ele><time>2026-04-12T04:57:48.001Z</time></trkpt><trkpt lat="41.15454883964444" lon="15.100760859116944"><ele>658.0</ele><time>2026-04-12T04:57:49.001Z</time></trkpt><trkpt lat="41.154685418105494" lon="15.100874853915583"><ele>658.0</ele><time>2026-04-12T04:57:50.001Z</time></trkpt><trkpt lat="41.154827450871956" lon="15.10098337341803"><ele>658.0</ele><time>2026-04-12T04:57:51.001Z</time></trkpt><trkpt lat="41.15497675818417" lon="15.101081735972569"><ele>658.0</ele><time>2026-04-12T04:57:52.001Z</time></trkpt><trkpt lat="41.15513227841615" lon="15.101168270619276"><ele>662.0</ele><time>2026-04-12T04:57:53.001Z</time></trkpt><trkpt lat="41.155291135404546" lon="15.101241402009999"><ele>666.0</ele><time>2026-04-12T04:57:54.001Z</time></trkpt><trkpt lat="41.15545433905776" lon="15.101300699172713"><ele>670.0</ele><time>2026-04-12T04:57:55.001Z</time></trkpt><trkpt lat="41.15562436291161" lon="15.101341206336764"><ele>670.0</ele><time>2026-04-12T04:57:56.001Z</time></trkpt><trkpt lat="41.15579843227646" lon="15.101373931763002"><ele>670.0</ele><time>2026-04-12T04:57:57.001Z</time></trkpt><trkpt lat="41.15596989258492" lon="15.101388178702035"><ele>670.0</ele><time>2026-04-12T04:57:58.001Z</time></trkpt><trkpt lat="41.15615008230728" lon="15.101384599541829"><ele>670.0</ele><time>2026-04-12T04:57:59.001Z</time></trkpt><trkpt lat="41.156326797438474" lon="15.101368346230894"><ele>670.0</ele><time>2026-04-12T04:58:00.001Z</time></trkpt><trkpt lat="41.156504807210304" lon="15.101344214791204"><ele>670.0</ele><time>2026-04-12T04:58:01.001Z</time></trkpt><trkpt lat="41.156683849117414" lon="15.10130616730878"><ele>668.3333333333334</ele><time>2026-04-12T04:58:02.001Z</time></trkpt><trkpt lat="41.15686153957051" lon="15.101245319627694"><ele>666.6666666666666</ele><time>2026-04-12T04:58:03.001Z</time></trkpt><trkpt lat="41.15703656389232" lon="15.101173448957947"><ele>665.0</ele><time>2026-04-12T04:58:04.001Z</time></trkpt><trkpt lat="41.15721310236657" lon="15.101103204750153"><ele>660.6666666666666</ele><time>2026-04-12T04:58:05.001Z</time></trkpt><trkpt lat="41.15739324337689" lon="15.101038860045625"><ele>656.3333333333334</ele><time>2026-04-12T04:58:06.001Z</time></trkpt><trkpt lat="41.157582273891265" lon="15.100986005132905"><ele>652.0</ele><time>2026-04-12T04:58:07.001Z</time></trkpt><trkpt lat="41.15776785356048" lon="15.10092097146925"><ele>652.0</ele><time>2026-04-12T04:58:08.001Z</time></trkpt><trkpt lat="41.15794863620429" lon="15.100843881118406"><ele>652.0</ele><time>2026-04-12T04:58:09.001Z</time></trkpt><trkpt lat="41.1581272038" lon="15.100766818599896"><ele>652.0</ele><time>2026-04-12T04:58:10.001Z</time></trkpt><trkpt lat="41.158313150652496" lon="15.100693370882608"><ele>652.3333333333334</ele><time>2026-04-12T04:58:11.001Z</time></trkpt><trkpt lat="41.15849965144551" lon="15.100619859874119"><ele>652.6666666666666</ele><time>2026-04-12T04:58:12.001Z</time></trkpt><trkpt lat="41.158689800321426" lon="15.100538485212208"><ele>653.0</ele><time>2026-04-12T04:58:13.001Z</time></trkpt><trkpt lat="41.15887473760203" lon="15.100464623673277"><ele>646.6666666666666</ele><time>2026-04-12T04:58:14.001Z</time></trkpt><trkpt lat="41.15906394070735" lon="15.10038682450098"><ele>640.3333333333334</ele><time>2026-04-12T04:58:15.001Z</time></trkpt><trkpt lat="41.15925191124427" lon="15.100315048877222"><ele>634.0</ele><time>2026-04-12T04:58:16Z</time></trkpt><trkpt lat="41.159443016269435" lon="15.10024360357097"><ele>634.0</ele><time>2026-04-12T04:58:17Z</time></trkpt><trkpt lat="41.15963724998588" lon="15.100168901494003"><ele>634.0</ele><time>2026-04-12T04:58:18Z</time></trkpt><trkpt lat="41.15983208854077" lon="15.100090122995038"><ele>634.0</ele><time>2026-04-12T04:58:19Z</time></trkpt><trkpt lat="41.160022958739845" lon="15.100012737087189"><ele>632.0</ele><time>2026-04-12T04:58:20Z</time></trkpt><trkpt lat="41.16021830154468" lon="15.09993538815732"><ele>630.0</ele><time>2026-04-12T04:58:21Z</time></trkpt><trkpt lat="41.160413759490794" lon="15.09985920568566"><ele>628.0</ele><time>2026-04-12T04:58:22Z</time></trkpt><trkpt lat="41.16060826975055" lon="15.099781787932718"><ele>630.6666666666667</ele><time>2026-04-12T04:58:23Z</time></trkpt><trkpt lat="41.160792011428626" lon="15.099707533266592"><ele>633.3333333333334</ele><time>2026-04-12T04:58:24Z</time></trkpt><trkpt lat="41.16096512105264" lon="15.099639952893455"><ele>636.0</ele><time>2026-04-12T04:58:25Z</time></trkpt><trkpt lat="41.16113431192327" lon="15.09958208072652"><ele>636.0</ele><time>2026-04-12T04:58:26Z</time></trkpt><trkpt lat="41.161300766457835" lon="15.099541949316437"><ele>636.0</ele><time>2026-04-12T04:58:27Z</time></trkpt><trkpt lat="41.16147276351421" lon="15.099520313131066"><ele>636.0</ele><time>2026-04-12T04:58:28Z</time></trkpt><trkpt lat="41.161645239551966" lon="15.099524571724508"><ele>635.6666666666666</ele><time>2026-04-12T04:58:29Z</time></trkpt><trkpt lat="41.16181790492746" lon="15.099550278497373"><ele>635.3333333333333</ele><time>2026-04-12T04:58:30Z</time></trkpt><trkpt lat="41.161985301665794" lon="15.09959796695487"><ele>635.0</ele><time>2026-04-12T04:58:31Z</time></trkpt><trkpt lat="41.16214965394046" lon="15.099674787264025"><ele>635.0</ele><time>2026-04-12T04:58:32Z</time></trkpt><trkpt lat="41.16230419890127" lon="15.09976578048747"><ele>635.0</ele><time>2026-04-12T04:58:33Z</time></trkpt><trkpt lat="41.162451000388984" lon="15.099875093157074"><ele>635.0</ele><time>2026-04-12T04:58:34Z</time></trkpt><trkpt lat="41.16258961098974" lon="15.100000348154186"><ele>628.0</ele><time>2026-04-12T04:58:35Z</time></trkpt><trkpt lat="41.16271883618382" lon="15.10014081143691"><ele>621.0</ele><time>2026-04-12T04:58:36Z</time></trkpt><trkpt lat="41.16283651411881" lon="15.100296860259029"><ele>614.0</ele><time>2026-04-12T04:58:37Z</time></trkpt><trkpt lat="41.16294157380369" lon="15.100461102505626"><ele>614.0</ele><time>2026-04-12T04:58:38Z</time></trkpt><trkpt lat="41.16302578445091" lon="15.100630398534474"><ele>614.0</ele><time>2026-04-12T04:58:39Z</time></trkpt><trkpt lat="41.1631032466839" lon="15.100815728932982"><ele>614.0</ele><time>2026-04-12T04:58:40Z</time></trkpt><trkpt lat="41.16316853995415" lon="15.101006960262632"><ele>616.6666666666666</ele><time>2026-04-12T04:58:41Z</time></trkpt><trkpt lat="41.16322384828061" lon="15.101199406981472"><ele>619.3333333333334</ele><time>2026-04-12T04:58:42Z</time></trkpt><trkpt lat="41.16326617180748" lon="15.10140278001327"><ele>622.0</ele><time>2026-04-12T04:58:43Z</time></trkpt><trkpt lat="41.16329371364149" lon="15.10161391917514"><ele>622.0</ele><time>2026-04-12T04:58:44Z</time></trkpt><trkpt lat="41.163302947202" lon="15.101831670430037"><ele>622.0</ele><time>2026-04-12T04:58:45Z</time></trkpt><trkpt lat="41.163299267546066" lon="15.102055836548136"><ele>622.0</ele><time>2026-04-12T04:58:46Z</time></trkpt><trkpt lat="41.16328240173235" lon="15.102276188503465"><ele>623.3333333333334</ele><time>2026-04-12T04:58:47Z</time></trkpt><trkpt lat="41.163248903771255" lon="15.102497111259702"><ele>624.6666666666666</ele><time>2026-04-12T04:58:48Z</time></trkpt><trkpt lat="41.16320459576333" lon="15.10272458956552"><ele>626.0</ele><time>2026-04-12T04:58:49Z</time></trkpt><trkpt lat="41.163153241796834" lon="15.102940628058295"><ele>624.6666666666666</ele><time>2026-04-12T04:58:50Z</time></trkpt><trkpt lat="41.163091214292564" lon="15.10316076596121"><ele>623.3333333333334</ele><time>2026-04-12T04:58:51Z</time></trkpt><trkpt lat="41.16304531001399" lon="15.103368047187544"><ele>622.0</ele><time>2026-04-12T04:58:52Z</time></trkpt><trkpt lat="41.16300096145229" lon="15.103599593989196"><ele>622.0</ele><time>2026-04-12T04:58:53Z</time></trkpt><trkpt lat="41.16295812812186" lon="15.103826506148403"><ele>622.0</ele><time>2026-04-12T04:58:54Z</time></trkpt><trkpt lat="41.1629186805238" lon="15.104039546220719"><ele>622.0</ele><time>2026-04-12T04:58:55Z</time></trkpt><trkpt lat="41.16288053313517" lon="15.104231601310273"><ele>622.75</ele><time>2026-04-12T04:58:56Z</time></trkpt><trkpt lat="41.16284144710861" lon="15.104403692680146"><ele>623.5</ele><time>2026-04-12T04:58:57Z</time></trkpt><trkpt lat="41.162811271768426" lon="15.104557441429"><ele>624.25</ele><time>2026-04-12T04:58:58Z</time></trkpt><trkpt lat="41.162791053949775" lon="15.104704647571046"><ele>625.0</ele><time>2026-04-12T04:58:59Z</time></trkpt><trkpt lat="41.1627692738494" lon="15.104833404583763"><ele>625.0</ele><time>2026-04-12T04:59:00Z</time></trkpt><trkpt lat="41.16274709559149" lon="15.104991943110244"><ele>625.0</ele><time>2026-04-12T04:59:01Z</time></trkpt><trkpt lat="41.16272579017024" lon="15.105156742674259"><ele>625.0</ele><time>2026-04-12T04:59:02Z</time></trkpt><trkpt lat="41.16270717302009" lon="15.105327685239525"><ele>625.0</ele><time>2026-04-12T04:59:03Z</time></trkpt><trkpt lat="41.162687688813854" lon="15.105495830860914"><ele>625.0</ele><time>2026-04-12T04:59:04Z</time></trkpt><trkpt lat="41.16263649152272" lon="15.105667604148833"><ele>625.0</ele><time>2026-04-12T04:59:05Z</time></trkpt><trkpt lat="41.162571249147184" lon="15.10585213718704"><ele>625.0</ele><time>2026-04-12T04:59:06Z</time></trkpt><trkpt lat="41.16251742548516" lon="15.10603990669385"><ele>625.0</ele><time>2026-04-12T04:59:07Z</time></trkpt><trkpt lat="41.162468655540074" lon="15.10623990299764"><ele>624.0</ele><time>2026-04-12T04:59:08Z</time></trkpt><trkpt lat="41.16242286310126" lon="15.106446735405697"><ele>623.0</ele><time>2026-04-12T04:59:09Z</time></trkpt><trkpt lat="41.16238067274558" lon="15.10665773592592"><ele>622.0</ele><time>2026-04-12T04:59:10Z</time></trkpt><trkpt lat="41.16234351593012" lon="15.10686827874127"><ele>622.0</ele><time>2026-04-12T04:59:11Z</time></trkpt><trkpt lat="41.16230038874879" lon="15.107074772981035"><ele>622.0</ele><time>2026-04-12T04:59:12Z</time></trkpt><trkpt lat="41.16222185318155" lon="15.107261109581163"><ele>622.0</ele><time>2026-04-12T04:59:13Z</time></trkpt><trkpt lat="41.162159094380335" lon="15.107457196584045"><ele>624.6666666666667</ele><time>2026-04-12T04:59:14Z</time></trkpt><trkpt lat="41.16207562740397" lon="15.107640787057633"><ele>627.3333333333334</ele><time>2026-04-12T04:59:15Z</time></trkpt><trkpt lat="41.16199249734326" lon="15.107818298585943"><ele>630.0</ele><time>2026-04-12T04:59:16Z</time></trkpt><trkpt lat="41.16190785842578" lon="15.107997156884133"><ele>630.0</ele><time>2026-04-12T04:59:17Z</time></trkpt><trkpt lat="41.16182667767419" lon="15.10817922384921"><ele>630.0</ele><time>2026-04-12T04:59:18Z</time></trkpt><trkpt lat="41.161748809362074" lon="15.10836151508997"><ele>630.0</ele><time>2026-04-12T04:59:19Z</time></trkpt><trkpt lat="41.16166952685254" lon="15.108540162204728"><ele>631.3333333333334</ele><time>2026-04-12T04:59:20Z</time></trkpt><trkpt lat="41.1615928180254" lon="15.10872322740229"><ele>632.6666666666667</ele><time>2026-04-12T04:59:21Z</time></trkpt><trkpt lat="41.16152557581004" lon="15.108917321577787"><ele>634.0</ele><time>2026-04-12T04:59:22Z</time></trkpt><trkpt lat="41.16146793367538" lon="15.109115332855634"><ele>635.3333333333334</ele><time>2026-04-12T04:59:23Z</time></trkpt><trkpt lat="41.16141587980163" lon="15.109319170208373"><ele>636.6666666666666</ele><time>2026-04-12T04:59:24Z</time></trkpt><trkpt lat="41.16136958858753" lon="15.10952863419816"><ele>638.0</ele><time>2026-04-12T04:59:25Z</time></trkpt><trkpt lat="41.161327434042505" lon="15.109742920025534"><ele>640.6666666666666</ele><time>2026-04-12T04:59:26Z</time></trkpt><trkpt lat="41.16129108091944" lon="15.109967194416559"><ele>643.3333333333334</ele><time>2026-04-12T04:59:27Z</time></trkpt><trkpt lat="41.161240949658705" lon="15.1101730277547"><ele>646.0</ele><time>2026-04-12T04:59:28Z</time></trkpt><trkpt lat="41.16119235506041" lon="15.11037944286334"><ele>646.0</ele><time>2026-04-12T04:59:29Z</time></trkpt><trkpt lat="41.16114583107673" lon="15.110585043548392"><ele>646.0</ele><time>2026-04-12T04:59:30.001Z</time></trkpt><trkpt lat="41.161098555914506" lon="15.110797726837214"><ele>646.0</ele><time>2026-04-12T04:59:31.001Z</time></trkpt><trkpt lat="41.16104877705448" lon="15.111000175228378"><ele>647.0</ele><time>2026-04-12T04:59:32.001Z</time></trkpt><trkpt lat="41.160995534365824" lon="15.111198810900412"><ele>648.0</ele><time>2026-04-12T04:59:33.001Z</time></trkpt><trkpt lat="41.16094292816251" lon="15.11139831430065"><ele>649.0</ele><time>2026-04-12T04:59:34.001Z</time></trkpt><trkpt lat="41.16089577147645" lon="15.111593533433092"><ele>649.0</ele><time>2026-04-12T04:59:35.001Z</time></trkpt><trkpt lat="41.160853538571196" lon="15.11179166023205"><ele>649.0</ele><time>2026-04-12T04:59:36.001Z</time></trkpt><trkpt lat="41.16080785054383" lon="15.111988463977953"><ele>649.0</ele><time>2026-04-12T04:59:37.001Z</time></trkpt><trkpt lat="41.16076126005193" lon="15.112186111343558"><ele>649.0</ele><time>2026-04-12T04:59:38.001Z</time></trkpt><trkpt lat="41.160715024487715" lon="15.112377553322222"><ele>649.0</ele><time>2026-04-12T04:59:39.001Z</time></trkpt><trkpt lat="41.16066824433619" lon="15.112568359052498"><ele>649.0</ele><time>2026-04-12T04:59:40.001Z</time></trkpt><trkpt lat="41.16062492741941" lon="15.112751746606422"><ele>649.0</ele><time>2026-04-12T04:59:41.001Z</time></trkpt><trkpt lat="41.16058118602618" lon="15.112932878500159"><ele>647.0</ele><time>2026-04-12T04:59:42.001Z</time></trkpt><trkpt lat="41.16053309057445" lon="15.113119895448051"><ele>645.0</ele><time>2026-04-12T04:59:43.001Z</time></trkpt><trkpt lat="41.1604813799134" lon="15.113307743991426"><ele>643.0</ele><time>2026-04-12T04:59:44.001Z</time></trkpt><trkpt lat="41.16042887907228" lon="15.113498617515488"><ele>642.75</ele><time>2026-04-12T04:59:45.001Z</time></trkpt><trkpt lat="41.16037490142987" lon="15.113684615207292"><ele>642.5</ele><time>2026-04-12T04:59:46.001Z</time></trkpt><trkpt lat="41.16032976944846" lon="15.113857345390464"><ele>642.25</ele><time>2026-04-12T04:59:47.001Z</time></trkpt><trkpt lat="41.16028324765039" lon="15.114022590592032"><ele>642.0</ele><time>2026-04-12T04:59:48.001Z</time></trkpt><trkpt lat="41.160230773781734" lon="15.11419636764508"><ele>641.3333333333334</ele><time>2026-04-12T04:59:49.001Z</time></trkpt><trkpt lat="41.160166707124965" lon="15.114376090525099"><ele>640.6666666666667</ele><time>2026-04-12T04:59:50.001Z</time></trkpt><trkpt lat="41.16008865956615" lon="15.114542557005716"><ele>640.0</ele><time>2026-04-12T04:59:51.001Z</time></trkpt><trkpt lat="41.15998224021371" lon="15.114705903725747"><ele>640.0</ele><time>2026-04-12T04:59:52.001Z</time></trkpt><trkpt lat="41.15987230455234" lon="15.114845714308947"><ele>640.0</ele><time>2026-04-12T04:59:53.001Z</time></trkpt><trkpt lat="41.15976146219843" lon="15.114990134643453"><ele>640.0</ele><time>2026-04-12T04:59:54.001Z</time></trkpt><trkpt lat="41.15966635547115" lon="15.115137904665128"><ele>639.5</ele><time>2026-04-12T04:59:55.001Z</time></trkpt><trkpt lat="41.15957780700481" lon="15.115271023334623"><ele>639.0</ele><time>2026-04-12T04:59:56.001Z</time></trkpt><trkpt lat="41.15948974057663" lon="15.115432720779"><ele>638.5</ele><time>2026-04-12T04:59:57.001Z</time></trkpt><trkpt lat="41.15942209148356" lon="15.115606235316461"><ele>638.0</ele><time>2026-04-12T04:59:58.001Z</time></trkpt><trkpt lat="41.15937501990112" lon="15.11579907380921"><ele>637.6666666666666</ele><time>2026-04-12T04:59:59.001Z</time></trkpt><trkpt lat="41.159342513098096" lon="15.116001457361914"><ele>637.3333333333334</ele><time>2026-04-12T05:00:00.001Z</time></trkpt><trkpt lat="41.15928924783882" lon="15.116197317051915"><ele>637.0</ele><time>2026-04-12T05:00:01.001Z</time></trkpt><trkpt lat="41.159236939084956" lon="15.116376402157956"><ele>637.0</ele><time>2026-04-12T05:00:02.001Z</time></trkpt><trkpt lat="41.159135898380875" lon="15.116537354700602"><ele>637.0</ele><time>2026-04-12T05:00:03.001Z</time></trkpt><trkpt lat="41.159033792890526" lon="15.116661312433509"><ele>637.0</ele><time>2026-04-12T05:00:04.001Z</time></trkpt><trkpt lat="41.15892191998867" lon="15.116798966389828"><ele>637.0</ele><time>2026-04-12T05:00:05.001Z</time></trkpt><trkpt lat="41.15878173107352" lon="15.116910649506808"><ele>638.3333333333334</ele><time>2026-04-12T05:00:06.001Z</time></trkpt><trkpt lat="41.158664224430865" lon="15.117066039562442"><ele>639.6666666666666</ele><time>2026-04-12T05:00:07.001Z</time></trkpt><trkpt lat="41.15854245013157" lon="15.11720245579407"><ele>641.0</ele><time>2026-04-12T05:00:08.001Z</time></trkpt><trkpt lat="41.158434458580984" lon="15.11734526729179"><ele>636.3333333333333</ele><time>2026-04-12T05:00:09.001Z</time></trkpt><trkpt lat="41.15834519394155" lon="15.117510153277632"><ele>631.6666666666666</ele><time>2026-04-12T05:00:10.001Z</time></trkpt><trkpt lat="41.15827747465413" lon="15.117701191485702"><ele>627.0</ele><time>2026-04-12T05:00:11.001Z</time></trkpt><trkpt lat="41.15822785116099" lon="15.117894749628078"><ele>626.0</ele><time>2026-04-12T05:00:12.001Z</time></trkpt><trkpt lat="41.15818786669556" lon="15.11809372157339"><ele>625.0</ele><time>2026-04-12T05:00:13.001Z</time></trkpt><trkpt lat="41.15815249475205" lon="15.118294637573216"><ele>624.0</ele><time>2026-04-12T05:00:14.001Z</time></trkpt><trkpt lat="41.158121180681974" lon="15.118499942694106"><ele>624.0</ele><time>2026-04-12T05:00:15.001Z</time></trkpt><trkpt lat="41.158098946085616" lon="15.11870812008898"><ele>624.0</ele><time>2026-04-12T05:00:16.001Z</time></trkpt><trkpt lat="41.15808264671417" lon="15.118920518911773"><ele>624.0</ele><time>2026-04-12T05:00:17.001Z</time></trkpt><trkpt lat="41.15806679770667" lon="15.119129268258725"><ele>620.6666666666666</ele><time>2026-04-12T05:00:18.001Z</time></trkpt><trkpt lat="41.158045560978536" lon="15.119343291907194"><ele>617.3333333333333</ele><time>2026-04-12T05:00:19.001Z</time></trkpt><trkpt lat="41.158021843257174" lon="15.11955760020319"><ele>614.0</ele><time>2026-04-12T05:00:20.001Z</time></trkpt><trkpt lat="41.158005154103755" lon="15.11978238464283"><ele>610.3333333333333</ele><time>2026-04-12T05:00:21.001Z</time></trkpt><trkpt lat="41.15800471835238" lon="15.120006702012057"><ele>606.6666666666666</ele><time>2026-04-12T05:00:22Z</time></trkpt><trkpt lat="41.158016836031756" lon="15.120230883265343"><ele>603.0</ele><time>2026-04-12T05:00:23Z</time></trkpt><trkpt lat="41.15803267260257" lon="15.12045943204755"><ele>603.0</ele><time>2026-04-12T05:00:24Z</time></trkpt><trkpt lat="41.158055798074585" lon="15.120691345273467"><ele>603.0</ele><time>2026-04-12T05:00:25Z</time></trkpt><trkpt lat="41.158070314688736" lon="15.120903193382887"><ele>603.0</ele><time>2026-04-12T05:00:26Z</time></trkpt><trkpt lat="41.158072369654114" lon="15.121118528024846"><ele>601.0</ele><time>2026-04-12T05:00:27Z</time></trkpt><trkpt lat="41.15806328400909" lon="15.121332875354547"><ele>599.0</ele><time>2026-04-12T05:00:28Z</time></trkpt><trkpt lat="41.158054667365946" lon="15.121546880489053"><ele>597.0</ele><time>2026-04-12T05:00:29Z</time></trkpt><trkpt lat="41.1580589458549" lon="15.121759245958216"><ele>597.0</ele><time>2026-04-12T05:00:30Z</time></trkpt><trkpt lat="41.158080313627" lon="15.12195774795289"><ele>597.0</ele><time>2026-04-12T05:00:31Z</time></trkpt><trkpt lat="41.15811210110273" lon="15.122165483733605"><ele>597.0</ele><time>2026-04-12T05:00:32Z</time></trkpt><trkpt lat="41.15815538822596" lon="15.122363803158576"><ele>604.3333333333334</ele><time>2026-04-12T05:00:33Z</time></trkpt><trkpt lat="41.15821152722032" lon="15.122552170573329"><ele>611.6666666666667</ele><time>2026-04-12T05:00:34Z</time></trkpt><trkpt lat="41.15828419215967" lon="15.12272819289054"><ele>619.0</ele><time>2026-04-12T05:00:35Z</time></trkpt><trkpt lat="41.15837374973763" lon="15.122897911846627"><ele>619.0</ele><time>2026-04-12T05:00:36Z</time></trkpt><trkpt lat="41.15847263709389" lon="15.123059595650973"><ele>619.0</ele><time>2026-04-12T05:00:37Z</time></trkpt><trkpt lat="41.15857048656767" lon="15.123203296958394"><ele>619.0</ele><time>2026-04-12T05:00:38Z</time></trkpt><trkpt lat="41.15866897668226" lon="15.123323288623064"><ele>619.0</ele><time>2026-04-12T05:00:39Z</time></trkpt><trkpt lat="41.158786542440104" lon="15.123422588481231"><ele>617.6666666666667</ele><time>2026-04-12T05:00:40Z</time></trkpt><trkpt lat="41.158924299931165" lon="15.123493429078495"><ele>616.3333333333334</ele><time>2026-04-12T05:00:41Z</time></trkpt><trkpt lat="41.15905249533109" lon="15.123541187866506"><ele>615.0</ele><time>2026-04-12T05:00:42Z</time></trkpt><trkpt lat="41.15922951406045" lon="15.123511118628652"><ele>615.0</ele><time>2026-04-12T05:00:43Z</time></trkpt><trkpt lat="41.159385372092274" lon="15.123514018343938"><ele>615.0</ele><time>2026-04-12T05:00:44Z</time></trkpt><trkpt lat="41.159538667697554" lon="15.1235254634211"><ele>615.0</ele><time>2026-04-12T05:00:45Z</time></trkpt><trkpt lat="41.15968269771959" lon="15.123536765357475"><ele>615.0</ele><time>2026-04-12T05:00:46Z</time></trkpt><trkpt lat="41.15981051308463" lon="15.123555255502437"><ele>615.0</ele><time>2026-04-12T05:00:47Z</time></trkpt><trkpt lat="41.159917787323046" lon="15.12360902358255"><ele>615.0</ele><time>2026-04-12T05:00:48Z</time></trkpt><trkpt lat="41.15999797528314" lon="15.123690945123007"><ele>615.0</ele><time>2026-04-12T05:00:49Z</time></trkpt><trkpt lat="41.16005470987813" lon="15.123821835451283"><ele>614.0</ele><time>2026-04-12T05:00:50Z</time></trkpt><trkpt lat="41.16006039861471" lon="15.123991189901194"><ele>613.0</ele><time>2026-04-12T05:00:51Z</time></trkpt><trkpt lat="41.16005021670678" lon="15.124175843174179"><ele>612.0</ele><time>2026-04-12T05:00:52Z</time></trkpt><trkpt lat="41.1600303770839" lon="15.12437976829954"><ele>611.0</ele><time>2026-04-12T05:00:53Z</time></trkpt><trkpt lat="41.16002609143875" lon="15.124592309397508"><ele>614.3333333333333</ele><time>2026-04-12T05:00:54Z</time></trkpt><trkpt lat="41.16003973852168" lon="15.12480328818561"><ele>617.6666666666666</ele><time>2026-04-12T05:00:55Z</time></trkpt><trkpt lat="41.16008714710594" lon="15.124998156402542"><ele>621.0</ele><time>2026-04-12T05:00:56Z</time></trkpt><trkpt lat="41.1601680383293" lon="15.125175936528708"><ele>622.6666666666666</ele><time>2026-04-12T05:00:57Z</time></trkpt><trkpt lat="41.16027734811343" lon="15.12533677051123"><ele>624.3333333333333</ele><time>2026-04-12T05:00:58Z</time></trkpt><trkpt lat="41.160406973805685" lon="15.125476424530401"><ele>626.0</ele><time>2026-04-12T05:00:59Z</time></trkpt><trkpt lat="41.16055685180649" lon="15.12557711965667"><ele>622.0</ele><time>2026-04-12T05:01:00Z</time></trkpt><trkpt lat="41.16071754906477" lon="15.125640941337599"><ele>618.0</ele><time>2026-04-12T05:01:01Z</time></trkpt><trkpt lat="41.16089066179427" lon="15.125656310648502"><ele>614.0</ele><time>2026-04-12T05:01:02Z</time></trkpt><trkpt lat="41.16106145046551" lon="15.125633374995495"><ele>614.0</ele><time>2026-04-12T05:01:03Z</time></trkpt><trkpt lat="41.16122425301538" lon="15.125577033113018"><ele>614.0</ele><time>2026-04-12T05:01:04Z</time></trkpt><trkpt lat="41.16138566758098" lon="15.12550850188206"><ele>614.0</ele><time>2026-04-12T05:01:05Z</time></trkpt><trkpt lat="41.161533066388465" lon="15.125425457827843"><ele>615.3333333333333</ele><time>2026-04-12T05:01:06Z</time></trkpt><trkpt lat="41.16167364558867" lon="15.125330817673811"><ele>616.6666666666666</ele><time>2026-04-12T05:01:07Z</time></trkpt><trkpt lat="41.16181948056934" lon="15.125235720126641"><ele>618.0</ele><time>2026-04-12T05:01:08Z</time></trkpt><trkpt lat="41.16196972214628" lon="15.125156421653708"><ele>618.0</ele><time>2026-04-12T05:01:09Z</time></trkpt><trkpt lat="41.162119397573555" lon="15.125113307686846"><ele>618.0</ele><time>2026-04-12T05:01:10Z</time></trkpt><trkpt lat="41.16225214545484" lon="15.125094418429153"><ele>618.0</ele><time>2026-04-12T05:01:11Z</time></trkpt><trkpt lat="41.16236207709347" lon="15.125118456582387"><ele>618.0</ele><time>2026-04-12T05:01:12Z</time></trkpt><trkpt lat="41.16245780888096" lon="15.12520389455113"><ele>619.5</ele><time>2026-04-12T05:01:13Z</time></trkpt><trkpt lat="41.16251718357738" lon="15.12533057818902"><ele>621.0</ele><time>2026-04-12T05:01:14Z</time></trkpt><trkpt lat="41.16254186278879" lon="15.125494164959262"><ele>622.5</ele><time>2026-04-12T05:01:15Z</time></trkpt><trkpt lat="41.16252533611383" lon="15.125688486673276"><ele>624.0</ele><time>2026-04-12T05:01:16Z</time></trkpt><trkpt lat="41.16251216313606" lon="15.125901534923473"><ele>624.0</ele><time>2026-04-12T05:01:17Z</time></trkpt><trkpt lat="41.16251357110552" lon="15.12609204125928"><ele>624.0</ele><time>2026-04-12T05:01:18Z</time></trkpt><trkpt lat="41.16253882008708" lon="15.12627350999436"><ele>624.0</ele><time>2026-04-12T05:01:19Z</time></trkpt><trkpt lat="41.16258022835279" lon="15.126449734728489"><ele>624.0</ele><time>2026-04-12T05:01:20Z</time></trkpt><trkpt lat="41.16264987078253" lon="15.126619695541292"><ele>624.0</ele><time>2026-04-12T05:01:21Z</time></trkpt><trkpt lat="41.16274957640674" lon="15.126761921643018"><ele>624.0</ele><time>2026-04-12T05:01:22Z</time></trkpt><trkpt lat="41.16286984405193" lon="15.126889914816507"><ele>624.0</ele><time>2026-04-12T05:01:23Z</time></trkpt><trkpt lat="41.16299542615072" lon="15.127014874800736"><ele>624.0</ele><time>2026-04-12T05:01:24Z</time></trkpt><trkpt lat="41.16312240863807" lon="15.127138384905448"><ele>624.0</ele><time>2026-04-12T05:01:25Z</time></trkpt><trkpt lat="41.16324808873667" lon="15.127262919781826"><ele>624.0</ele><time>2026-04-12T05:01:26Z</time></trkpt><trkpt lat="41.16337149771434" lon="15.127388062694607"><ele>623.75</ele><time>2026-04-12T05:01:27Z</time></trkpt><trkpt lat="41.16349279199503" lon="15.127506199359338"><ele>623.5</ele><time>2026-04-12T05:01:28Z</time></trkpt><trkpt lat="41.16360646547439" lon="15.127619376450951"><ele>623.25</ele><time>2026-04-12T05:01:29Z</time></trkpt><trkpt lat="41.163711967220124" lon="15.12772769594853"><ele>623.0</ele><time>2026-04-12T05:01:30.001Z</time></trkpt><trkpt lat="41.1638185184541" lon="15.1278201177216"><ele>623.0</ele><time>2026-04-12T05:01:31.001Z</time></trkpt><trkpt lat="41.16392359365867" lon="15.127890623745461"><ele>623.0</ele><time>2026-04-12T05:01:32.001Z</time></trkpt><trkpt lat="41.164034261786156" lon="15.127953532828048"><ele>623.0</ele><time>2026-04-12T05:01:33.001Z</time></trkpt><trkpt lat="41.164161821969465" lon="15.12799246383531"><ele>623.0</ele><time>2026-04-12T05:01:34.001Z</time></trkpt><trkpt lat="41.16431640102096" lon="15.128020444104095"><ele>622.5</ele><time>2026-04-12T05:01:35.001Z</time></trkpt><trkpt lat="41.16446871098622" lon="15.12801262655164"><ele>622.0</ele><time>2026-04-12T05:01:36.001Z</time></trkpt><trkpt lat="41.16460654105528" lon="15.12803720797737"><ele>621.5</ele><time>2026-04-12T05:01:37.001Z</time></trkpt><trkpt lat="41.16475659885209" lon="15.128058985535725"><ele>621.0</ele><time>2026-04-12T05:01:38.001Z</time></trkpt><trkpt lat="41.16491065051833" lon="15.128120373436154"><ele>621.0</ele><time>2026-04-12T05:01:39.001Z</time></trkpt><trkpt lat="41.165051307236574" lon="15.128189854296016"><ele>621.0</ele><time>2026-04-12T05:01:40.001Z</time></trkpt><trkpt lat="41.165192800550805" lon="15.128265907435908"><ele>621.0</ele><time>2026-04-12T05:01:41.001Z</time></trkpt><trkpt lat="41.16535055590013" lon="15.128324272186168"><ele>623.3333333333334</ele><time>2026-04-12T05:01:42.001Z</time></trkpt><trkpt lat="41.16551080312607" lon="15.128344113995045"><ele>625.6666666666667</ele><time>2026-04-12T05:01:43.001Z</time></trkpt><trkpt lat="41.16566714643285" lon="15.128340178499002"><ele>628.0</ele><time>2026-04-12T05:01:44.001Z</time></trkpt><trkpt lat="41.16582317182649" lon="15.128323236701565"><ele>628.0</ele><time>2026-04-12T05:01:45.001Z</time></trkpt><trkpt lat="41.16597227029117" lon="15.128288924852008"><ele>628.0</ele><time>2026-04-12T05:01:46.001Z</time></trkpt><trkpt lat="41.166119267346815" lon="15.12825334160254"><ele>628.0</ele><time>2026-04-12T05:01:47.001Z</time></trkpt><trkpt lat="41.16626656328642" lon="15.12822650924846"><ele>628.0</ele><time>2026-04-12T05:01:48.001Z</time></trkpt><trkpt lat="41.16641283825908" lon="15.12822877401115"><ele>629.0</ele><time>2026-04-12T05:01:49.001Z</time></trkpt><trkpt lat="41.16655790815722" lon="15.128248248949982"><ele>630.0</ele><time>2026-04-12T05:01:50.001Z</time></trkpt><trkpt lat="41.16670762780972" lon="15.128286259577326"><ele>631.0</ele><time>2026-04-12T05:01:51.001Z</time></trkpt><trkpt lat="41.16685434314845" lon="15.128322436881023"><ele>632.0</ele><time>2026-04-12T05:01:52.001Z</time></trkpt><trkpt lat="41.167001057141704" lon="15.128345192324382"><ele>632.0</ele><time>2026-04-12T05:01:53.001Z</time></trkpt><trkpt lat="41.16714774755788" lon="15.128358919552399"><ele>632.0</ele><time>2026-04-12T05:01:54.001Z</time></trkpt><trkpt lat="41.167290031213625" lon="15.128355038503505"><ele>632.0</ele><time>2026-04-12T05:01:55.001Z</time></trkpt><trkpt lat="41.167430785827364" lon="15.12836134916596"><ele>632.0</ele><time>2026-04-12T05:01:56.001Z</time></trkpt><trkpt lat="41.16756661898213" lon="15.128395946660914"><ele>631.0</ele><time>2026-04-12T05:01:57.001Z</time></trkpt><trkpt lat="41.16769847918675" lon="15.128477524752173"><ele>630.0</ele><time>2026-04-12T05:01:58.001Z</time></trkpt><trkpt lat="41.1678396986165" lon="15.12856619770266"><ele>629.0</ele><time>2026-04-12T05:01:59.001Z</time></trkpt><trkpt lat="41.16797225437646" lon="15.128678164144477"><ele>629.0</ele><time>2026-04-12T05:02:00.001Z</time></trkpt><trkpt lat="41.16808806772379" lon="15.128769386921416"><ele>629.0</ele><time>2026-04-12T05:02:01.001Z</time></trkpt><trkpt lat="41.16823103722358" lon="15.128806834798443"><ele>629.0</ele><time>2026-04-12T05:02:02.001Z</time></trkpt><trkpt lat="41.168379116000054" lon="15.128807637181588"><ele>629.0</ele><time>2026-04-12T05:02:03.001Z</time></trkpt><trkpt lat="41.16850348663884" lon="15.128809036270555"><ele>627.5</ele><time>2026-04-12T05:02:04.001Z</time></trkpt><trkpt lat="41.168627048750686" lon="15.128856936380208"><ele>626.0</ele><time>2026-04-12T05:02:05.001Z</time></trkpt><trkpt lat="41.16873775582988" lon="15.12894245411856"><ele>624.5</ele><time>2026-04-12T05:02:06.001Z</time></trkpt><trkpt lat="41.16883066780202" lon="15.129074799649295"><ele>623.0</ele><time>2026-04-12T05:02:07.001Z</time></trkpt><trkpt lat="41.16889843567869" lon="15.129242094436625"><ele>622.6666666666666</ele><time>2026-04-12T05:02:08.001Z</time></trkpt><trkpt lat="41.168947228171895" lon="15.129419424288736"><ele>622.3333333333334</ele><time>2026-04-12T05:02:09.001Z</time></trkpt><trkpt lat="41.168989828114135" lon="15.1296185191435"><ele>622.0</ele><time>2026-04-12T05:02:10.001Z</time></trkpt><trkpt lat="41.16902985441006" lon="15.129820872335197"><ele>625.0</ele><time>2026-04-12T05:02:11.001Z</time></trkpt><trkpt lat="41.169069728299114" lon="15.130033578243172"><ele>628.0</ele><time>2026-04-12T05:02:12.001Z</time></trkpt><trkpt lat="41.16912331373479" lon="15.130245984222805"><ele>631.0</ele><time>2026-04-12T05:02:13.001Z</time></trkpt><trkpt lat="41.169171813709326" lon="15.130463557737148"><ele>631.0</ele><time>2026-04-12T05:02:14.001Z</time></trkpt><trkpt lat="41.1692302510425" lon="15.130674388502879"><ele>631.0</ele><time>2026-04-12T05:02:15.001Z</time></trkpt><trkpt lat="41.16929318150293" lon="15.130874114003642"><ele>631.0</ele><time>2026-04-12T05:02:16.001Z</time></trkpt><trkpt lat="41.169360918509945" lon="15.131072044925967"><ele>633.6666666666667</ele><time>2026-04-12T05:02:17.001Z</time></trkpt><trkpt lat="41.16944001507178" lon="15.131259373814117"><ele>636.3333333333334</ele><time>2026-04-12T05:02:18.001Z</time></trkpt><trkpt lat="41.16954179854521" lon="15.131433418441778"><ele>639.0</ele><time>2026-04-12T05:02:19.001Z</time></trkpt><trkpt lat="41.169638076937105" lon="15.1315975578278"><ele>642.0</ele><time>2026-04-12T05:02:20.001Z</time></trkpt><trkpt lat="41.169725734806555" lon="15.131774062056069"><ele>645.0</ele><time>2026-04-12T05:02:21.001Z</time></trkpt><trkpt lat="41.1698229128895" lon="15.131933213571589"><ele>648.0</ele><time>2026-04-12T05:02:22.001Z</time></trkpt><trkpt lat="41.16992316873882" lon="15.13209740639116"><ele>646.0</ele><time>2026-04-12T05:02:23.001Z</time></trkpt><trkpt lat="41.170033217555144" lon="15.132274578093202"><ele>644.0</ele><time>2026-04-12T05:02:24.001Z</time></trkpt><trkpt lat="41.170139783604476" lon="15.132430968832814"><ele>642.0</ele><time>2026-04-12T05:02:25.001Z</time></trkpt><trkpt lat="41.17024255145019" lon="15.132595801166557"><ele>642.0</ele><time>2026-04-12T05:02:26.001Z</time></trkpt><trkpt lat="41.17034365747307" lon="15.132739227069118"><ele>642.0</ele><time>2026-04-12T05:02:27.001Z</time></trkpt><trkpt lat="41.170451400888396" lon="15.132880197234092"><ele>642.0</ele><time>2026-04-12T05:02:28Z</time></trkpt><trkpt lat="41.17057642589703" lon="15.133004742198734"><ele>638.3333333333334</ele><time>2026-04-12T05:02:29Z</time></trkpt><trkpt lat="41.17071302262995" lon="15.133092421369298"><ele>634.6666666666667</ele><time>2026-04-12T05:02:30Z</time></trkpt><trkpt lat="41.17086778353952" lon="15.13313126013954"><ele>631.0</ele><time>2026-04-12T05:02:31Z</time></trkpt><trkpt lat="41.1710221267344" lon="15.133123172654889"><ele>631.0</ele><time>2026-04-12T05:02:32Z</time></trkpt><trkpt lat="41.17118730619108" lon="15.133079882394474"><ele>631.0</ele><time>2026-04-12T05:02:33Z</time></trkpt><trkpt lat="41.171346361648546" lon="15.1330122810075"><ele>631.0</ele><time>2026-04-12T05:02:34Z</time></trkpt><trkpt lat="41.171501345889325" lon="15.132924290483775"><ele>632.0</ele><time>2026-04-12T05:02:35Z</time></trkpt><trkpt lat="41.17164554071828" lon="15.13283928590101"><ele>633.0</ele><time>2026-04-12T05:02:36Z</time></trkpt><trkpt lat="41.171797863356765" lon="15.132754559860429"><ele>634.0</ele><time>2026-04-12T05:02:37Z</time></trkpt><trkpt lat="41.17197632839365" lon="15.13268726751047"><ele>634.0</ele><time>2026-04-12T05:02:38Z</time></trkpt><trkpt lat="41.172139219226466" lon="15.132626314276145"><ele>634.0</ele><time>2026-04-12T05:02:39Z</time></trkpt><trkpt lat="41.172307437678924" lon="15.13253948460349"><ele>634.0</ele><time>2026-04-12T05:02:40Z</time></trkpt><trkpt lat="41.172466255805986" lon="15.132462671223973"><ele>631.0</ele><time>2026-04-12T05:02:41Z</time></trkpt><trkpt lat="41.17263675762433" lon="15.132403001564036"><ele>628.0</ele><time>2026-04-12T05:02:42Z</time></trkpt><trkpt lat="41.17279711381233" lon="15.132335384507028"><ele>625.0</ele><time>2026-04-12T05:02:43Z</time></trkpt><trkpt lat="41.17297194739198" lon="15.132290286077296"><ele>625.0</ele><time>2026-04-12T05:02:44Z</time></trkpt><trkpt lat="41.173130876299496" lon="15.13224620171816"><ele>625.0</ele><time>2026-04-12T05:02:45Z</time></trkpt><trkpt lat="41.17328914302449" lon="15.132188946127307"><ele>625.0</ele><time>2026-04-12T05:02:46Z</time></trkpt><trkpt lat="41.1734290856483" lon="15.132093295558594"><ele>628.6666666666667</ele><time>2026-04-12T05:02:47Z</time></trkpt><trkpt lat="41.173568315582614" lon="15.13198038096437"><ele>632.3333333333334</ele><time>2026-04-12T05:02:48Z</time></trkpt><trkpt lat="41.1737101518881" lon="15.131872992976561"><ele>636.0</ele><time>2026-04-12T05:02:49Z</time></trkpt><trkpt lat="41.173855403028796" lon="15.131782165308955"><ele>636.0</ele><time>2026-04-12T05:02:50Z</time></trkpt><trkpt lat="41.173997085173475" lon="15.131725277719784"><ele>636.0</ele><time>2026-04-12T05:02:51Z</time></trkpt><trkpt lat="41.17412782003537" lon="15.131684826204832"><ele>636.0</ele><time>2026-04-12T05:02:52Z</time></trkpt><trkpt lat="41.17425083572376" lon="15.13166562565269"><ele>636.0</ele><time>2026-04-12T05:02:53Z</time></trkpt><trkpt lat="41.17436930737574" lon="15.131689972941265"><ele>638.5</ele><time>2026-04-12T05:02:54Z</time></trkpt><trkpt lat="41.174479780289325" lon="15.131751053362512"><ele>641.0</ele><time>2026-04-12T05:02:55Z</time></trkpt><trkpt lat="41.17457146053945" lon="15.131863864840065"><ele>643.5</ele><time>2026-04-12T05:02:56Z</time></trkpt><trkpt lat="41.174637190088006" lon="15.132014757568797"><ele>646.0</ele><time>2026-04-12T05:02:57Z</time></trkpt><trkpt lat="41.17466542970275" lon="15.1322029994751"><ele>646.0</ele><time>2026-04-12T05:02:58Z</time></trkpt><trkpt lat="41.17465425525115" lon="15.132372244425522"><ele>646.0</ele><time>2026-04-12T05:02:59Z</time></trkpt><trkpt lat="41.17463332816873" lon="15.132514642972497"><ele>646.0</ele><time>2026-04-12T05:03:00Z</time></trkpt><trkpt lat="41.1746585357563" lon="15.132652393480452"><ele>646.0</ele><time>2026-04-12T05:03:01Z</time></trkpt><trkpt lat="41.17472297149605" lon="15.132769363993718"><ele>645.75</ele><time>2026-04-12T05:03:02Z</time></trkpt><trkpt lat="41.17482346599314" lon="15.132842059782291"><ele>645.5</ele><time>2026-04-12T05:03:03Z</time></trkpt><trkpt lat="41.1749481218575" lon="15.132880028408152"><ele>645.25</ele><time>2026-04-12T05:03:04Z</time></trkpt><trkpt lat="41.1750888573579" lon="15.132905346123595"><ele>645.0</ele><time>2026-04-12T05:03:05Z</time></trkpt><trkpt lat="41.17524503361352" lon="15.132930441122664"><ele>645.0</ele><time>2026-04-12T05:03:06Z</time></trkpt><trkpt lat="41.17540248731211" lon="15.132949930188664"><ele>645.0</ele><time>2026-04-12T05:03:07Z</time></trkpt><trkpt lat="41.175561566426964" lon="15.132973031627971"><ele>645.0</ele><time>2026-04-12T05:03:08Z</time></trkpt><trkpt lat="41.175723514187695" lon="15.132995978498577"><ele>643.6666666666666</ele><time>2026-04-12T05:03:09Z</time></trkpt><trkpt lat="41.175888093145836" lon="15.133007451239225"><ele>642.3333333333333</ele><time>2026-04-12T05:03:10Z</time></trkpt><trkpt lat="41.17604896190344" lon="15.132980997358079"><ele>641.0</ele><time>2026-04-12T05:03:11Z</time></trkpt><trkpt lat="41.176204098771386" lon="15.132926291213598"><ele>641.0</ele><time>2026-04-12T05:03:12Z</time></trkpt><trkpt lat="41.17635918869344" lon="15.132875432926996"><ele>641.0</ele><time>2026-04-12T05:03:13Z</time></trkpt><trkpt lat="41.17651618151374" lon="15.132843027575602"><ele>641.0</ele><time>2026-04-12T05:03:14Z</time></trkpt><trkpt lat="41.17667047601603" lon="15.132825853404388"><ele>643.0</ele><time>2026-04-12T05:03:15Z</time></trkpt><trkpt lat="41.17682503703008" lon="15.132822151579862"><ele>645.0</ele><time>2026-04-12T05:03:16Z</time></trkpt><trkpt lat="41.17698211026707" lon="15.132824520656962"><ele>647.0</ele><time>2026-04-12T05:03:17Z</time></trkpt><trkpt lat="41.177140073468806" lon="15.132835861017549"><ele>647.0</ele><time>2026-04-12T05:03:18Z</time></trkpt><trkpt lat="41.17729892503877" lon="15.132849135629803"><ele>647.0</ele><time>2026-04-12T05:03:19Z</time></trkpt><trkpt lat="41.17745777705199" lon="15.132870320138869"><ele>647.0</ele><time>2026-04-12T05:03:20Z</time></trkpt><trkpt lat="41.17761783953964" lon="15.132888179595636"><ele>647.3333333333333</ele><time>2026-04-12T05:03:21Z</time></trkpt><trkpt lat="41.177774373509045" lon="15.132878878478413"><ele>647.6666666666666</ele><time>2026-04-12T05:03:22Z</time></trkpt><trkpt lat="41.177928102914926" lon="15.132830349632494"><ele>648.0</ele><time>2026-04-12T05:03:23Z</time></trkpt><trkpt lat="41.17807606366243" lon="15.132761989811105"><ele>649.6666666666666</ele><time>2026-04-12T05:03:24Z</time></trkpt><trkpt lat="41.178227889131286" lon="15.132684818677022"><ele>651.3333333333333</ele><time>2026-04-12T05:03:25Z</time></trkpt><trkpt lat="41.17837503897022" lon="15.132614794773138"><ele>653.0</ele><time>2026-04-12T05:03:26Z</time></trkpt><trkpt lat="41.17852844316249" lon="15.13254337056549"><ele>653.0</ele><time>2026-04-12T05:03:27Z</time></trkpt><trkpt lat="41.17868205367207" lon="15.132478300645845"><ele>653.0</ele><time>2026-04-12T05:03:28Z</time></trkpt><trkpt lat="41.17883325354841" lon="15.132418335841681"><ele>653.0</ele><time>2026-04-12T05:03:29Z</time></trkpt><trkpt lat="41.17898332538695" lon="15.132359262770958"><ele>652.3333333333333</ele><time>2026-04-12T05:03:30Z</time></trkpt><trkpt lat="41.17913367734128" lon="15.132298511210783"><ele>651.6666666666666</ele><time>2026-04-12T05:03:31Z</time></trkpt><trkpt lat="41.17928734070884" lon="15.132245060582232"><ele>651.0</ele><time>2026-04-12T05:03:32Z</time></trkpt><trkpt lat="41.17944721129139" lon="15.132212344610432"><ele>651.0</ele><time>2026-04-12T05:03:33Z</time></trkpt><trkpt lat="41.17961150589244" lon="15.13219817112958"><ele>651.0</ele><time>2026-04-12T05:03:34.001Z</time></trkpt><trkpt lat="41.17978082186747" lon="15.132191766959856"><ele>651.0</ele><time>2026-04-12T05:03:35.001Z</time></trkpt><trkpt lat="41.17995416075944" lon="15.132184957696566"><ele>652.6666666666666</ele><time>2026-04-12T05:03:36.001Z</time></trkpt><trkpt lat="41.18013035852101" lon="15.132181968753374"><ele>654.3333333333333</ele><time>2026-04-12T05:03:37.001Z</time></trkpt><trkpt lat="41.180302335600324" lon="15.132172910170123"><ele>656.0</ele><time>2026-04-12T05:03:38.001Z</time></trkpt><trkpt lat="41.180470182123244" lon="15.132158993392398"><ele>656.0</ele><time>2026-04-12T05:03:39.001Z</time></trkpt><trkpt lat="41.18062985736236" lon="15.13214075091901"><ele>656.0</ele><time>2026-04-12T05:03:40.001Z</time></trkpt><trkpt lat="41.180801646746986" lon="15.132135116150025"><ele>656.0</ele><time>2026-04-12T05:03:41.001Z</time></trkpt><trkpt lat="41.18096298620982" lon="15.132127295233632"><ele>657.0</ele><time>2026-04-12T05:03:42.001Z</time></trkpt><trkpt lat="41.18112590534681" lon="15.132122233906996"><ele>658.0</ele><time>2026-04-12T05:03:43.001Z</time></trkpt><trkpt lat="41.18127776848174" lon="15.132104006142335"><ele>659.0</ele><time>2026-04-12T05:03:44.001Z</time></trkpt><trkpt lat="41.1814343714833" lon="15.132097146722792"><ele>661.3333333333333</ele><time>2026-04-12T05:03:45.001Z</time></trkpt><trkpt lat="41.181588572583536" lon="15.132090256642106"><ele>663.6666666666666</ele><time>2026-04-12T05:03:46.001Z</time></trkpt><trkpt lat="41.18174538789533" lon="15.13208835927866"><ele>666.0</ele><time>2026-04-12T05:03:47.001Z</time></trkpt><trkpt lat="41.1818966225788" lon="15.132083774402464"><ele>666.0</ele><time>2026-04-12T05:03:48.001Z</time></trkpt><trkpt lat="41.1820478122589" lon="15.132078448947269"><ele>666.0</ele><time>2026-04-12T05:03:49.001Z</time></trkpt><trkpt lat="41.18220114765558" lon="15.132075927394919"><ele>666.0</ele><time>2026-04-12T05:03:50.001Z</time></trkpt><trkpt lat="41.182349527752116" lon="15.132075012131017"><ele>667.0</ele><time>2026-04-12T05:03:51.001Z</time></trkpt><trkpt lat="41.18249092360433" lon="15.132082587041188"><ele>668.0</ele><time>2026-04-12T05:03:52.001Z</time></trkpt><trkpt lat="41.182629175354" lon="15.13211417178674"><ele>669.0</ele><time>2026-04-12T05:03:53.001Z</time></trkpt><trkpt lat="41.182758848403395" lon="15.132153349272329"><ele>670.0</ele><time>2026-04-12T05:03:54.001Z</time></trkpt><trkpt lat="41.18288856491736" lon="15.13221257621289"><ele>670.0</ele><time>2026-04-12T05:03:55.001Z</time></trkpt><trkpt lat="41.183010526073986" lon="15.13231438252629"><ele>670.0</ele><time>2026-04-12T05:03:56.001Z</time></trkpt><trkpt lat="41.18311456458461" lon="15.132456439848058"><ele>670.0</ele><time>2026-04-12T05:03:57.001Z</time></trkpt><trkpt lat="41.18319999131291" lon="15.132637831880979"><ele>667.6666666666667</ele><time>2026-04-12T05:03:58.001Z</time></trkpt><trkpt lat="41.1832789059964" lon="15.13281908383159"><ele>665.3333333333334</ele><time>2026-04-12T05:03:59.001Z</time></trkpt><trkpt lat="41.18333580606331" lon="15.13300871350598"><ele>663.0</ele><time>2026-04-12T05:04:00.001Z</time></trkpt><trkpt lat="41.183381091718886" lon="15.13319927418457"><ele>661.25</ele><time>2026-04-12T05:04:01.001Z</time></trkpt><trkpt lat="41.18342178163093" lon="15.133383582718752"><ele>659.5</ele><time>2026-04-12T05:04:02.001Z</time></trkpt><trkpt lat="41.183460536614085" lon="15.133557441781837"><ele>657.75</ele><time>2026-04-12T05:04:03.001Z</time></trkpt><trkpt lat="41.18350294733065" lon="15.133722358645409"><ele>656.0</ele><time>2026-04-12T05:04:04.001Z</time></trkpt><trkpt lat="41.18355659066109" lon="15.133884225231185"><ele>656.0</ele><time>2026-04-12T05:04:05.001Z</time></trkpt><trkpt lat="41.18363116828442" lon="15.134031390561782"><ele>656.0</ele><time>2026-04-12T05:04:06.001Z</time></trkpt><trkpt lat="41.183732156008276" lon="15.134162328646564"><ele>656.0</ele><time>2026-04-12T05:04:07.001Z</time></trkpt><trkpt lat="41.18385128684065" lon="15.13427193243826"><ele>656.0</ele><time>2026-04-12T05:04:08.001Z</time></trkpt><trkpt lat="41.183977080987525" lon="15.134354493392323"><ele>655.75</ele><time>2026-04-12T05:04:09.001Z</time></trkpt><trkpt lat="41.184102400321855" lon="15.134414931890914"><ele>655.5</ele><time>2026-04-12T05:04:10.001Z</time></trkpt><trkpt lat="41.184241443509066" lon="15.13446489403021"><ele>655.25</ele><time>2026-04-12T05:04:11.001Z</time></trkpt><trkpt lat="41.18438654623192" lon="15.13448093328686"><ele>655.0</ele><time>2026-04-12T05:04:12.001Z</time></trkpt><trkpt lat="41.184529789417866" lon="15.134460881591282"><ele>655.0</ele><time>2026-04-12T05:04:13.001Z</time></trkpt><trkpt lat="41.18467008278825" lon="15.134407741100476"><ele>655.0</ele><time>2026-04-12T05:04:14.001Z</time></trkpt><trkpt lat="41.18480333313095" lon="15.134338728093487"><ele>655.0</ele><time>2026-04-12T05:04:15.001Z</time></trkpt><trkpt lat="41.18494390351385" lon="15.134272896665586"><ele>655.0</ele><time>2026-04-12T05:04:16.001Z</time></trkpt><trkpt lat="41.185085533089286" lon="15.134227599355508"><ele>654.0</ele><time>2026-04-12T05:04:17.001Z</time></trkpt><trkpt lat="41.185233274224956" lon="15.134217395076895"><ele>653.0</ele><time>2026-04-12T05:04:18.001Z</time></trkpt><trkpt lat="41.18538963209787" lon="15.134232914527034"><ele>652.0</ele><time>2026-04-12T05:04:19.001Z</time></trkpt><trkpt lat="41.18553762082829" lon="15.134257428618755"><ele>650.3333333333334</ele><time>2026-04-12T05:04:20.001Z</time></trkpt><trkpt lat="41.18568963083819" lon="15.13429042809469"><ele>648.6666666666666</ele><time>2026-04-12T05:04:21.001Z</time></trkpt><trkpt lat="41.18583798017172" lon="15.134323217349714"><ele>647.0</ele><time>2026-04-12T05:04:22.001Z</time></trkpt><trkpt lat="41.185988404163865" lon="15.134361489049974"><ele>647.0</ele><time>2026-04-12T05:04:23.001Z</time></trkpt><trkpt lat="41.18614078300662" lon="15.134397072135608"><ele>647.0</ele><time>2026-04-12T05:04:24.001Z</time></trkpt><trkpt lat="41.18629016165659" lon="15.13442806467358"><ele>647.0</ele><time>2026-04-12T05:04:25.001Z</time></trkpt><trkpt lat="41.186438631572784" lon="15.1344569730218"><ele>645.75</ele><time>2026-04-12T05:04:26.001Z</time></trkpt><trkpt lat="41.18658207038031" lon="15.134513466600572"><ele>644.5</ele><time>2026-04-12T05:04:27.001Z</time></trkpt><trkpt lat="41.18672525089539" lon="15.134553632115418"><ele>643.25</ele><time>2026-04-12T05:04:28.001Z</time></trkpt><trkpt lat="41.186873829583405" lon="15.134574598960144"><ele>642.0</ele><time>2026-04-12T05:04:29.001Z</time></trkpt><trkpt lat="41.187013640385615" lon="15.13461819749577"><ele>642.0</ele><time>2026-04-12T05:04:30.001Z</time></trkpt><trkpt lat="41.18715129486247" lon="15.13466219901629"><ele>642.0</ele><time>2026-04-12T05:04:31.001Z</time></trkpt><trkpt lat="41.187293500827174" lon="15.134709703333833"><ele>642.0</ele><time>2026-04-12T05:04:32.001Z</time></trkpt><trkpt lat="41.18743406929034" lon="15.134746228230384"><ele>642.0</ele><time>2026-04-12T05:04:33.001Z</time></trkpt><trkpt lat="41.187577554173366" lon="15.134783834547976"><ele>641.0</ele><time>2026-04-12T05:04:34Z</time></trkpt><trkpt lat="41.187724956721944" lon="15.134822007466543"><ele>640.0</ele><time>2026-04-12T05:04:35Z</time></trkpt><trkpt lat="41.18787189721577" lon="15.134858513438425"><ele>639.0</ele><time>2026-04-12T05:04:36Z</time></trkpt><trkpt lat="41.188018186177736" lon="15.13490161416988"><ele>638.0</ele><time>2026-04-12T05:04:37Z</time></trkpt><trkpt lat="41.18830998740518" lon="15.134992360501704"><ele>637.6666666666666</ele><time>2026-04-12T05:04:39Z</time></trkpt><trkpt lat="41.188453991228684" lon="15.135038036947252"><ele>637.3333333333334</ele><time>2026-04-12T05:04:40Z</time></trkpt><trkpt lat="41.18860238027132" lon="15.135082088257397"><ele>637.0</ele><time>2026-04-12T05:04:41Z</time></trkpt><trkpt lat="41.188752762378535" lon="15.135118764392308"><ele>637.0</ele><time>2026-04-12T05:04:42Z</time></trkpt><trkpt lat="41.188907871572134" lon="15.135157997957414"><ele>637.0</ele><time>2026-04-12T05:04:43Z</time></trkpt><trkpt lat="41.18906396662314" lon="15.135200750185714"><ele>637.0</ele><time>2026-04-12T05:04:44Z</time></trkpt><trkpt lat="41.18922179032555" lon="15.135245213982394"><ele>636.3333333333334</ele><time>2026-04-12T05:04:45Z</time></trkpt><trkpt lat="41.189376625263286" lon="15.135290162378631"><ele>635.6666666666666</ele><time>2026-04-12T05:04:46Z</time></trkpt><trkpt lat="41.18952632758934" lon="15.135334885202811"><ele>635.0</ele><time>2026-04-12T05:04:47Z</time></trkpt><trkpt lat="41.18968056601265" lon="15.135373345156719"><ele>635.0</ele><time>2026-04-12T05:04:48Z</time></trkpt><trkpt lat="41.18983848517719" lon="15.135414143834579"><ele>635.0</ele><time>2026-04-12T05:04:49Z</time></trkpt><trkpt lat="41.18998947815765" lon="15.1354659586514"><ele>635.0</ele><time>2026-04-12T05:04:50Z</time></trkpt><trkpt lat="41.19013727544143" lon="15.135524657974834"><ele>634.3333333333333</ele><time>2026-04-12T05:04:51Z</time></trkpt><trkpt lat="41.19028009442676" lon="15.135590718385743"><ele>633.6666666666666</ele><time>2026-04-12T05:04:52Z</time></trkpt><trkpt lat="41.19043133426522" lon="15.135669751535284"><ele>633.0</ele><time>2026-04-12T05:04:53Z</time></trkpt><trkpt lat="41.19057886844963" lon="15.135748000750837"><ele>632.0</ele><time>2026-04-12T05:04:54Z</time></trkpt><trkpt lat="41.19072289644355" lon="15.135821600934019"><ele>631.0</ele><time>2026-04-12T05:04:55Z</time></trkpt><trkpt lat="41.19087775562454" lon="15.13588854042244"><ele>630.0</ele><time>2026-04-12T05:04:56Z</time></trkpt><trkpt lat="41.191026828349884" lon="15.135962872105216"><ele>630.0</ele><time>2026-04-12T05:04:57Z</time></trkpt><trkpt lat="41.19117984526316" lon="15.136033408194265"><ele>630.0</ele><time>2026-04-12T05:04:58Z</time></trkpt><trkpt lat="41.19133260030142" lon="15.13610519591621"><ele>630.0</ele><time>2026-04-12T05:04:59Z</time></trkpt><trkpt lat="41.19148927340983" lon="15.136178865547963"><ele>629.6666666666666</ele><time>2026-04-12T05:05:00Z</time></trkpt><trkpt lat="41.191644829416546" lon="15.13625179608413"><ele>629.3333333333333</ele><time>2026-04-12T05:05:01Z</time></trkpt><trkpt lat="41.19180548744712" lon="15.136325800991989"><ele>629.0</ele><time>2026-04-12T05:05:02Z</time></trkpt><trkpt lat="41.19196526966659" lon="15.13639663146802"><ele>629.0</ele><time>2026-04-12T05:05:03Z</time></trkpt><trkpt lat="41.1921232305787" lon="15.136470725444557"><ele>629.0</ele><time>2026-04-12T05:05:04Z</time></trkpt><trkpt lat="41.19227696048172" lon="15.13654472037148"><ele>629.0</ele><time>2026-04-12T05:05:05Z</time></trkpt><trkpt lat="41.192425122022414" lon="15.136614020709331"><ele>628.0</ele><time>2026-04-12T05:05:06Z</time></trkpt><trkpt lat="41.19257694207547" lon="15.136691103499471"><ele>627.0</ele><time>2026-04-12T05:05:07Z</time></trkpt><trkpt lat="41.192723185519746" lon="15.136759590839244"><ele>626.0</ele><time>2026-04-12T05:05:08Z</time></trkpt><trkpt lat="41.19287823801636" lon="15.136835497080998"><ele>626.0</ele><time>2026-04-12T05:05:09Z</time></trkpt><trkpt lat="41.19302270756568" lon="15.136901383508466"><ele>626.0</ele><time>2026-04-12T05:05:10Z</time></trkpt><trkpt lat="41.19317725876923" lon="15.136970108048935"><ele>626.0</ele><time>2026-04-12T05:05:11Z</time></trkpt><trkpt lat="41.19333493315572" lon="15.137036303222729"><ele>626.0</ele><time>2026-04-12T05:05:12Z</time></trkpt><trkpt lat="41.19348575015659" lon="15.1371068814725"><ele>626.0</ele><time>2026-04-12T05:05:13Z</time></trkpt><trkpt lat="41.193639200147" lon="15.137189949034374"><ele>626.0</ele><time>2026-04-12T05:05:14Z</time></trkpt><trkpt lat="41.19378462171859" lon="15.137267746657903"><ele>626.0</ele><time>2026-04-12T05:05:15Z</time></trkpt><trkpt lat="41.19393665940062" lon="15.137339111528087"><ele>626.0</ele><time>2026-04-12T05:05:16Z</time></trkpt><trkpt lat="41.19408742104071" lon="15.137402158323855"><ele>626.0</ele><time>2026-04-12T05:05:17Z</time></trkpt><trkpt lat="41.19424577903745" lon="15.137473860680384"><ele>626.0</ele><time>2026-04-12T05:05:18Z</time></trkpt><trkpt lat="41.19439710611548" lon="15.137540049482919"><ele>626.0</ele><time>2026-04-12T05:05:19Z</time></trkpt><trkpt lat="41.19455343094727" lon="15.13761396279792"><ele>626.0</ele><time>2026-04-12T05:05:20Z</time></trkpt><trkpt lat="41.19470457836392" lon="15.137684165595203"><ele>626.6666666666666</ele><time>2026-04-12T05:05:21Z</time></trkpt><trkpt lat="41.19486329374712" lon="15.137755866641907"><ele>627.3333333333334</ele><time>2026-04-12T05:05:22Z</time></trkpt><trkpt lat="41.195011170903236" lon="15.137822556536296"><ele>628.0</ele><time>2026-04-12T05:05:23Z</time></trkpt><trkpt lat="41.19516111711045" lon="15.137885469004846"><ele>628.0</ele><time>2026-04-12T05:05:24Z</time></trkpt><trkpt lat="41.19530551311736" lon="15.137964066494504"><ele>628.0</ele><time>2026-04-12T05:05:25Z</time></trkpt><trkpt lat="41.195449221185704" lon="15.138035764354827"><ele>628.0</ele><time>2026-04-12T05:05:26Z</time></trkpt><trkpt lat="41.19559448368667" lon="15.13810683390755"><ele>628.0</ele><time>2026-04-12T05:05:27Z</time></trkpt><trkpt lat="41.19576118520067" lon="15.138190305275929"><ele>628.0</ele><time>2026-04-12T05:05:28Z</time></trkpt><trkpt lat="41.19591385821332" lon="15.138264034647833"><ele>628.0</ele><time>2026-04-12T05:05:29Z</time></trkpt><trkpt lat="41.19607171771489" lon="15.138329228864356"><ele>627.3333333333334</ele><time>2026-04-12T05:05:30Z</time></trkpt><trkpt lat="41.19623436026457" lon="15.138398380610361"><ele>626.6666666666666</ele><time>2026-04-12T05:05:31Z</time></trkpt><trkpt lat="41.196393640211625" lon="15.138469602663033"><ele>626.0</ele><time>2026-04-12T05:05:32Z</time></trkpt><trkpt lat="41.19655213865854" lon="15.138544881062503"><ele>627.3333333333333</ele><time>2026-04-12T05:05:33Z</time></trkpt><trkpt lat="41.1967116504217" lon="15.138623607379055"><ele>628.6666666666666</ele><time>2026-04-12T05:05:34Z</time></trkpt><trkpt lat="41.196872732391505" lon="15.138701192425676"><ele>630.0</ele><time>2026-04-12T05:05:35Z</time></trkpt><trkpt lat="41.19703251504294" lon="15.13877500363802"><ele>630.0</ele><time>2026-04-12T05:05:36Z</time></trkpt><trkpt lat="41.19719151424367" lon="15.138852478476535"><ele>630.0</ele><time>2026-04-12T05:05:37Z</time></trkpt><trkpt lat="41.19735362159441" lon="15.138926671023395"><ele>630.0</ele><time>2026-04-12T05:05:38Z</time></trkpt><trkpt lat="41.197513647945144" lon="15.138999702976557"><ele>629.3333333333334</ele><time>2026-04-12T05:05:39Z</time></trkpt><trkpt lat="41.197681211437306" lon="15.139068615823293"><ele>628.6666666666667</ele><time>2026-04-12T05:05:40Z</time></trkpt><trkpt lat="41.19784088787112" lon="15.139140229565802"><ele>628.0</ele><time>2026-04-12T05:05:41.001Z</time></trkpt><trkpt lat="41.19799918844172" lon="15.139210288463183"><ele>628.0</ele><time>2026-04-12T05:05:42.001Z</time></trkpt><trkpt lat="41.19815573479328" lon="15.139278218313844"><ele>628.0</ele><time>2026-04-12T05:05:43.001Z</time></trkpt><trkpt lat="41.198309734597814" lon="15.139348883561176"><ele>628.0</ele><time>2026-04-12T05:05:44.001Z</time></trkpt><trkpt lat="41.19846022209661" lon="15.139422378047998"><ele>628.0</ele><time>2026-04-12T05:05:45.001Z</time></trkpt><trkpt lat="41.198610708546155" lon="15.139496457545828"><ele>628.0</ele><time>2026-04-12T05:05:46.001Z</time></trkpt><trkpt lat="41.19876000849352" lon="15.139570949715315"><ele>628.0</ele><time>2026-04-12T05:05:47.001Z</time></trkpt><trkpt lat="41.198908873234856" lon="15.139642611531968"><ele>628.6666666666667</ele><time>2026-04-12T05:05:48.001Z</time></trkpt><trkpt lat="41.19905575333832" lon="15.139714031968907"><ele>629.3333333333334</ele><time>2026-04-12T05:05:49.001Z</time></trkpt><trkpt lat="41.199197500838785" lon="15.139784433455914"><ele>630.0</ele><time>2026-04-12T05:05:50.001Z</time></trkpt><trkpt lat="41.199339637730226" lon="15.139854640579827"><ele>629.25</ele><time>2026-04-12T05:05:51.001Z</time></trkpt><trkpt lat="41.199475573730105" lon="15.139917934117987"><ele>628.5</ele><time>2026-04-12T05:05:52.001Z</time></trkpt><trkpt lat="41.19961473753692" lon="15.139982269162152"><ele>627.75</ele><time>2026-04-12T05:05:53.001Z</time></trkpt><trkpt lat="41.19975344298895" lon="15.14004790189508"><ele>627.0</ele><time>2026-04-12T05:05:54.001Z</time></trkpt><trkpt lat="41.199887291654754" lon="15.14011393847313"><ele>627.0</ele><time>2026-04-12T05:05:55.001Z</time></trkpt><trkpt lat="41.20002075017007" lon="15.140185384403377"><ele>627.0</ele><time>2026-04-12T05:05:56.001Z</time></trkpt><trkpt lat="41.200159232130055" lon="15.14025392625625"><ele>627.0</ele><time>2026-04-12T05:05:57.001Z</time></trkpt><trkpt lat="41.20028536887843" lon="15.140318247111113"><ele>627.0</ele><time>2026-04-12T05:05:58.001Z</time></trkpt><trkpt lat="41.200411230026624" lon="15.140385393144536"><ele>627.0</ele><time>2026-04-12T05:05:59.001Z</time></trkpt><trkpt lat="41.20052404582718" lon="15.140443825138059"><ele>627.0</ele><time>2026-04-12T05:06:00.001Z</time></trkpt><trkpt lat="41.20062958355089" lon="15.140494153256322"><ele>627.0</ele><time>2026-04-12T05:06:01.001Z</time></trkpt><trkpt lat="41.20072195070006" lon="15.140528409123178"><ele>627.0</ele><time>2026-04-12T05:06:02.001Z</time></trkpt><trkpt lat="41.20081152793743" lon="15.140566130425595"><ele>627.0</ele><time>2026-04-12T05:06:03.001Z</time></trkpt><trkpt lat="41.200895601491155" lon="15.140594441477567"><ele>627.4</ele><time>2026-04-12T05:06:04.001Z</time></trkpt><trkpt lat="41.20097198140168" lon="15.140628864204405"><ele>627.8000000000001</ele><time>2026-04-12T05:06:05.001Z</time></trkpt><trkpt lat="41.20104843483768" lon="15.140666042707588"><ele>628.2</ele><time>2026-04-12T05:06:07.001Z</time></trkpt><trkpt lat="41.20115657364499" lon="15.140512483063253"><ele>628.6</ele><time>2026-04-12T05:06:08.001Z</time></trkpt><trkpt lat="41.20118006754798" lon="15.140429929922002"><ele>629.0</ele><time>2026-04-12T05:06:09.001Z</time></trkpt><trkpt lat="41.20121132714865" lon="15.140328264241504"><ele>629.0</ele><time>2026-04-12T05:06:10.001Z</time></trkpt><trkpt lat="41.201295039941314" lon="15.140162012594528"><ele>629.0</ele><time>2026-04-12T05:06:12.001Z</time></trkpt><trkpt lat="41.201341655739476" lon="15.140043056673733"><ele>629.0</ele><time>2026-04-12T05:06:13.001Z</time></trkpt><trkpt lat="41.20137977443641" lon="15.139911390569265"><ele>629.0</ele><time>2026-04-12T05:06:14.001Z</time></trkpt><trkpt lat="41.201424635490554" lon="15.139772219307812"><ele>629.75</ele><time>2026-04-12T05:06:15.001Z</time></trkpt><trkpt lat="41.20146369184229" lon="15.139628387532568"><ele>630.5</ele><time>2026-04-12T05:06:16.001Z</time></trkpt><trkpt lat="41.20149906195302" lon="15.139480766152928"><ele>631.25</ele><time>2026-04-12T05:06:17.001Z</time></trkpt><trkpt lat="41.20153888762574" lon="15.139321038948804"><ele>632.0</ele><time>2026-04-12T05:06:18.001Z</time></trkpt><trkpt lat="41.20158151755735" lon="15.139167533737877"><ele>631.6</ele><time>2026-04-12T05:06:19.001Z</time></trkpt><trkpt lat="41.20162642871858" lon="15.139026178783574"><ele>631.2</ele><time>2026-04-12T05:06:20.001Z</time></trkpt><trkpt lat="41.20166828587402" lon="15.138890120857509"><ele>630.8</ele><time>2026-04-12T05:06:21.001Z</time></trkpt><trkpt lat="41.201707216894775" lon="15.13875993313847"><ele>630.4</ele><time>2026-04-12T05:06:22.001Z</time></trkpt><trkpt lat="41.20173676992167" lon="15.138646139759507"><ele>630.0</ele><time>2026-04-12T05:06:23.001Z</time></trkpt><trkpt lat="41.201760515867704" lon="15.138539593071123"><ele>630.0</ele><time>2026-04-12T05:06:24.001Z</time></trkpt><trkpt lat="41.20178441303901" lon="15.138445409992984"><ele>630.0</ele><time>2026-04-12T05:06:25.001Z</time></trkpt><trkpt lat="41.201824266009545" lon="15.138320256655383"><ele>630.0</ele><time>2026-04-12T05:06:27.001Z</time></trkpt><trkpt lat="41.201834209321966" lon="15.138165497718818"><ele>630.0</ele><time>2026-04-12T05:06:29.001Z</time></trkpt><trkpt lat="41.20182668157508" lon="15.138069461835592"><ele>630.0</ele><time>2026-04-12T05:06:30.001Z</time></trkpt><trkpt lat="41.201817415955034" lon="15.13796138437672"><ele>630.0</ele><time>2026-04-12T05:06:31.001Z</time></trkpt><trkpt lat="41.2018103068804" lon="15.137850884026303"><ele>630.0</ele><time>2026-04-12T05:06:32.001Z</time></trkpt><trkpt lat="41.20180057680695" lon="15.137710630305724"><ele>630.0</ele><time>2026-04-12T05:06:33.001Z</time></trkpt><trkpt lat="41.201812008085376" lon="15.137605629372361"><ele>630.0</ele><time>2026-04-12T05:06:34.001Z</time></trkpt><trkpt lat="41.201807842390544" lon="15.137484594214513"><ele>630.0</ele><time>2026-04-12T05:06:35.001Z</time></trkpt><trkpt lat="41.201803103114464" lon="15.1373631302366"><ele>630.0</ele><time>2026-04-12T05:06:36.001Z</time></trkpt><trkpt lat="41.201797238465204" lon="15.137247738468895"><ele>629.3333333333334</ele><time>2026-04-12T05:06:37.001Z</time></trkpt><trkpt lat="41.20179202862211" lon="15.137145230071354"><ele>628.6666666666666</ele><time>2026-04-12T05:06:38.001Z</time></trkpt><trkpt lat="41.20178660750447" lon="15.137038565373732"><ele>628.0</ele><time>2026-04-12T05:06:39.001Z</time></trkpt><trkpt lat="41.20176360021132" lon="15.136928098996204"><ele>627.3333333333333</ele><time>2026-04-12T05:06:40Z</time></trkpt><trkpt lat="41.20175244077856" lon="15.136810795017949"><ele>626.6666666666666</ele><time>2026-04-12T05:06:41Z</time></trkpt><trkpt lat="41.20175300107795" lon="15.136714845752305"><ele>626.0</ele><time>2026-04-12T05:06:42Z</time></trkpt><trkpt lat="41.20176687139864" lon="15.136625858782127"><ele>625.6666666666666</ele><time>2026-04-12T05:06:43Z</time></trkpt><trkpt lat="41.20178758504536" lon="15.136539828887928"><ele>625.3333333333333</ele><time>2026-04-12T05:06:44Z</time></trkpt><trkpt lat="41.20178245055537" lon="15.136456104843282"><ele>625.0</ele><time>2026-04-12T05:06:46Z</time></trkpt><trkpt lat="41.20193841811532" lon="15.136456540835715"><ele>624.6666666666666</ele><time>2026-04-12T05:06:47Z</time></trkpt><trkpt lat="41.20200347858666" lon="15.13645298195325"><ele>624.3333333333334</ele><time>2026-04-12T05:06:48Z</time></trkpt><trkpt lat="41.20207506080086" lon="15.136433398504101"><ele>624.0</ele><time>2026-04-12T05:06:49Z</time></trkpt><trkpt lat="41.20215710642472" lon="15.13643129678751"><ele>624.0</ele><time>2026-04-12T05:06:50Z</time></trkpt><trkpt lat="41.20224389356723" lon="15.136419734263207"><ele>624.0</ele><time>2026-04-12T05:06:51Z</time></trkpt><trkpt lat="41.202331553369845" lon="15.136432707635784"><ele>624.0</ele><time>2026-04-12T05:06:52Z</time></trkpt><trkpt lat="41.20242223054159" lon="15.136425052143416"><ele>624.0</ele><time>2026-04-12T05:06:53Z</time></trkpt><trkpt lat="41.202527583088745" lon="15.1364141931557"><ele>624.0</ele><time>2026-04-12T05:06:54Z</time></trkpt><trkpt lat="41.20261734340221" lon="15.136392982906166"><ele>623.6</ele><time>2026-04-12T05:06:55Z</time></trkpt><trkpt lat="41.20271599941702" lon="15.136393848015429"><ele>623.2</ele><time>2026-04-12T05:06:56Z</time></trkpt><trkpt lat="41.202823386875515" lon="15.13639627589892"><ele>622.8000000000001</ele><time>2026-04-12T05:06:57Z</time></trkpt><trkpt lat="41.202945055713286" lon="15.1363897592042"><ele>622.4</ele><time>2026-04-12T05:06:58Z</time></trkpt><trkpt lat="41.20306076686638" lon="15.136385351219285"><ele>622.0</ele><time>2026-04-12T05:06:59Z</time></trkpt><trkpt lat="41.20318209426012" lon="15.136380572167235"><ele>621.75</ele><time>2026-04-12T05:07:00Z</time></trkpt><trkpt lat="41.203314496007195" lon="15.13637687813049"><ele>621.5</ele><time>2026-04-12T05:07:01Z</time></trkpt><trkpt lat="41.20344799533271" lon="15.136367421559983"><ele>621.25</ele><time>2026-04-12T05:07:02Z</time></trkpt><trkpt lat="41.2035903119973" lon="15.1363617001411"><ele>621.0</ele><time>2026-04-12T05:07:03Z</time></trkpt><trkpt lat="41.203728299893235" lon="15.136357439091194"><ele>621.0</ele><time>2026-04-12T05:07:04Z</time></trkpt><trkpt lat="41.20386795001346" lon="15.136344312526903"><ele>621.0</ele><time>2026-04-12T05:07:05Z</time></trkpt><trkpt lat="41.20400029719149" lon="15.136335208592081"><ele>621.0</ele><time>2026-04-12T05:07:06Z</time></trkpt><trkpt lat="41.204145178954874" lon="15.136313748179118"><ele>621.0</ele><time>2026-04-12T05:07:07Z</time></trkpt><trkpt lat="41.20428608970671" lon="15.136290162194872"><ele>620.75</ele><time>2026-04-12T05:07:08Z</time></trkpt><trkpt lat="41.20442496199876" lon="15.136274079475207"><ele>620.5</ele><time>2026-04-12T05:07:09Z</time></trkpt><trkpt lat="41.20456089933826" lon="15.13624680413892"><ele>620.25</ele><time>2026-04-12T05:07:10Z</time></trkpt><trkpt lat="41.204706782624804" lon="15.136229846308998"><ele>620.0</ele><time>2026-04-12T05:07:11Z</time></trkpt><trkpt lat="41.20484363356792" lon="15.136207342088829"><ele>620.0</ele><time>2026-04-12T05:07:12Z</time></trkpt><trkpt lat="41.20498029245709" lon="15.136182903481608"><ele>620.0</ele><time>2026-04-12T05:07:13Z</time></trkpt><trkpt lat="41.205103224607264" lon="15.136164308317234"><ele>620.0</ele><time>2026-04-12T05:07:14Z</time></trkpt><trkpt lat="41.20525312507821" lon="15.136133304601383"><ele>620.0</ele><time>2026-04-12T05:07:15Z</time></trkpt><trkpt lat="41.205397534157754" lon="15.136115092768081"><ele>620.0</ele><time>2026-04-12T05:07:16Z</time></trkpt><trkpt lat="41.20554655531149" lon="15.136093686809978"><ele>620.0</ele><time>2026-04-12T05:07:17Z</time></trkpt><trkpt lat="41.20569471594347" lon="15.136069294131806"><ele>620.0</ele><time>2026-04-12T05:07:18Z</time></trkpt><trkpt lat="41.20583984207472" lon="15.13604865169628"><ele>620.0</ele><time>2026-04-12T05:07:19Z</time></trkpt><trkpt lat="41.20597019461032" lon="15.1360300397795"><ele>620.0</ele><time>2026-04-12T05:07:20Z</time></trkpt><trkpt lat="41.20609554646973" lon="15.136014008983913"><ele>620.0</ele><time>2026-04-12T05:07:21Z</time></trkpt><trkpt lat="41.206220042627066" lon="15.135992085301304"><ele>620.0</ele><time>2026-04-12T05:07:22Z</time></trkpt><trkpt lat="41.206333580644035" lon="15.135979637056908"><ele>620.0</ele><time>2026-04-12T05:07:23Z</time></trkpt><trkpt lat="41.206445051348794" lon="15.135966118039413"><ele>619.2</ele><time>2026-04-12T05:07:24Z</time></trkpt><trkpt lat="41.20654945002636" lon="15.13594555461681"><ele>618.4</ele><time>2026-04-12T05:07:25Z</time></trkpt><trkpt lat="41.20664751244866" lon="15.135932327148199"><ele>617.6</ele><time>2026-04-12T05:07:26Z</time></trkpt><trkpt lat="41.20675526892826" lon="15.13591810335252"><ele>616.8</ele><time>2026-04-12T05:07:27Z</time></trkpt><trkpt lat="41.206853568823114" lon="15.135905033995053"><ele>616.0</ele><time>2026-04-12T05:07:28Z</time></trkpt><trkpt lat="41.20694747299224" lon="15.13588904908593"><ele>616.0</ele><time>2026-04-12T05:07:29Z</time></trkpt><trkpt lat="41.207041560612375" lon="15.135870112117757"><ele>616.0</ele><time>2026-04-12T05:07:30Z</time></trkpt><trkpt lat="41.20713965978207" lon="15.135850696594344"><ele>616.0</ele><time>2026-04-12T05:07:31Z</time></trkpt><trkpt lat="41.20724573940022" lon="15.135833668216232"><ele>616.0</ele><time>2026-04-12T05:07:32Z</time></trkpt><trkpt lat="41.20737345933362" lon="15.135821480523575"><ele>616.0</ele><time>2026-04-12T05:07:33Z</time></trkpt><trkpt lat="41.20748686461809" lon="15.135801004865522"><ele>615.0</ele><time>2026-04-12T05:07:34Z</time></trkpt><trkpt lat="41.207606521836695" lon="15.135768791949003"><ele>614.0</ele><time>2026-04-12T05:07:35Z</time></trkpt><trkpt lat="41.207735408962584" lon="15.135728540094263"><ele>613.0</ele><time>2026-04-12T05:07:36Z</time></trkpt><trkpt lat="41.207863502479086" lon="15.135688614268185"><ele>612.0</ele><time>2026-04-12T05:07:37Z</time></trkpt><trkpt lat="41.20798812842945" lon="15.13563617946954"><ele>611.5</ele><time>2026-04-12T05:07:38Z</time></trkpt><trkpt lat="41.20810396937123" lon="15.135573134199186"><ele>611.0</ele><time>2026-04-12T05:07:39Z</time></trkpt><trkpt lat="41.20821096181898" lon="15.135505791200018"><ele>610.5</ele><time>2026-04-12T05:07:40Z</time></trkpt><trkpt lat="41.20831882328371" lon="15.135434859099334"><ele>610.0</ele><time>2026-04-12T05:07:41Z</time></trkpt><trkpt lat="41.20843003777246" lon="15.135365542808419"><ele>609.75</ele><time>2026-04-12T05:07:42Z</time></trkpt><trkpt lat="41.20852944441339" lon="15.135310492825313"><ele>609.5</ele><time>2026-04-12T05:07:43Z</time></trkpt><trkpt lat="41.20864433592407" lon="15.135226138689944"><ele>609.25</ele><time>2026-04-12T05:07:44Z</time></trkpt><trkpt lat="41.20875526271828" lon="15.13515959470108"><ele>609.0</ele><time>2026-04-12T05:07:45Z</time></trkpt><trkpt lat="41.20886181500949" lon="15.135087447343214"><ele>609.0</ele><time>2026-04-12T05:07:46Z</time></trkpt><trkpt lat="41.20897670419768" lon="15.13501673972996"><ele>609.0</ele><time>2026-04-12T05:07:47Z</time></trkpt><trkpt lat="41.20908689207787" lon="15.13494044313592"><ele>609.0</ele><time>2026-04-12T05:07:48Z</time></trkpt><trkpt lat="41.209200718194154" lon="15.134867116141066"><ele>609.0</ele><time>2026-04-12T05:07:49Z</time></trkpt><trkpt lat="41.209313630543996" lon="15.134795389265276"><ele>608.2</ele><time>2026-04-12T05:07:50Z</time></trkpt><trkpt lat="41.209421143437694" lon="15.134723578174501"><ele>607.4</ele><time>2026-04-12T05:07:51Z</time></trkpt><trkpt lat="41.20952032276115" lon="15.13466706260092"><ele>606.6</ele><time>2026-04-12T05:07:52Z</time></trkpt><trkpt lat="41.209602672348055" lon="15.134602759126214"><ele>605.8</ele><time>2026-04-12T05:07:53Z</time></trkpt><trkpt lat="41.209693056004284" lon="15.134564991267064"><ele>605.0</ele><time>2026-04-12T05:07:54Z</time></trkpt><trkpt lat="41.20977834619697" lon="15.13449181771145"><ele>604.8333333333333</ele><time>2026-04-12T05:07:55Z</time></trkpt><trkpt lat="41.20985777361924" lon="15.1344432170902"><ele>604.6666666666666</ele><time>2026-04-12T05:07:56Z</time></trkpt><trkpt lat="41.20993722710204" lon="15.134393553869392"><ele>604.5</ele><time>2026-04-12T05:07:57Z</time></trkpt><trkpt lat="41.210002075514836" lon="15.134349875002318"><ele>604.3333333333334</ele><time>2026-04-12T05:07:58.001Z</time></trkpt><trkpt lat="41.21007761087782" lon="15.134307726694146"><ele>604.1666666666667</ele><time>2026-04-12T05:08:00.001Z</time></trkpt><trkpt lat="41.21013868943804" lon="15.134286011542338"><ele>604.0</ele><time>2026-04-12T05:08:02.001Z</time></trkpt><trkpt lat="41.21021480277355" lon="15.134427645220752"><ele>604.0</ele><time>2026-04-12T05:08:04.001Z</time></trkpt><trkpt lat="41.210238281908076" lon="15.134516767229098"><ele>604.0</ele><time>2026-04-12T05:08:05.001Z</time></trkpt><trkpt lat="41.21027929133322" lon="15.134617882223074"><ele>604.0</ele><time>2026-04-12T05:08:06.001Z</time></trkpt><trkpt lat="41.21030161915828" lon="15.134737973542705"><ele>604.0</ele><time>2026-04-12T05:08:07.001Z</time></trkpt><trkpt lat="41.210328454877036" lon="15.134865801267365"><ele>604.0</ele><time>2026-04-12T05:08:08.001Z</time></trkpt><trkpt lat="41.210368981503635" lon="15.135003719492207"><ele>604.2</ele><time>2026-04-12T05:08:09.001Z</time></trkpt><trkpt lat="41.21041476546037" lon="15.135144283199834"><ele>604.4</ele><time>2026-04-12T05:08:10.001Z</time></trkpt><trkpt lat="41.21044056235746" lon="15.135267537044978"><ele>604.6</ele><time>2026-04-12T05:08:11.001Z</time></trkpt><trkpt lat="41.210476296757804" lon="15.135380220470454"><ele>604.8</ele><time>2026-04-12T05:08:12.001Z</time></trkpt><trkpt lat="41.21050747182564" lon="15.135490450531455"><ele>605.0</ele><time>2026-04-12T05:08:13.001Z</time></trkpt><trkpt lat="41.210543240956355" lon="15.135613509642061"><ele>605.1666666666666</ele><time>2026-04-12T05:08:14.001Z</time></trkpt><trkpt lat="41.21055304749202" lon="15.135725220261552"><ele>605.3333333333333</ele><time>2026-04-12T05:08:15.001Z</time></trkpt><trkpt lat="41.21057415762392" lon="15.13581068433886"><ele>605.5</ele><time>2026-04-12T05:08:16.001Z</time></trkpt><trkpt lat="41.210530452479674" lon="15.135948623687243"><ele>605.6666666666666</ele><time>2026-04-12T05:08:18.001Z</time></trkpt><trkpt lat="41.2104688900164" lon="15.136012632009875"><ele>605.8333333333334</ele><time>2026-04-12T05:08:19.001Z</time></trkpt><trkpt lat="41.210370273022164" lon="15.136016096053648"><ele>606.0</ele><time>2026-04-12T05:08:20.001Z</time></trkpt><trkpt lat="41.21025916634196" lon="15.136065368391423"><ele>606.0</ele><time>2026-04-12T05:08:21.001Z</time></trkpt><trkpt lat="41.21013089059339" lon="15.136122710192984"><ele>606.0</ele><time>2026-04-12T05:08:22.001Z</time></trkpt><trkpt lat="41.21002003148172" lon="15.136191453782521"><ele>606.0</ele><time>2026-04-12T05:08:23.001Z</time></trkpt><trkpt lat="41.209897422755304" lon="15.136243900138432"><ele>606.0</ele><time>2026-04-12T05:08:24.001Z</time></trkpt><trkpt lat="41.209777177290555" lon="15.136301180312083"><ele>606.25</ele><time>2026-04-12T05:08:25.001Z</time></trkpt><trkpt lat="41.20965045549808" lon="15.136361460677316"><ele>606.5</ele><time>2026-04-12T05:08:26.001Z</time></trkpt><trkpt lat="41.20951430156612" lon="15.136419167393436"><ele>606.75</ele><time>2026-04-12T05:08:27.001Z</time></trkpt><trkpt lat="41.20937442589937" lon="15.136481985342472"><ele>607.0</ele><time>2026-04-12T05:08:28.001Z</time></trkpt><trkpt lat="41.20923768374177" lon="15.136542101316042"><ele>607.25</ele><time>2026-04-12T05:08:29.001Z</time></trkpt><trkpt lat="41.209114547049914" lon="15.136598297093983"><ele>607.5</ele><time>2026-04-12T05:08:30.001Z</time></trkpt><trkpt lat="41.20898439708706" lon="15.136653958471591"><ele>607.75</ele><time>2026-04-12T05:08:31.001Z</time></trkpt><trkpt lat="41.2088413160081" lon="15.136694747259096"><ele>608.0</ele><time>2026-04-12T05:08:32.001Z</time></trkpt><trkpt lat="41.20870345350497" lon="15.136772733846897"><ele>608.6666666666666</ele><time>2026-04-12T05:08:33.001Z</time></trkpt><trkpt lat="41.20856064156659" lon="15.136845664993695"><ele>609.3333333333334</ele><time>2026-04-12T05:08:34.001Z</time></trkpt><trkpt lat="41.20842804503764" lon="15.13695422317586"><ele>610.0</ele><time>2026-04-12T05:08:35.001Z</time></trkpt><trkpt lat="41.208301149932566" lon="15.137076317710978"><ele>610.0</ele><time>2026-04-12T05:08:36.001Z</time></trkpt><trkpt lat="41.20819549409219" lon="15.137206962050065"><ele>610.0</ele><time>2026-04-12T05:08:37.001Z</time></trkpt><trkpt lat="41.208110580178825" lon="15.13734363150541"><ele>610.0</ele><time>2026-04-12T05:08:38.001Z</time></trkpt><trkpt lat="41.20804064775483" lon="15.137463347751584"><ele>610.0</ele><time>2026-04-12T05:08:39.001Z</time></trkpt><trkpt lat="41.20795439253836" lon="15.137557313669992"><ele>610.5</ele><time>2026-04-12T05:08:40.001Z</time></trkpt><trkpt lat="41.20786355526484" lon="15.137640423222111"><ele>611.0</ele><time>2026-04-12T05:08:41.001Z</time></trkpt><trkpt lat="41.2078097067966" lon="15.137756105586014"><ele>611.5</ele><time>2026-04-12T05:08:42.001Z</time></trkpt><trkpt lat="41.20762440776825" lon="15.137700053418856"><ele>612.0</ele><time>2026-04-12T05:08:43.001Z</time></trkpt><trkpt lat="41.207490287871046" lon="15.137728466626042"><ele>612.0</ele><time>2026-04-12T05:08:44.001Z</time></trkpt><trkpt lat="41.20737344504232" lon="15.137731985941356"><ele>612.0</ele><time>2026-04-12T05:08:45.001Z</time></trkpt><trkpt lat="41.20727084653465" lon="15.137745249504407"><ele>612.0</ele><time>2026-04-12T05:08:46Z</time></trkpt><trkpt lat="41.20717706870533" lon="15.137754837551672"><ele>612.0</ele><time>2026-04-12T05:08:47Z</time></trkpt><trkpt lat="41.20709469778003" lon="15.137763690039328"><ele>612.0</ele><time>2026-04-12T05:08:48Z</time></trkpt><trkpt lat="41.207005758140234" lon="15.137778493961832"><ele>613.5</ele><time>2026-04-12T05:08:49Z</time></trkpt><trkpt lat="41.206914816769384" lon="15.137801189598225"><ele>615.0</ele><time>2026-04-12T05:08:50Z</time></trkpt><trkpt lat="41.20681413607604" lon="15.137822609209964"><ele>616.5</ele><time>2026-04-12T05:08:51Z</time></trkpt><trkpt lat="41.20669268054826" lon="15.137839392624926"><ele>618.0</ele><time>2026-04-12T05:08:52Z</time></trkpt><trkpt lat="41.206560521758334" lon="15.13787318889686"><ele>618.6666666666666</ele><time>2026-04-12T05:08:53Z</time></trkpt><trkpt lat="41.20641311465921" lon="15.13789306471638"><ele>619.3333333333333</ele><time>2026-04-12T05:08:54Z</time></trkpt><trkpt lat="41.206251065201386" lon="15.137902894364078"><ele>620.0</ele><time>2026-04-12T05:08:55Z</time></trkpt><trkpt lat="41.20608461801612" lon="15.13792281552833"><ele>620.0</ele><time>2026-04-12T05:08:56Z</time></trkpt><trkpt lat="41.20591358825877" lon="15.137952765925188"><ele>620.0</ele><time>2026-04-12T05:08:57Z</time></trkpt><trkpt lat="41.20573614669083" lon="15.137985269779483"><ele>620.0</ele><time>2026-04-12T05:08:58Z</time></trkpt><trkpt lat="41.20556014710985" lon="15.138013764317815"><ele>620.3333333333333</ele><time>2026-04-12T05:08:59Z</time></trkpt><trkpt lat="41.20538410690848" lon="15.13803440029077"><ele>620.6666666666666</ele><time>2026-04-12T05:09:00Z</time></trkpt><trkpt lat="41.20521277931804" lon="15.138059093644731"><ele>621.0</ele><time>2026-04-12T05:09:01Z</time></trkpt><trkpt lat="41.2050421432218" lon="15.138083083842398"><ele>621.0</ele><time>2026-04-12T05:09:02Z</time></trkpt><trkpt lat="41.204873205254856" lon="15.138109159841209"><ele>621.0</ele><time>2026-04-12T05:09:03Z</time></trkpt><trkpt lat="41.204706647504544" lon="15.138133381006782"><ele>621.0</ele><time>2026-04-12T05:09:04Z</time></trkpt><trkpt lat="41.204543554218084" lon="15.1381584193901"><ele>621.3333333333334</ele><time>2026-04-12T05:09:05Z</time></trkpt><trkpt lat="41.20437847501306" lon="15.138186220200216"><ele>621.6666666666667</ele><time>2026-04-12T05:09:06Z</time></trkpt><trkpt lat="41.2042194390403" lon="15.138210683753309"><ele>622.0</ele><time>2026-04-12T05:09:07Z</time></trkpt><trkpt lat="41.204059073979614" lon="15.138233878962648"><ele>623.3333333333334</ele><time>2026-04-12T05:09:08Z</time></trkpt><trkpt lat="41.20390583165221" lon="15.13825690657959"><ele>624.6666666666666</ele><time>2026-04-12T05:09:09Z</time></trkpt><trkpt lat="41.20374974519112" lon="15.138287330311911"><ele>626.0</ele><time>2026-04-12T05:09:10Z</time></trkpt><trkpt lat="41.20360382302971" lon="15.13831556203465"><ele>626.0</ele><time>2026-04-12T05:09:11Z</time></trkpt><trkpt lat="41.203460090899014" lon="15.13834578801107"><ele>626.0</ele><time>2026-04-12T05:09:12Z</time></trkpt><trkpt lat="41.20331744430373" lon="15.13836636025301"><ele>626.0</ele><time>2026-04-12T05:09:13Z</time></trkpt><trkpt lat="41.20319254961348" lon="15.138388749415833"><ele>626.0</ele><time>2026-04-12T05:09:14Z</time></trkpt><trkpt lat="41.20303738589473" lon="15.13840693408314"><ele>626.75</ele><time>2026-04-12T05:09:15Z</time></trkpt><trkpt lat="41.20288798848607" lon="15.138418090650601"><ele>627.5</ele><time>2026-04-12T05:09:16Z</time></trkpt><trkpt lat="41.202754812950594" lon="15.138437995938565"><ele>628.25</ele><time>2026-04-12T05:09:17Z</time></trkpt><trkpt lat="41.20262599475562" lon="15.138469583265058"><ele>629.0</ele><time>2026-04-12T05:09:18Z</time></trkpt><trkpt lat="41.20251908931177" lon="15.13847925274869"><ele>629.0</ele><time>2026-04-12T05:09:19Z</time></trkpt><trkpt lat="41.20241152314266" lon="15.138485581816733"><ele>629.0</ele><time>2026-04-12T05:09:20Z</time></trkpt><trkpt lat="41.2022993514665" lon="15.138453737027778"><ele>629.0</ele><time>2026-04-12T05:09:21Z</time></trkpt><trkpt lat="41.20220073923792" lon="15.138404576276354"><ele>629.0</ele><time>2026-04-12T05:09:22Z</time></trkpt><trkpt lat="41.20211502702813" lon="15.13836551816419"><ele>629.0</ele><time>2026-04-12T05:09:23Z</time></trkpt><trkpt lat="41.20203607005879" lon="15.1383273905629"><ele>629.2</ele><time>2026-04-12T05:09:24Z</time></trkpt><trkpt lat="41.2019654100589" lon="15.138293269505759"><ele>629.4</ele><time>2026-04-12T05:09:25Z</time></trkpt><trkpt lat="41.20186272119421" lon="15.138212621934251"><ele>629.6</ele><time>2026-04-12T05:09:27Z</time></trkpt><trkpt lat="41.20181734646911" lon="15.13803357702828"><ele>629.8</ele><time>2026-04-12T05:09:29Z</time></trkpt><trkpt lat="41.20181068419913" lon="15.137938860077682"><ele>630.0</ele><time>2026-04-12T05:09:30Z</time></trkpt><trkpt lat="41.20181676359231" lon="15.137765508610364"><ele>630.0</ele><time>2026-04-12T05:09:32Z</time></trkpt><trkpt lat="41.20181388739142" lon="15.13766881151623"><ele>630.0</ele><time>2026-04-12T05:09:33Z</time></trkpt><trkpt lat="41.201810789561655" lon="15.137569304621858"><ele>630.0</ele><time>2026-04-12T05:09:34Z</time></trkpt><trkpt lat="41.201807637890575" lon="15.13747871654353"><ele>630.0</ele><time>2026-04-12T05:09:35Z</time></trkpt><trkpt lat="41.2017926625238" lon="15.137387774487639"><ele>630.0</ele><time>2026-04-12T05:09:36Z</time></trkpt><trkpt lat="41.20179293866971" lon="15.137299726927067"><ele>630.0</ele><time>2026-04-12T05:09:37Z</time></trkpt><trkpt lat="41.20179346912302" lon="15.137207749783407"><ele>630.0</ele><time>2026-04-12T05:09:38Z</time></trkpt><trkpt lat="41.20178852745808" lon="15.137033178183541"><ele>629.2</ele><time>2026-04-12T05:09:40Z</time></trkpt><trkpt lat="41.20178385051118" lon="15.136942678321327"><ele>628.4</ele><time>2026-04-12T05:09:41Z</time></trkpt><trkpt lat="41.20176518256143" lon="15.13678328205431"><ele>627.6</ele><time>2026-04-12T05:09:43Z</time></trkpt><trkpt lat="41.20177729192217" lon="15.136632995230498"><ele>626.8</ele><time>2026-04-12T05:09:45Z</time></trkpt><trkpt lat="41.201777026639306" lon="15.136540731346672"><ele>626.0</ele><time>2026-04-12T05:09:47Z</time></trkpt><trkpt lat="41.20193183225108" lon="15.136440828712164"><ele>625.6666666666666</ele><time>2026-04-12T05:09:51Z</time></trkpt><trkpt lat="41.20204332637468" lon="15.136448423744872"><ele>625.3333333333333</ele><time>2026-04-12T05:09:53Z</time></trkpt><trkpt lat="41.20216879939687" lon="15.136438152573424"><ele>625.0</ele><time>2026-04-12T05:09:55Z</time></trkpt><trkpt lat="41.20223179555069" lon="15.136420570729378"><ele>624.6666666666666</ele><time>2026-04-12T05:09:56Z</time></trkpt><trkpt lat="41.202308535831904" lon="15.136416690188764"><ele>624.3333333333334</ele><time>2026-04-12T05:09:57Z</time></trkpt><trkpt lat="41.202377318065984" lon="15.136413827981732"><ele>624.0</ele><time>2026-04-12T05:09:58Z</time></trkpt><trkpt lat="41.20244726658712" lon="15.136420909995714"><ele>623.6</ele><time>2026-04-12T05:09:59Z</time></trkpt><trkpt lat="41.2025159125962" lon="15.136418785685084"><ele>623.2</ele><time>2026-04-12T05:10:00Z</time></trkpt><trkpt lat="41.2026427718566" lon="15.136425316252724"><ele>622.8000000000001</ele><time>2026-04-12T05:10:02.001Z</time></trkpt><trkpt lat="41.20271034062349" lon="15.136413999469136"><ele>622.4</ele><time>2026-04-12T05:10:03.001Z</time></trkpt><trkpt lat="41.20280130619069" lon="15.136403571574407"><ele>622.0</ele><time>2026-04-12T05:10:04.001Z</time></trkpt><trkpt lat="41.202903555946314" lon="15.136393103314628"><ele>622.0</ele><time>2026-04-12T05:10:05.001Z</time></trkpt><trkpt lat="41.2030081609622" lon="15.136390264085314"><ele>622.0</ele><time>2026-04-12T05:10:06.001Z</time></trkpt><trkpt lat="41.203113277205375" lon="15.136380155749745"><ele>622.0</ele><time>2026-04-12T05:10:07.001Z</time></trkpt><trkpt lat="41.203228734500065" lon="15.13637405879021"><ele>622.0</ele><time>2026-04-12T05:10:08.001Z</time></trkpt><trkpt lat="41.203352054926434" lon="15.136371805151866"><ele>622.0</ele><time>2026-04-12T05:10:09.001Z</time></trkpt><trkpt lat="41.20347663358249" lon="15.136366670712977"><ele>621.75</ele><time>2026-04-12T05:10:10.001Z</time></trkpt><trkpt lat="41.20360617931314" lon="15.136358745190105"><ele>621.5</ele><time>2026-04-12T05:10:11.001Z</time></trkpt><trkpt lat="41.203724332586354" lon="15.136353717158762"><ele>621.25</ele><time>2026-04-12T05:10:12.001Z</time></trkpt><trkpt lat="41.203846157356004" lon="15.13634749873948"><ele>621.0</ele><time>2026-04-12T05:10:13.001Z</time></trkpt><trkpt lat="41.20398224622971" lon="15.136331184116566"><ele>620.75</ele><time>2026-04-12T05:10:14.001Z</time></trkpt><trkpt lat="41.20411210552976" lon="15.136311258896031"><ele>620.5</ele><time>2026-04-12T05:10:15.001Z</time></trkpt><trkpt lat="41.20424131575413" lon="15.136296485359852"><ele>620.25</ele><time>2026-04-12T05:10:16.001Z</time></trkpt><trkpt lat="41.20436322267133" lon="15.136281430513003"><ele>620.0</ele><time>2026-04-12T05:10:17.001Z</time></trkpt><trkpt lat="41.204493671302096" lon="15.136247598094272"><ele>620.0</ele><time>2026-04-12T05:10:18.001Z</time></trkpt><trkpt lat="41.204623690208464" lon="15.13622850724625"><ele>620.0</ele><time>2026-04-12T05:10:19.001Z</time></trkpt><trkpt lat="41.20475150928431" lon="15.136214993329864"><ele>620.0</ele><time>2026-04-12T05:10:20.001Z</time></trkpt><trkpt lat="41.204889422596665" lon="15.136189766402772"><ele>620.0</ele><time>2026-04-12T05:10:21.001Z</time></trkpt><trkpt lat="41.205034280144766" lon="15.136169546056998"><ele>620.0</ele><time>2026-04-12T05:10:22.001Z</time></trkpt><trkpt lat="41.20517860849752" lon="15.136140028031992"><ele>620.0</ele><time>2026-04-12T05:10:23.001Z</time></trkpt><trkpt lat="41.20531681745009" lon="15.136120564859693"><ele>620.0</ele><time>2026-04-12T05:10:24.001Z</time></trkpt><trkpt lat="41.20545625693714" lon="15.136099718285113"><ele>620.0</ele><time>2026-04-12T05:10:25.001Z</time></trkpt><trkpt lat="41.20559458809811" lon="15.13608221721256"><ele>620.0</ele><time>2026-04-12T05:10:26.001Z</time></trkpt><trkpt lat="41.20572556806675" lon="15.136069107988654"><ele>620.0</ele><time>2026-04-12T05:10:27.001Z</time></trkpt><trkpt lat="41.20586091610342" lon="15.136052960104658"><ele>620.0</ele><time>2026-04-12T05:10:28.001Z</time></trkpt><trkpt lat="41.20597896146991" lon="15.136037916576583"><ele>620.0</ele><time>2026-04-12T05:10:29.001Z</time></trkpt><trkpt lat="41.20609871196116" lon="15.136018275311223"><ele>620.0</ele><time>2026-04-12T05:10:30.001Z</time></trkpt><trkpt lat="41.206218155831166" lon="15.136002998722095"><ele>620.0</ele><time>2026-04-12T05:10:31.001Z</time></trkpt><trkpt lat="41.206323482496984" lon="15.135985390571259"><ele>620.0</ele><time>2026-04-12T05:10:32.001Z</time></trkpt><trkpt lat="41.206420494000525" lon="15.135969208378969"><ele>620.0</ele><time>2026-04-12T05:10:33.001Z</time></trkpt><trkpt lat="41.20651049143868" lon="15.135951418235635"><ele>620.0</ele><time>2026-04-12T05:10:34.001Z</time></trkpt><trkpt lat="41.20659285044598" lon="15.13594355480046"><ele>619.0</ele><time>2026-04-12T05:10:35.001Z</time></trkpt><trkpt lat="41.206673886682275" lon="15.135933642899337"><ele>618.0</ele><time>2026-04-12T05:10:36.001Z</time></trkpt><trkpt lat="41.20673519592679" lon="15.135910851190204"><ele>617.0</ele><time>2026-04-12T05:10:37.001Z</time></trkpt><trkpt lat="41.20682083797808" lon="15.135899997690695"><ele>616.0</ele><time>2026-04-12T05:10:39.001Z</time></trkpt><trkpt lat="41.20686299478785" lon="15.135555022556957"><ele>615.6</ele><time>2026-04-12T05:10:42.001Z</time></trkpt><trkpt lat="41.20683263039269" lon="15.135428838744412"><ele>615.2</ele><time>2026-04-12T05:10:43.001Z</time></trkpt><trkpt lat="41.20682769496576" lon="15.135307222987358"><ele>614.8</ele><time>2026-04-12T05:10:44.001Z</time></trkpt><trkpt lat="41.20682085794062" lon="15.13518102484388"><ele>614.4</ele><time>2026-04-12T05:10:45.001Z</time></trkpt><trkpt lat="41.20680926482568" lon="15.135047297624697"><ele>614.0</ele><time>2026-04-12T05:10:46.001Z</time></trkpt><trkpt lat="41.206796167358675" lon="15.134912145505952"><ele>613.5</ele><time>2026-04-12T05:10:47.001Z</time></trkpt><trkpt lat="41.206782031289684" lon="15.134788607161644"><ele>613.0</ele><time>2026-04-12T05:10:48.001Z</time></trkpt><trkpt lat="41.206771786014286" lon="15.134676432771645"><ele>612.5</ele><time>2026-04-12T05:10:49.001Z</time></trkpt><trkpt lat="41.206760325572496" lon="15.134556171119433"><ele>612.0</ele><time>2026-04-12T05:10:50.001Z</time></trkpt><trkpt lat="41.206749475378544" lon="15.134436543999133"><ele>611.5</ele><time>2026-04-12T05:10:51.001Z</time></trkpt><trkpt lat="41.20674658760088" lon="15.134323790179337"><ele>611.0</ele><time>2026-04-12T05:10:52Z</time></trkpt><trkpt lat="41.20674927599" lon="15.134232340029"><ele>611.0</ele><time>2026-04-12T05:10:53Z</time></trkpt><trkpt lat="41.20674471405018" lon="15.134116397062614"><ele>611.0</ele><time>2026-04-12T05:10:55Z</time></trkpt><trkpt lat="41.206880641143655" lon="15.134072186004396"><ele>611.0</ele><time>2026-04-12T05:10:57Z</time></trkpt><trkpt lat="41.206969828105194" lon="15.13405958314733"><ele>611.0</ele><time>2026-04-12T05:10:59Z</time></trkpt><trkpt lat="41.20707400159786" lon="15.134024865461424"><ele>611.0</ele><time>2026-04-12T05:11:01Z</time></trkpt><trkpt lat="41.20713812872673" lon="15.134014177044413"><ele>610.8571428571429</ele><time>2026-04-12T05:11:02Z</time></trkpt><trkpt lat="41.2072081105995" lon="15.134009381844876"><ele>610.7142857142858</ele><time>2026-04-12T05:11:03Z</time></trkpt><trkpt lat="41.207273396322655" lon="15.134011740178865"><ele>610.5714285714287</ele><time>2026-04-12T05:11:04Z</time></trkpt><trkpt lat="41.207332166459835" lon="15.133981703769694"><ele>610.4285714285714</ele><time>2026-04-12T05:11:05Z</time></trkpt><trkpt lat="41.2073998023549" lon="15.133971152533874"><ele>610.2857142857142</ele><time>2026-04-12T05:11:06Z</time></trkpt><trkpt lat="41.20746370538428" lon="15.133966678290433"><ele>610.1428571428572</ele><time>2026-04-12T05:11:07Z</time></trkpt><trkpt lat="41.207528910119954" lon="15.133952746991122"><ele>610.0</ele><time>2026-04-12T05:11:08Z</time></trkpt><trkpt lat="41.207588915218174" lon="15.13392451323283"><ele>609.7142857142858</ele><time>2026-04-12T05:11:09Z</time></trkpt><trkpt lat="41.20765137504919" lon="15.133897470251853"><ele>609.4285714285713</ele><time>2026-04-12T05:11:10Z</time></trkpt><trkpt lat="41.20771571455864" lon="15.133863055076239"><ele>609.1428571428571</ele><time>2026-04-12T05:11:11Z</time></trkpt><trkpt lat="41.207777979243" lon="15.133824861873437"><ele>608.8571428571429</ele><time>2026-04-12T05:11:12Z</time></trkpt><trkpt lat="41.207837515751976" lon="15.133787863622537"><ele>608.5714285714287</ele><time>2026-04-12T05:11:13Z</time></trkpt><trkpt lat="41.2078988581746" lon="15.133748199791853"><ele>608.2857142857142</ele><time>2026-04-12T05:11:14Z</time></trkpt><trkpt lat="41.20796005046978" lon="15.133705189130062"><ele>608.0</ele><time>2026-04-12T05:11:15Z</time></trkpt><trkpt lat="41.20802120577042" lon="15.133658577484693"><ele>608.0</ele><time>2026-04-12T05:11:16Z</time></trkpt><trkpt lat="41.208080245603476" lon="15.133614475505953"><ele>608.0</ele><time>2026-04-12T05:11:17Z</time></trkpt><trkpt lat="41.20813777822336" lon="15.133566321616746"><ele>608.0</ele><time>2026-04-12T05:11:18Z</time></trkpt><trkpt lat="41.208193962488" lon="15.133524617598617"><ele>608.0</ele><time>2026-04-12T05:11:19Z</time></trkpt><trkpt lat="41.20825239213216" lon="15.13348193408321"><ele>608.0</ele><time>2026-04-12T05:11:20Z</time></trkpt><trkpt lat="41.20830960491588" lon="15.133444640468282"><ele>608.0</ele><time>2026-04-12T05:11:21Z</time></trkpt><trkpt lat="41.20837162538414" lon="15.133408656563343"><ele>608.0</ele><time>2026-04-12T05:11:22Z</time></trkpt><trkpt lat="41.208441028892295" lon="15.133368404908094"><ele>607.7142857142857</ele><time>2026-04-12T05:11:23Z</time></trkpt><trkpt lat="41.20850317183226" lon="15.133323376373514"><ele>607.4285714285714</ele><time>2026-04-12T05:11:24Z</time></trkpt><trkpt lat="41.208562981789704" lon="15.133271150517748"><ele>607.1428571428571</ele><time>2026-04-12T05:11:25Z</time></trkpt><trkpt lat="41.20862011613903" lon="15.133225994767827"><ele>606.8571428571429</ele><time>2026-04-12T05:11:26Z</time></trkpt><trkpt lat="41.208675521852875" lon="15.133182251014379"><ele>606.5714285714286</ele><time>2026-04-12T05:11:27Z</time></trkpt><trkpt lat="41.20873184225609" lon="15.133135558436487"><ele>606.2857142857143</ele><time>2026-04-12T05:11:28Z</time></trkpt><trkpt lat="41.20879735282936" lon="15.133109117206235"><ele>606.0</ele><time>2026-04-12T05:11:29Z</time></trkpt><trkpt lat="41.2088548773718" lon="15.133068828148826"><ele>605.5714285714286</ele><time>2026-04-12T05:11:30Z</time></trkpt><trkpt lat="41.20891491782265" lon="15.133026777010443"><ele>605.1428571428571</ele><time>2026-04-12T05:11:31Z</time></trkpt><trkpt lat="41.20897358782812" lon="15.132985685693248"><ele>604.7142857142858</ele><time>2026-04-12T05:11:32Z</time></trkpt><trkpt lat="41.209021292897795" lon="15.13293094201157"><ele>604.2857142857142</ele><time>2026-04-12T05:11:33Z</time></trkpt><trkpt lat="41.20908454705047" lon="15.132896711949773"><ele>603.8571428571428</ele><time>2026-04-12T05:11:34Z</time></trkpt><trkpt lat="41.209139851818065" lon="15.132853494562541"><ele>603.4285714285714</ele><time>2026-04-12T05:11:35Z</time></trkpt><trkpt lat="41.209238529745654" lon="15.132794111966215"><ele>603.0</ele><time>2026-04-12T05:11:37Z</time></trkpt><trkpt lat="41.209305237433675" lon="15.132744410010801"><ele>603.0</ele><time>2026-04-12T05:11:39Z</time></trkpt><trkpt lat="41.209367413328636" lon="15.132704945505582"><ele>603.0</ele><time>2026-04-12T05:11:41Z</time></trkpt><trkpt lat="41.209426124343736" lon="15.132669975583394"><ele>603.0</ele><time>2026-04-12T05:11:43Z</time></trkpt><trkpt lat="41.209403285548895" lon="15.132501702822779"><ele>603.0</ele><time>2026-04-12T05:11:44Z</time></trkpt><trkpt lat="41.20945485143118" lon="15.132426590709068"><ele>603.0</ele><time>2026-04-12T05:11:46Z</time></trkpt><trkpt lat="41.20950054592494" lon="15.132366940396258"><ele>603.0</ele><time>2026-04-12T05:11:48Z</time></trkpt><trkpt lat="41.20960668655336" lon="15.132286632686586"><ele>603.0</ele><time>2026-04-12T05:11:50Z</time></trkpt><trkpt lat="41.209684046288146" lon="15.132229606302975"><ele>603.0</ele><time>2026-04-12T05:11:51Z</time></trkpt><trkpt lat="41.209765858813256" lon="15.132170724991548"><ele>603.0</ele><time>2026-04-12T05:11:52Z</time></trkpt><trkpt lat="41.20985952533437" lon="15.132107084836319"><ele>603.0</ele><time>2026-04-12T05:11:53Z</time></trkpt><trkpt lat="41.20994875049551" lon="15.13204063377445"><ele>603.0</ele><time>2026-04-12T05:11:54Z</time></trkpt><trkpt lat="41.210035875013" lon="15.131983013783532"><ele>603.0</ele><time>2026-04-12T05:11:55Z</time></trkpt><trkpt lat="41.21013521389375" lon="15.131919417029678"><ele>603.0</ele><time>2026-04-12T05:11:56Z</time></trkpt><trkpt lat="41.2102329064145" lon="15.131851978475366"><ele>603.0</ele><time>2026-04-12T05:11:57Z</time></trkpt><trkpt lat="41.21033350877899" lon="15.131787546658067"><ele>603.0</ele><time>2026-04-12T05:11:58.001Z</time></trkpt><trkpt lat="41.210431582428825" lon="15.131729908540906"><ele>603.0</ele><time>2026-04-12T05:11:59.001Z</time></trkpt><trkpt lat="41.21053339298196" lon="15.131660115593707"><ele>603.0</ele><time>2026-04-12T05:12:00.001Z</time></trkpt><trkpt lat="41.21063238207905" lon="15.131596798042622"><ele>603.0</ele><time>2026-04-12T05:12:01.001Z</time></trkpt><trkpt lat="41.21073945035149" lon="15.131529469675735"><ele>603.0</ele><time>2026-04-12T05:12:02.001Z</time></trkpt><trkpt lat="41.21084804912022" lon="15.131460263106346"><ele>603.0</ele><time>2026-04-12T05:12:03.001Z</time></trkpt><trkpt lat="41.210973220393186" lon="15.131382334843352"><ele>603.25</ele><time>2026-04-12T05:12:04.001Z</time></trkpt><trkpt lat="41.21109667337389" lon="15.13131150624371"><ele>603.5</ele><time>2026-04-12T05:12:05.001Z</time></trkpt><trkpt lat="41.21121275639652" lon="15.131252516645917"><ele>603.75</ele><time>2026-04-12T05:12:06.001Z</time></trkpt><trkpt lat="41.21134666401191" lon="15.131142428589545"><ele>604.0</ele><time>2026-04-12T05:12:07.001Z</time></trkpt><trkpt lat="41.21145719586235" lon="15.131093908542779"><ele>603.5</ele><time>2026-04-12T05:12:08.001Z</time></trkpt><trkpt lat="41.21157478301129" lon="15.1310142479338"><ele>603.0</ele><time>2026-04-12T05:12:09.001Z</time></trkpt><trkpt lat="41.21169780533791" lon="15.130937677199883"><ele>602.5</ele><time>2026-04-12T05:12:10.001Z</time></trkpt><trkpt lat="41.21182227426832" lon="15.130871555819025"><ele>602.0</ele><time>2026-04-12T05:12:11.001Z</time></trkpt><trkpt lat="41.21194915062287" lon="15.13079706738435"><ele>602.0</ele><time>2026-04-12T05:12:12.001Z</time></trkpt><trkpt lat="41.212074254580564" lon="15.13072168776438"><ele>602.0</ele><time>2026-04-12T05:12:13.001Z</time></trkpt><trkpt lat="41.2121990427852" lon="15.130667983635142"><ele>602.0</ele><time>2026-04-12T05:12:14.001Z</time></trkpt><trkpt lat="41.21231882047895" lon="15.13057381869163"><ele>602.0</ele><time>2026-04-12T05:12:15.001Z</time></trkpt><trkpt lat="41.212434183947586" lon="15.13051074054917"><ele>602.0</ele><time>2026-04-12T05:12:16.001Z</time></trkpt><trkpt lat="41.212560997249916" lon="15.130458605888958"><ele>602.0</ele><time>2026-04-12T05:12:17.001Z</time></trkpt><trkpt lat="41.21268972490673" lon="15.130389806423251"><ele>602.0</ele><time>2026-04-12T05:12:18.001Z</time></trkpt><trkpt lat="41.212821931545086" lon="15.130321314173635"><ele>602.0</ele><time>2026-04-12T05:12:19.001Z</time></trkpt><trkpt lat="41.212960248993205" lon="15.130252201484689"><ele>602.0</ele><time>2026-04-12T05:12:20.001Z</time></trkpt><trkpt lat="41.21310279310657" lon="15.130185656820483"><ele>602.0</ele><time>2026-04-12T05:12:21.001Z</time></trkpt><trkpt lat="41.21324257742638" lon="15.130123046747752"><ele>602.0</ele><time>2026-04-12T05:12:22.001Z</time></trkpt><trkpt lat="41.2133893060332" lon="15.130037797571477"><ele>602.0</ele><time>2026-04-12T05:12:23.001Z</time></trkpt><trkpt lat="41.21353500847927" lon="15.129991090001667"><ele>602.0</ele><time>2026-04-12T05:12:24.001Z</time></trkpt><trkpt lat="41.21367639393626" lon="15.129950485591452"><ele>602.0</ele><time>2026-04-12T05:12:25.001Z</time></trkpt><trkpt lat="41.21381906663921" lon="15.129906767802822"><ele>602.0</ele><time>2026-04-12T05:12:26.001Z</time></trkpt><trkpt lat="41.21395808619455" lon="15.129868292569363"><ele>601.3333333333333</ele><time>2026-04-12T05:12:27.001Z</time></trkpt><trkpt lat="41.21410211648941" lon="15.129826242580979"><ele>600.6666666666666</ele><time>2026-04-12T05:12:28.001Z</time></trkpt><trkpt lat="41.214257191894276" lon="15.129794176870925"><ele>600.0</ele><time>2026-04-12T05:12:29.001Z</time></trkpt><trkpt lat="41.21440096821769" lon="15.129761358597493"><ele>600.0</ele><time>2026-04-12T05:12:30.001Z</time></trkpt><trkpt lat="41.214541211334705" lon="15.129731118858714"><ele>600.0</ele><time>2026-04-12T05:12:31.001Z</time></trkpt><trkpt lat="41.21468637742378" lon="15.129698613975021"><ele>600.0</ele><time>2026-04-12T05:12:32.001Z</time></trkpt><trkpt lat="41.21483383703409" lon="15.129664469905125"><ele>600.0</ele><time>2026-04-12T05:12:33.001Z</time></trkpt><trkpt lat="41.21497534262939" lon="15.129629555156033"><ele>600.25</ele><time>2026-04-12T05:12:34.001Z</time></trkpt><trkpt lat="41.21512222849826" lon="15.129596474626023"><ele>600.5</ele><time>2026-04-12T05:12:35.001Z</time></trkpt><trkpt lat="41.21526182318071" lon="15.129567542401935"><ele>600.75</ele><time>2026-04-12T05:12:36.001Z</time></trkpt><trkpt lat="41.21539590945842" lon="15.1295395009023"><ele>601.0</ele><time>2026-04-12T05:12:37.001Z</time></trkpt><trkpt lat="41.21553204893109" lon="15.129514492788056"><ele>601.0</ele><time>2026-04-12T05:12:38.001Z</time></trkpt><trkpt lat="41.21566649835294" lon="15.129488155424282"><ele>601.0</ele><time>2026-04-12T05:12:39.001Z</time></trkpt><trkpt lat="41.215805589412405" lon="15.129455327769358"><ele>601.0</ele><time>2026-04-12T05:12:40.001Z</time></trkpt><trkpt lat="41.215928886759045" lon="15.12943241451152"><ele>601.0</ele><time>2026-04-12T05:12:41.001Z</time></trkpt><trkpt lat="41.216066060858346" lon="15.129406176698264"><ele>601.0</ele><time>2026-04-12T05:12:42.001Z</time></trkpt><trkpt lat="41.21620225927134" lon="15.12939133410051"><ele>601.0</ele><time>2026-04-12T05:12:43.001Z</time></trkpt><trkpt lat="41.21633827179044" lon="15.129369694910396"><ele>601.0</ele><time>2026-04-12T05:12:44.001Z</time></trkpt><trkpt lat="41.21647494476788" lon="15.129351237124563"><ele>601.0</ele><time>2026-04-12T05:12:45.001Z</time></trkpt><trkpt lat="41.21661016109668" lon="15.129328221948455"><ele>600.0</ele><time>2026-04-12T05:12:46.001Z</time></trkpt><trkpt lat="41.216749213981714" lon="15.129307163729537"><ele>599.0</ele><time>2026-04-12T05:12:47.001Z</time></trkpt><trkpt lat="41.21688450531388" lon="15.129284803818464"><ele>598.0</ele><time>2026-04-12T05:12:48.001Z</time></trkpt><trkpt lat="41.21703328340261" lon="15.129268168987979"><ele>597.0</ele><time>2026-04-12T05:12:49.001Z</time></trkpt><trkpt lat="41.217162607226115" lon="15.129241596450242"><ele>597.0</ele><time>2026-04-12T05:12:50.001Z</time></trkpt><trkpt lat="41.21729406837654" lon="15.129217644703306"><ele>597.0</ele><time>2026-04-12T05:12:51.001Z</time></trkpt><trkpt lat="41.217424687685494" lon="15.129194956945627"><ele>597.0</ele><time>2026-04-12T05:12:52.001Z</time></trkpt><trkpt lat="41.217554539628416" lon="15.12917297770223"><ele>597.0</ele><time>2026-04-12T05:12:53.001Z</time></trkpt><trkpt lat="41.21768622699061" lon="15.12915270818569"><ele>596.5</ele><time>2026-04-12T05:12:54.001Z</time></trkpt><trkpt lat="41.21782313628727" lon="15.12912814790996"><ele>596.0</ele><time>2026-04-12T05:12:55.001Z</time></trkpt><trkpt lat="41.217957372701235" lon="15.129100961083456"><ele>595.5</ele><time>2026-04-12T05:12:56.001Z</time></trkpt><trkpt lat="41.2180945710082" lon="15.129071699152572"><ele>595.0</ele><time>2026-04-12T05:12:57.001Z</time></trkpt><trkpt lat="41.218234196057914" lon="15.129039336598066"><ele>595.0</ele><time>2026-04-12T05:12:58Z</time></trkpt><trkpt lat="41.21837352231723" lon="15.129007863775634"><ele>595.0</ele><time>2026-04-12T05:12:59Z</time></trkpt><trkpt lat="41.218509626650864" lon="15.128976374709543"><ele>595.0</ele><time>2026-04-12T05:13:00Z</time></trkpt><trkpt lat="41.218647661113955" lon="15.128944714432421"><ele>595.0</ele><time>2026-04-12T05:13:01Z</time></trkpt><trkpt lat="41.21878470808616" lon="15.128912849337963"><ele>595.0</ele><time>2026-04-12T05:13:02Z</time></trkpt><trkpt lat="41.21892045589293" lon="15.128878143796392"><ele>595.0</ele><time>2026-04-12T05:13:03Z</time></trkpt><trkpt lat="41.21905507949779" lon="15.128843113981578"><ele>595.0</ele><time>2026-04-12T05:13:04Z</time></trkpt><trkpt lat="41.21918772262964" lon="15.128811566889624"><ele>595.0</ele><time>2026-04-12T05:13:05Z</time></trkpt><trkpt lat="41.219322553574834" lon="15.128779961944906"><ele>595.0</ele><time>2026-04-12T05:13:06Z</time></trkpt><trkpt lat="41.21945607593711" lon="15.128748999162136"><ele>595.0</ele><time>2026-04-12T05:13:07Z</time></trkpt><trkpt lat="41.21958601105664" lon="15.12871744500088"><ele>595.0</ele><time>2026-04-12T05:13:08Z</time></trkpt><trkpt lat="41.2197132604794" lon="15.128682891232401"><ele>595.0</ele><time>2026-04-12T05:13:09Z</time></trkpt><trkpt lat="41.21984423411211" lon="15.128639000334385"><ele>594.25</ele><time>2026-04-12T05:13:10Z</time></trkpt><trkpt lat="41.2199814356445" lon="15.128595245399282"><ele>593.5</ele><time>2026-04-12T05:13:11Z</time></trkpt><trkpt lat="41.22011882749342" lon="15.128550497897946"><ele>592.75</ele><time>2026-04-12T05:13:12Z</time></trkpt><trkpt lat="41.22025774936007" lon="15.128517216603543"><ele>592.0</ele><time>2026-04-12T05:13:13Z</time></trkpt><trkpt lat="41.22039427485869" lon="15.12847597199919"><ele>592.0</ele><time>2026-04-12T05:13:14Z</time></trkpt><trkpt lat="41.22053254911453" lon="15.128440267501384"><ele>592.0</ele><time>2026-04-12T05:13:15Z</time></trkpt><trkpt lat="41.220664785714796" lon="15.128399253599348"><ele>592.0</ele><time>2026-04-12T05:13:16Z</time></trkpt><trkpt lat="41.220795712849444" lon="15.128356821428127"><ele>592.0</ele><time>2026-04-12T05:13:17Z</time></trkpt><trkpt lat="41.22092591139823" lon="15.1283114722356"><ele>592.25</ele><time>2026-04-12T05:13:18Z</time></trkpt><trkpt lat="41.22105436337883" lon="15.128263142732695"><ele>592.5</ele><time>2026-04-12T05:13:19Z</time></trkpt><trkpt lat="41.22117509513547" lon="15.128215404662757"><ele>592.75</ele><time>2026-04-12T05:13:20Z</time></trkpt><trkpt lat="41.22129930619593" lon="15.1281710789695"><ele>593.0</ele><time>2026-04-12T05:13:21Z</time></trkpt><trkpt lat="41.221426950981574" lon="15.128134320613217"><ele>594.25</ele><time>2026-04-12T05:13:22Z</time></trkpt><trkpt lat="41.22155185889437" lon="15.128089646448844"><ele>595.5</ele><time>2026-04-12T05:13:23Z</time></trkpt><trkpt lat="41.22166546222161" lon="15.12804891957838"><ele>596.75</ele><time>2026-04-12T05:13:24Z</time></trkpt><trkpt lat="41.221773009398675" lon="15.128018452667273"><ele>598.0</ele><time>2026-04-12T05:13:25Z</time></trkpt><trkpt lat="41.221868497687154" lon="15.12799815699239"><ele>598.0</ele><time>2026-04-12T05:13:26Z</time></trkpt><trkpt lat="41.221954832291686" lon="15.127968554850531"><ele>598.0</ele><time>2026-04-12T05:13:27Z</time></trkpt><trkpt lat="41.22203223274603" lon="15.12794361705249"><ele>598.0</ele><time>2026-04-12T05:13:28Z</time></trkpt><trkpt lat="41.22211669280464" lon="15.127916330766222"><ele>598.0</ele><time>2026-04-12T05:13:29Z</time></trkpt><trkpt lat="41.22220681078996" lon="15.1278906767655"><ele>598.0</ele><time>2026-04-12T05:13:30Z</time></trkpt><trkpt lat="41.22229266443097" lon="15.12787175899432"><ele>598.0</ele><time>2026-04-12T05:13:31Z</time></trkpt><trkpt lat="41.22236945160808" lon="15.127854215189648"><ele>598.1999999999999</ele><time>2026-04-12T05:13:32Z</time></trkpt><trkpt lat="41.222437522614086" lon="15.12783076606714"><ele>598.4</ele><time>2026-04-12T05:13:33Z</time></trkpt><trkpt lat="41.222539270381056" lon="15.127785188796906"><ele>598.5999999999999</ele><time>2026-04-12T05:13:35Z</time></trkpt><trkpt lat="41.222648048329795" lon="15.127730921835926"><ele>598.8</ele><time>2026-04-12T05:13:37Z</time></trkpt><trkpt lat="41.222791561906355" lon="15.127730897479251"><ele>599.0</ele><time>2026-04-12T05:13:39Z</time></trkpt><trkpt lat="41.222872857302626" lon="15.127756696118844"><ele>599.0</ele><time>2026-04-12T05:13:40Z</time></trkpt><trkpt lat="41.22295852529577" lon="15.127783403629584"><ele>599.0</ele><time>2026-04-12T05:13:41Z</time></trkpt><trkpt lat="41.22303848762769" lon="15.127805905128664"><ele>599.0</ele><time>2026-04-12T05:13:42Z</time></trkpt><trkpt lat="41.22310722198224" lon="15.127810289546685"><ele>599.0</ele><time>2026-04-12T05:13:43Z</time></trkpt><trkpt lat="41.2231678497412" lon="15.12784801389317"><ele>599.0</ele><time>2026-04-12T05:13:44Z</time></trkpt><trkpt lat="41.22322919493623" lon="15.127868063933004"><ele>599.0</ele><time>2026-04-12T05:13:45Z</time></trkpt><trkpt lat="41.223347784328745" lon="15.127799853741317"><ele>599.4</ele><time>2026-04-12T05:13:47Z</time></trkpt><trkpt lat="41.22345206223195" lon="15.12777822999193"><ele>599.8</ele><time>2026-04-12T05:13:49Z</time></trkpt><trkpt lat="41.22357679251556" lon="15.127769366718438"><ele>600.2</ele><time>2026-04-12T05:13:51Z</time></trkpt><trkpt lat="41.22365243159525" lon="15.12776721197248"><ele>600.6</ele><time>2026-04-12T05:13:52Z</time></trkpt><trkpt lat="41.22373251954932" lon="15.127765820483335"><ele>601.0</ele><time>2026-04-12T05:13:53Z</time></trkpt><trkpt lat="41.22380712342813" lon="15.127765811147336"><ele>601.0</ele><time>2026-04-12T05:13:54Z</time></trkpt><trkpt lat="41.22388104720507" lon="15.127767358415085"><ele>601.0</ele><time>2026-04-12T05:13:55Z</time></trkpt><trkpt lat="41.22394751988542" lon="15.127764676706338"><ele>601.0</ele><time>2026-04-12T05:13:56Z</time></trkpt><trkpt lat="41.224027775835616" lon="15.127761438912108"><ele>601.0</ele><time>2026-04-12T05:13:57Z</time></trkpt><trkpt lat="41.22410177707331" lon="15.12775845345611"><ele>601.0</ele><time>2026-04-12T05:13:58Z</time></trkpt><trkpt lat="41.22417315655793" lon="15.127734592250352"><ele>601.0</ele><time>2026-04-12T05:13:59Z</time></trkpt><trkpt lat="41.22424005617234" lon="15.127755333193026"><ele>601.0</ele><time>2026-04-12T05:14:00Z</time></trkpt><trkpt lat="41.224312439462565" lon="15.127755263333736"><ele>601.1666666666667</ele><time>2026-04-12T05:14:01Z</time></trkpt><trkpt lat="41.224378853427275" lon="15.127755896179668"><ele>601.3333333333334</ele><time>2026-04-12T05:14:02Z</time></trkpt><trkpt lat="41.22445893689194" lon="15.127760954553088"><ele>601.5</ele><time>2026-04-12T05:14:03Z</time></trkpt><trkpt lat="41.22453198310465" lon="15.127769527733586"><ele>601.6666666666666</ele><time>2026-04-12T05:14:04Z</time></trkpt><trkpt lat="41.22461050900114" lon="15.127784841275606"><ele>601.8333333333333</ele><time>2026-04-12T05:14:05Z</time></trkpt><trkpt lat="41.224689985690524" lon="15.12780557251929"><ele>602.0</ele><time>2026-04-12T05:14:06Z</time></trkpt><trkpt lat="41.22476940562118" lon="15.127829448277222"><ele>602.1666666666666</ele><time>2026-04-12T05:14:07Z</time></trkpt><trkpt lat="41.224846390334925" lon="15.127855413387959"><ele>602.3333333333333</ele><time>2026-04-12T05:14:08Z</time></trkpt><trkpt lat="41.22492889993428" lon="15.127872786030988"><ele>602.5</ele><time>2026-04-12T05:14:09Z</time></trkpt><trkpt lat="41.22500391325465" lon="15.127894450747023"><ele>602.6666666666666</ele><time>2026-04-12T05:14:10Z</time></trkpt><trkpt lat="41.225074856514695" lon="15.12790969849449"><ele>602.8333333333334</ele><time>2026-04-12T05:14:11Z</time></trkpt><trkpt lat="41.225192865099466" lon="15.127940787107866"><ele>603.0</ele><time>2026-04-12T05:14:13Z</time></trkpt><trkpt lat="41.22531236053981" lon="15.127977729171642"><ele>603.0</ele><time>2026-04-12T05:14:15Z</time></trkpt><trkpt lat="41.225375442444474" lon="15.127987764587017"><ele>603.0</ele><time>2026-04-12T05:14:16Z</time></trkpt><trkpt lat="41.225498403572615" lon="15.128013334798267"><ele>603.0</ele><time>2026-04-12T05:14:18Z</time></trkpt><trkpt lat="41.22562536958857" lon="15.128040684504516"><ele>603.0</ele><time>2026-04-12T05:14:20.001Z</time></trkpt><trkpt lat="41.22569096151367" lon="15.128055986990661"><ele>603.0</ele><time>2026-04-12T05:14:21.001Z</time></trkpt><trkpt lat="41.22580376925692" lon="15.128073637010777"><ele>603.1428571428572</ele><time>2026-04-12T05:14:23.001Z</time></trkpt><trkpt lat="41.22586716367742" lon="15.128094379786566"><ele>603.2857142857142</ele><time>2026-04-12T05:14:24.001Z</time></trkpt><trkpt lat="41.22593041900875" lon="15.128115832151236"><ele>603.4285714285714</ele><time>2026-04-12T05:14:25.001Z</time></trkpt><trkpt lat="41.22599646455087" lon="15.128136495750828"><ele>603.5714285714287</ele><time>2026-04-12T05:14:26.001Z</time></trkpt><trkpt lat="41.226059918847845" lon="15.128155520391614"><ele>603.7142857142858</ele><time>2026-04-12T05:14:27.001Z</time></trkpt><trkpt lat="41.22612584835725" lon="15.128182203842805"><ele>603.8571428571429</ele><time>2026-04-12T05:14:28.001Z</time></trkpt><trkpt lat="41.22619171916864" lon="15.128220775960244"><ele>604.0</ele><time>2026-04-12T05:14:29.001Z</time></trkpt><trkpt lat="41.22626014173871" lon="15.128234594170275"><ele>604.0000000000001</ele><time>2026-04-12T05:14:30.001Z</time></trkpt><trkpt lat="41.2263297969137" lon="15.12826123163185"><ele>604.0</ele><time>2026-04-12T05:14:31.001Z</time></trkpt><trkpt lat="41.22639393710295" lon="15.128288172537273"><ele>604.0</ele><time>2026-04-12T05:14:32.001Z</time></trkpt><trkpt lat="41.22645613170668" lon="15.12831788371996"><ele>604.0</ele><time>2026-04-12T05:14:33.001Z</time></trkpt><trkpt lat="41.22652397471579" lon="15.128342462303928"><ele>604.0</ele><time>2026-04-12T05:14:34.001Z</time></trkpt><trkpt lat="41.226589777989496" lon="15.128369156812937"><ele>604.0000000000001</ele><time>2026-04-12T05:14:35.001Z</time></trkpt><trkpt lat="41.22665815276578" lon="15.128394723374175"><ele>604.0</ele><time>2026-04-12T05:14:36.001Z</time></trkpt><trkpt lat="41.22672993164183" lon="15.128418750223565"><ele>604.2</ele><time>2026-04-12T05:14:37.001Z</time></trkpt><trkpt lat="41.22680108224854" lon="15.128443151796652"><ele>604.4</ele><time>2026-04-12T05:14:38.001Z</time></trkpt><trkpt lat="41.2268696087257" lon="15.128460739883852"><ele>604.6</ele><time>2026-04-12T05:14:39.001Z</time></trkpt><trkpt lat="41.226985338043434" lon="15.128496822820107"><ele>604.8</ele><time>2026-04-12T05:14:41.001Z</time></trkpt><trkpt lat="41.227079996958516" lon="15.128531321040429"><ele>605.0</ele><time>2026-04-12T05:14:43.001Z</time></trkpt><trkpt lat="41.22717900418747" lon="15.128567492907488"><ele>605.0</ele><time>2026-04-12T05:14:45.001Z</time></trkpt><trkpt lat="41.22727954950335" lon="15.12859689158949"><ele>605.0</ele><time>2026-04-12T05:14:47.001Z</time></trkpt><trkpt lat="41.22739833382556" lon="15.128639799873909"><ele>605.0</ele><time>2026-04-12T05:14:49.001Z</time></trkpt><trkpt lat="41.22747013037521" lon="15.128671402397973"><ele>605.0</ele><time>2026-04-12T05:14:50.001Z</time></trkpt><trkpt lat="41.2275313129022" lon="15.128698238710388"><ele>605.0</ele><time>2026-04-12T05:14:51.001Z</time></trkpt><trkpt lat="41.227596095872094" lon="15.128728785198922"><ele>605.0</ele><time>2026-04-12T05:14:52.001Z</time></trkpt><trkpt lat="41.22765860941581" lon="15.128747412284659"><ele>605.4</ele><time>2026-04-12T05:14:53.001Z</time></trkpt><trkpt lat="41.22772479297394" lon="15.1287644768291"><ele>605.8</ele><time>2026-04-12T05:14:54.001Z</time></trkpt><trkpt lat="41.22778939237949" lon="15.128783827128476"><ele>606.2</ele><time>2026-04-12T05:14:55.001Z</time></trkpt><trkpt lat="41.227896192193384" lon="15.12883757047661"><ele>606.6</ele><time>2026-04-12T05:14:57.001Z</time></trkpt><trkpt lat="41.22802251263016" lon="15.128886227675064"><ele>607.0</ele><time>2026-04-12T05:14:59.001Z</time></trkpt><trkpt lat="41.228145531306154" lon="15.12893628651486"><ele>607.4</ele><time>2026-04-12T05:15:01.001Z</time></trkpt><trkpt lat="41.228218117053586" lon="15.128962816495894"><ele>607.8000000000001</ele><time>2026-04-12T05:15:02.001Z</time></trkpt><trkpt lat="41.228322330883074" lon="15.129014981413492"><ele>608.2</ele><time>2026-04-12T05:15:04Z</time></trkpt><trkpt lat="41.22841760517958" lon="15.129036425255531"><ele>608.6</ele><time>2026-04-12T05:15:06Z</time></trkpt><trkpt lat="41.22850113863217" lon="15.129068825016914"><ele>609.0</ele><time>2026-04-12T05:15:08Z</time></trkpt><trkpt lat="41.2285955618761" lon="15.129120084736593"><ele>609.0</ele><time>2026-04-12T05:15:10Z</time></trkpt><trkpt lat="41.22868106331615" lon="15.12913924281602"><ele>609.0</ele><time>2026-04-12T05:15:12Z</time></trkpt><trkpt lat="41.22877050449042" lon="15.129165189349068"><ele>609.0</ele><time>2026-04-12T05:15:14Z</time></trkpt><trkpt lat="41.22885010071494" lon="15.129212611113743"><ele>609.0</ele><time>2026-04-12T05:15:16Z</time></trkpt><trkpt lat="41.22894129371475" lon="15.129247752279593"><ele>609.0</ele><time>2026-04-12T05:15:18Z</time></trkpt><trkpt lat="41.22905517209581" lon="15.129282030965207"><ele>608.6666666666666</ele><time>2026-04-12T05:15:20Z</time></trkpt><trkpt lat="41.22911530869962" lon="15.129308976290444"><ele>608.3333333333334</ele><time>2026-04-12T05:15:21Z</time></trkpt><trkpt lat="41.22917517329672" lon="15.129336441084932"><ele>608.0</ele><time>2026-04-12T05:15:22Z</time></trkpt><trkpt lat="41.229266011828926" lon="15.129363769555603"><ele>607.6666666666667</ele><time>2026-04-12T05:15:24Z</time></trkpt><trkpt lat="41.22937425389824" lon="15.129396076104376"><ele>607.3333333333334</ele><time>2026-04-12T05:15:26Z</time></trkpt><trkpt lat="41.22948110581112" lon="15.129427096661379"><ele>607.0</ele><time>2026-04-12T05:15:28Z</time></trkpt><trkpt lat="41.229595298525275" lon="15.129469438484042"><ele>607.0</ele><time>2026-04-12T05:15:30Z</time></trkpt><trkpt lat="41.22972036104181" lon="15.129519376395818"><ele>607.0</ele><time>2026-04-12T05:15:32Z</time></trkpt><trkpt lat="41.229816749507805" lon="15.129559966560294"><ele>607.0</ele><time>2026-04-12T05:15:34Z</time></trkpt><trkpt lat="41.22991741553683" lon="15.129603026841586"><ele>607.0</ele><time>2026-04-12T05:15:36Z</time></trkpt><trkpt lat="41.230024373219294" lon="15.129643391337796"><ele>607.0</ele><time>2026-04-12T05:15:38Z</time></trkpt><trkpt lat="41.230124083734324" lon="15.129688153386725"><ele>606.4</ele><time>2026-04-12T05:15:40Z</time></trkpt><trkpt lat="41.230223861322024" lon="15.129725793693344"><ele>605.8000000000001</ele><time>2026-04-12T05:15:42Z</time></trkpt><trkpt lat="41.23032266533436" lon="15.129762520661716"><ele>605.2</ele><time>2026-04-12T05:15:44Z</time></trkpt><trkpt lat="41.23041677747062" lon="15.129795472498609"><ele>604.6</ele><time>2026-04-12T05:15:46Z</time></trkpt><trkpt lat="41.230508297426766" lon="15.129837529401522"><ele>604.0</ele><time>2026-04-12T05:15:48Z</time></trkpt><trkpt lat="41.23060116034412" lon="15.12986996036579"><ele>603.4</ele><time>2026-04-12T05:15:50Z</time></trkpt><trkpt lat="41.23069643465659" lon="15.129904195158698"><ele>602.8</ele><time>2026-04-12T05:15:52Z</time></trkpt><trkpt lat="41.230784808148854" lon="15.129941015500194"><ele>602.2</ele><time>2026-04-12T05:15:54Z</time></trkpt><trkpt lat="41.23087237372702" lon="15.129965467868946"><ele>601.6</ele><time>2026-04-12T05:15:56Z</time></trkpt><trkpt lat="41.230971877335165" lon="15.130001192795456"><ele>601.0</ele><time>2026-04-12T05:15:58Z</time></trkpt><trkpt lat="41.231073120521245" lon="15.130039296332084"><ele>601.0</ele><time>2026-04-12T05:16:00Z</time></trkpt><trkpt lat="41.23118079134659" lon="15.130088145144628"><ele>601.0</ele><time>2026-04-12T05:16:02Z</time></trkpt><trkpt lat="41.23128561399322" lon="15.130138417580248"><ele>601.0</ele><time>2026-04-12T05:16:04Z</time></trkpt><trkpt lat="41.23138643161078" lon="15.130175559766897"><ele>601.0</ele><time>2026-04-12T05:16:06Z</time></trkpt><trkpt lat="41.23146742203144" lon="15.130226763025183"><ele>601.0</ele><time>2026-04-12T05:16:08Z</time></trkpt><trkpt lat="41.23155020758952" lon="15.130267416253474"><ele>600.1666666666667</ele><time>2026-04-12T05:16:10Z</time></trkpt><trkpt lat="41.231633998174146" lon="15.130296895075846"><ele>599.3333333333334</ele><time>2026-04-12T05:16:12Z</time></trkpt><trkpt lat="41.23171532633499" lon="15.130328753884838"><ele>598.5</ele><time>2026-04-12T05:16:14Z</time></trkpt><trkpt lat="41.23178431887873" lon="15.130348992022011"><ele>597.6666666666666</ele><time>2026-04-12T05:16:16Z</time></trkpt><trkpt lat="41.23186321455047" lon="15.130370540216436"><ele>596.8333333333333</ele><time>2026-04-12T05:16:18.001Z</time></trkpt><trkpt lat="41.23194343897088" lon="15.130408370123192"><ele>596.0</ele><time>2026-04-12T05:16:20.001Z</time></trkpt><trkpt lat="41.23202379586336" lon="15.130452347425763"><ele>596.0</ele><time>2026-04-12T05:16:22.001Z</time></trkpt><trkpt lat="41.23209772963942" lon="15.13050172625741"><ele>596.0</ele><time>2026-04-12T05:16:24.001Z</time></trkpt><trkpt lat="41.23215518446726" lon="15.1305560866829"><ele>596.0</ele><time>2026-04-12T05:16:26.001Z</time></trkpt><trkpt lat="41.23222985583218" lon="15.130620675817127"><ele>596.0</ele><time>2026-04-12T05:16:29.001Z</time></trkpt><trkpt lat="41.232299832562525" lon="15.130689367490529"><ele>596.0</ele><time>2026-04-12T05:16:32.001Z</time></trkpt><trkpt lat="41.23237735136538" lon="15.130740637148879"><ele>596.0</ele><time>2026-04-12T05:16:35.001Z</time></trkpt><trkpt lat="41.232455085327146" lon="15.130798503750738"><ele>595.1666666666666</ele><time>2026-04-12T05:16:38.001Z</time></trkpt><trkpt lat="41.23251922407143" lon="15.130869885607332"><ele>594.3333333333333</ele><time>2026-04-12T05:16:41.001Z</time></trkpt><trkpt lat="41.23259323455572" lon="15.130931636435575"><ele>593.5</ele><time>2026-04-12T05:16:44.001Z</time></trkpt><trkpt lat="41.2326404707037" lon="15.13099991200208"><ele>592.6666666666666</ele><time>2026-04-12T05:16:46.001Z</time></trkpt><trkpt lat="41.23268769660612" lon="15.131080371431905"><ele>591.8333333333334</ele><time>2026-04-12T05:16:48.001Z</time></trkpt><trkpt lat="41.23276499381363" lon="15.131175682680636"><ele>591.0</ele><time>2026-04-12T05:16:50.001Z</time></trkpt><trkpt lat="41.232845994991216" lon="15.131276438656775"><ele>591.0</ele><time>2026-04-12T05:16:52.001Z</time></trkpt><trkpt lat="41.232935772512036" lon="15.131350986165076"><ele>591.0</ele><time>2026-04-12T05:16:54.001Z</time></trkpt><trkpt lat="41.233032121016265" lon="15.131424166801011"><ele>591.0</ele><time>2026-04-12T05:16:56.001Z</time></trkpt><trkpt lat="41.233131999698394" lon="15.131505813060924"><ele>591.0</ele><time>2026-04-12T05:16:58.001Z</time></trkpt><trkpt lat="41.23323275354473" lon="15.131611372029992"><ele>589.5</ele><time>2026-04-12T05:17:00.001Z</time></trkpt><trkpt lat="41.23332311566738" lon="15.131723525905915"><ele>588.0</ele><time>2026-04-12T05:17:02.001Z</time></trkpt><trkpt lat="41.2334057316264" lon="15.131830624007991"><ele>586.5</ele><time>2026-04-12T05:17:04.001Z</time></trkpt><trkpt lat="41.23349743094696" lon="15.131926121633592"><ele>585.0</ele><time>2026-04-12T05:17:06.001Z</time></trkpt><trkpt lat="41.233594639000216" lon="15.13202068824139"><ele>585.0</ele><time>2026-04-12T05:17:08.001Z</time></trkpt><trkpt lat="41.2336972562084" lon="15.132100060433793"><ele>585.0</ele><time>2026-04-12T05:17:10Z</time></trkpt><trkpt lat="41.233758988457865" lon="15.132144036110775"><ele>585.0</ele><time>2026-04-12T05:17:11Z</time></trkpt><trkpt lat="41.23386174817109" lon="15.132201126858915"><ele>585.0</ele><time>2026-04-12T05:17:13Z</time></trkpt><trkpt lat="41.233922553774434" lon="15.132230999570265"><ele>585.0</ele><time>2026-04-12T05:17:14Z</time></trkpt><trkpt lat="41.23398378427639" lon="15.132255194022243"><ele>585.0</ele><time>2026-04-12T05:17:15Z</time></trkpt><trkpt lat="41.23408952903709" lon="15.132297726365717"><ele>586.4</ele><time>2026-04-12T05:17:17Z</time></trkpt><trkpt lat="41.23419095590879" lon="15.132354052571568"><ele>587.8</ele><time>2026-04-12T05:17:19Z</time></trkpt><trkpt lat="41.234307082533384" lon="15.132410762238257"><ele>589.2</ele><time>2026-04-12T05:17:21Z</time></trkpt><trkpt lat="41.23440328091209" lon="15.132460955365564"><ele>590.6</ele><time>2026-04-12T05:17:23Z</time></trkpt><trkpt lat="41.23449128026899" lon="15.13249623095566"><ele>592.0</ele><time>2026-04-12T05:17:25Z</time></trkpt><trkpt lat="41.234593690290986" lon="15.132537521396246"><ele>592.6</ele><time>2026-04-12T05:17:27Z</time></trkpt><trkpt lat="41.234698782163896" lon="15.132590418997925"><ele>593.2</ele><time>2026-04-12T05:17:29Z</time></trkpt><trkpt lat="41.234793981041804" lon="15.132640491935817"><ele>593.8</ele><time>2026-04-12T05:17:31Z</time></trkpt><trkpt lat="41.23488151595112" lon="15.132710778714289"><ele>594.4</ele><time>2026-04-12T05:17:33Z</time></trkpt><trkpt lat="41.23496559032352" lon="15.132808173327213"><ele>595.0</ele><time>2026-04-12T05:17:35Z</time></trkpt><trkpt lat="41.235043607309414" lon="15.13291166862271"><ele>596.0</ele><time>2026-04-12T05:17:37Z</time></trkpt><trkpt lat="41.235132292873296" lon="15.133019756051045"><ele>597.0</ele><time>2026-04-12T05:17:39Z</time></trkpt><trkpt lat="41.23521551880491" lon="15.133113872616162"><ele>598.0</ele><time>2026-04-12T05:17:41Z</time></trkpt><trkpt lat="41.235288000487614" lon="15.133195262291688"><ele>599.0</ele><time>2026-04-12T05:17:43Z</time></trkpt><trkpt lat="41.235389084464096" lon="15.133260968808441"><ele>600.0</ele><time>2026-04-12T05:17:45Z</time></trkpt><trkpt lat="41.235485870580106" lon="15.133310212867295"><ele>601.6</ele><time>2026-04-12T05:17:47Z</time></trkpt><trkpt lat="41.235594560605506" lon="15.133352864963287"><ele>603.2</ele><time>2026-04-12T05:17:49Z</time></trkpt><trkpt lat="41.235702312685994" lon="15.133400188287887"><ele>604.8</ele><time>2026-04-12T05:17:51Z</time></trkpt><trkpt lat="41.23581404056294" lon="15.133474617249052"><ele>606.4</ele><time>2026-04-12T05:17:53Z</time></trkpt><trkpt lat="41.23587055599164" lon="15.133521177043603"><ele>608.0</ele><time>2026-04-12T05:17:54Z</time></trkpt><trkpt lat="41.23593137377881" lon="15.133569381414128"><ele>608.5714285714286</ele><time>2026-04-12T05:17:55Z</time></trkpt><trkpt lat="41.23599684464489" lon="15.133615980420933"><ele>609.1428571428572</ele><time>2026-04-12T05:17:56Z</time></trkpt><trkpt lat="41.23605993138254" lon="15.133664413092939"><ele>609.7142857142858</ele><time>2026-04-12T05:17:57Z</time></trkpt><trkpt lat="41.236117978605385" lon="15.133715004602767"><ele>610.2857142857142</ele><time>2026-04-12T05:17:58Z</time></trkpt><trkpt lat="41.236176825232306" lon="15.133765169500816"><ele>610.8571428571429</ele><time>2026-04-12T05:17:59Z</time></trkpt><trkpt lat="41.236240166753824" lon="15.133817747668928"><ele>611.4285714285714</ele><time>2026-04-12T05:18:00Z</time></trkpt><trkpt lat="41.23630342254341" lon="15.133868159561166"><ele>612.0</ele><time>2026-04-12T05:18:01Z</time></trkpt><trkpt lat="41.236355298424186" lon="15.133933414636948"><ele>612.0</ele><time>2026-04-12T05:18:02Z</time></trkpt><trkpt lat="41.2364191933397" lon="15.133987353639872"><ele>612.0</ele><time>2026-04-12T05:18:03Z</time></trkpt><trkpt lat="41.236481565681885" lon="15.134031323831014"><ele>612.0</ele><time>2026-04-12T05:18:04Z</time></trkpt><trkpt lat="41.23654051953383" lon="15.134078037699636"><ele>612.0</ele><time>2026-04-12T05:18:05Z</time></trkpt><trkpt lat="41.23660007659739" lon="15.134133261782567"><ele>612.0</ele><time>2026-04-12T05:18:06Z</time></trkpt><trkpt lat="41.236656468571915" lon="15.134185221340152"><ele>612.0</ele><time>2026-04-12T05:18:07Z</time></trkpt><trkpt lat="41.23671020378941" lon="15.134233988423919"><ele>612.0</ele><time>2026-04-12T05:18:08Z</time></trkpt><trkpt lat="41.23676711935438" lon="15.13428402196535"><ele>613.0</ele><time>2026-04-12T05:18:09Z</time></trkpt><trkpt lat="41.236822064642126" lon="15.13433691854462"><ele>614.0</ele><time>2026-04-12T05:18:10Z</time></trkpt><trkpt lat="41.23687989821029" lon="15.134386499161549"><ele>615.0</ele><time>2026-04-12T05:18:11Z</time></trkpt><trkpt lat="41.2369440296708" lon="15.13444039103372"><ele>616.0</ele><time>2026-04-12T05:18:12Z</time></trkpt><trkpt lat="41.23699527830462" lon="15.134492244898587"><ele>617.0</ele><time>2026-04-12T05:18:13Z</time></trkpt><trkpt lat="41.23710732157155" lon="15.134586274115037"><ele>618.0</ele><time>2026-04-12T05:18:15Z</time></trkpt><trkpt lat="41.23720926747236" lon="15.134675366369185"><ele>618.6</ele><time>2026-04-12T05:18:17Z</time></trkpt><trkpt lat="41.23733872802825" lon="15.134765656290334"><ele>619.1999999999999</ele><time>2026-04-12T05:18:19Z</time></trkpt><trkpt lat="41.23743184085986" lon="15.13485453016483"><ele>619.8</ele><time>2026-04-12T05:18:21Z</time></trkpt><trkpt lat="41.237486181523415" lon="15.134898227297425"><ele>620.4</ele><time>2026-04-12T05:18:22Z</time></trkpt><trkpt lat="41.2375843015604" lon="15.134986486839368"><ele>621.0</ele><time>2026-04-12T05:18:24Z</time></trkpt><trkpt lat="41.23767369045339" lon="15.135054184190565"><ele>621.8333333333334</ele><time>2026-04-12T05:18:26Z</time></trkpt><trkpt lat="41.237761463313866" lon="15.135147276715768"><ele>622.6666666666666</ele><time>2026-04-12T05:18:28Z</time></trkpt><trkpt lat="41.23780863432679" lon="15.135203278566463"><ele>623.5</ele><time>2026-04-12T05:18:29Z</time></trkpt><trkpt lat="41.23786404466183" lon="15.135257470617972"><ele>624.3333333333333</ele><time>2026-04-12T05:18:30Z</time></trkpt><trkpt lat="41.23791743770769" lon="15.135306500169218"><ele>625.1666666666666</ele><time>2026-04-12T05:18:31Z</time></trkpt><trkpt lat="41.23802472979814" lon="15.13538044059428"><ele>626.0</ele><time>2026-04-12T05:18:33Z</time></trkpt><trkpt lat="41.23812016114357" lon="15.13546669979125"><ele>627.5</ele><time>2026-04-12T05:18:35.001Z</time></trkpt><trkpt lat="41.238223842214566" lon="15.135559500322875"><ele>629.0</ele><time>2026-04-12T05:18:37.001Z</time></trkpt><trkpt lat="41.238320546573526" lon="15.135651138006988"><ele>630.5</ele><time>2026-04-12T05:18:39.001Z</time></trkpt><trkpt lat="41.23841948370982" lon="15.135741709243488"><ele>632.0</ele><time>2026-04-12T05:18:41.001Z</time></trkpt><trkpt lat="41.238520373889294" lon="15.135825982344146"><ele>632.4</ele><time>2026-04-12T05:18:43.001Z</time></trkpt><trkpt lat="41.238614442753246" lon="15.1359054655887"><ele>632.8000000000001</ele><time>2026-04-12T05:18:45.001Z</time></trkpt><trkpt lat="41.238709176477016" lon="15.135968779204838"><ele>633.2</ele><time>2026-04-12T05:18:47.001Z</time></trkpt><trkpt lat="41.23880210300715" lon="15.136055279085314"><ele>633.6</ele><time>2026-04-12T05:18:49.001Z</time></trkpt><trkpt lat="41.23889471496074" lon="15.136134304279881"><ele>634.0</ele><time>2026-04-12T05:18:51.001Z</time></trkpt><trkpt lat="41.23898716113304" lon="15.13621678164898"><ele>634.6</ele><time>2026-04-12T05:18:53.001Z</time></trkpt><trkpt lat="41.23906686135961" lon="15.136291620805366"><ele>635.2</ele><time>2026-04-12T05:18:55.001Z</time></trkpt><trkpt lat="41.2391452394917" lon="15.136350999672551"><ele>635.8000000000001</ele><time>2026-04-12T05:18:57.001Z</time></trkpt><trkpt lat="41.23923084469032" lon="15.13640031443526"><ele>636.4</ele><time>2026-04-12T05:18:59.001Z</time></trkpt><trkpt lat="41.239319464858674" lon="15.136452382741885"><ele>637.0</ele><time>2026-04-12T05:19:01.001Z</time></trkpt><trkpt lat="41.23938730988688" lon="15.136494634319957"><ele>637.0</ele><time>2026-04-12T05:19:03.001Z</time></trkpt><trkpt lat="41.23946927547081" lon="15.136539581480525"><ele>637.0</ele><time>2026-04-12T05:19:05.001Z</time></trkpt><trkpt lat="41.239575539628056" lon="15.136604235110836"><ele>637.0</ele><time>2026-04-12T05:19:07.001Z</time></trkpt><trkpt lat="41.23963444952859" lon="15.136640316962957"><ele>637.0</ele><time>2026-04-12T05:19:08.001Z</time></trkpt><trkpt lat="41.239743793628435" lon="15.13670357704089"><ele>637.0</ele><time>2026-04-12T05:19:10.001Z</time></trkpt><trkpt lat="41.23980747629188" lon="15.136736541882758"><ele>639.0</ele><time>2026-04-12T05:19:11.001Z</time></trkpt><trkpt lat="41.23986951951575" lon="15.136768934311613"><ele>641.0</ele><time>2026-04-12T05:19:12.001Z</time></trkpt><trkpt lat="41.23998250834357" lon="15.136832930967472"><ele>643.0</ele><time>2026-04-12T05:19:14.001Z</time></trkpt><trkpt lat="41.24008680148614" lon="15.136902124746165"><ele>645.0</ele><time>2026-04-12T05:19:16Z</time></trkpt><trkpt lat="41.24019882266189" lon="15.136984118367044"><ele>647.0</ele><time>2026-04-12T05:19:18Z</time></trkpt><trkpt lat="41.240289935881194" lon="15.137051134089221"><ele>647.0</ele><time>2026-04-12T05:19:20Z</time></trkpt><trkpt lat="41.24038205061063" lon="15.13711577398099"><ele>647.0</ele><time>2026-04-12T05:19:22Z</time></trkpt><trkpt lat="41.24049264649041" lon="15.137167976738091"><ele>647.0</ele><time>2026-04-12T05:19:24Z</time></trkpt><trkpt lat="41.240602470126426" lon="15.137216008373802"><ele>647.0</ele><time>2026-04-12T05:19:26Z</time></trkpt><trkpt lat="41.24070851932526" lon="15.137274611289087"><ele>648.5</ele><time>2026-04-12T05:19:28Z</time></trkpt><trkpt lat="41.24082536337749" lon="15.137319220301073"><ele>650.0</ele><time>2026-04-12T05:19:30Z</time></trkpt><trkpt lat="41.240944671030874" lon="15.13734779684303"><ele>651.5</ele><time>2026-04-12T05:19:32Z</time></trkpt><trkpt lat="41.2410507587537" lon="15.137387428920873"><ele>653.0</ele><time>2026-04-12T05:19:34Z</time></trkpt><trkpt lat="41.241151479636976" lon="15.13743707282674"><ele>653.5999999999999</ele><time>2026-04-12T05:19:36Z</time></trkpt><trkpt lat="41.24124506713953" lon="15.137506284055043"><ele>654.1999999999999</ele><time>2026-04-12T05:19:38Z</time></trkpt><trkpt lat="41.24135023060315" lon="15.13756593975338"><ele>654.8</ele><time>2026-04-12T05:19:40Z</time></trkpt><trkpt lat="41.241465334781566" lon="15.137617600532383"><ele>655.4</ele><time>2026-04-12T05:19:42Z</time></trkpt><trkpt lat="41.24152651521069" lon="15.13764025754006"><ele>656.0</ele><time>2026-04-12T05:19:43Z</time></trkpt><trkpt lat="41.241589564586654" lon="15.137643192238503"><ele>657.1999999999999</ele><time>2026-04-12T05:19:44Z</time></trkpt><trkpt lat="41.241710896878274" lon="15.137698104349392"><ele>658.4</ele><time>2026-04-12T05:19:46Z</time></trkpt><trkpt lat="41.24177264985169" lon="15.137722191989116"><ele>659.6</ele><time>2026-04-12T05:19:47Z</time></trkpt><trkpt lat="41.24183678547996" lon="15.137748612523254"><ele>660.8</ele><time>2026-04-12T05:19:48Z</time></trkpt><trkpt lat="41.241958287274095" lon="15.137806542832479"><ele>662.0</ele><time>2026-04-12T05:19:50Z</time></trkpt><trkpt lat="41.242016100630536" lon="15.137846523294426"><ele>662.0</ele><time>2026-04-12T05:19:51Z</time></trkpt><trkpt lat="41.24207810676121" lon="15.137883501968766"><ele>662.0</ele><time>2026-04-12T05:19:52Z</time></trkpt><trkpt lat="41.24213820377238" lon="15.137915479212294"><ele>662.0</ele><time>2026-04-12T05:19:53Z</time></trkpt><trkpt lat="41.24220207360407" lon="15.137949054250601"><ele>662.0</ele><time>2026-04-12T05:19:54Z</time></trkpt><trkpt lat="41.24226311444046" lon="15.137983534323057"><ele>662.0</ele><time>2026-04-12T05:19:55Z</time></trkpt><trkpt lat="41.242325215442555" lon="15.138014074076194"><ele>662.0</ele><time>2026-04-12T05:19:56Z</time></trkpt><trkpt lat="41.24238801973076" lon="15.138045861061517"><ele>662.0</ele><time>2026-04-12T05:19:57Z</time></trkpt><trkpt lat="41.24245156994963" lon="15.138080987916565"><ele>662.5714285714286</ele><time>2026-04-12T05:19:58Z</time></trkpt><trkpt lat="41.24251181265753" lon="15.138112513218829"><ele>663.1428571428571</ele><time>2026-04-12T05:19:59Z</time></trkpt><trkpt lat="41.24257307962763" lon="15.138148305130812"><ele>663.7142857142858</ele><time>2026-04-12T05:20:00Z</time></trkpt><trkpt lat="41.24263372925349" lon="15.138183737163443"><ele>664.2857142857142</ele><time>2026-04-12T05:20:01Z</time></trkpt><trkpt lat="41.242698333354575" lon="15.138219539527169"><ele>664.8571428571428</ele><time>2026-04-12T05:20:02Z</time></trkpt><trkpt lat="41.24276354560635" lon="15.138251377333415"><ele>665.4285714285714</ele><time>2026-04-12T05:20:03Z</time></trkpt><trkpt lat="41.24282298526368" lon="15.138285358692903"><ele>666.0</ele><time>2026-04-12T05:20:04Z</time></trkpt><trkpt lat="41.24292865233344" lon="15.138347576960065"><ele>667.1999999999999</ele><time>2026-04-12T05:20:06Z</time></trkpt><trkpt lat="41.24302560446922" lon="15.138408087077838"><ele>668.4</ele><time>2026-04-12T05:20:08Z</time></trkpt><trkpt lat="41.24311233249012" lon="15.138461345398031"><ele>669.6</ele><time>2026-04-12T05:20:10Z</time></trkpt><trkpt lat="41.24321981666341" lon="15.138484809256095"><ele>670.8</ele><time>2026-04-12T05:20:12Z</time></trkpt><trkpt lat="41.243336153708974" lon="15.13848187044393"><ele>672.0</ele><time>2026-04-12T05:20:14Z</time></trkpt><trkpt lat="41.24343448216532" lon="15.13848176629956"><ele>673.25</ele><time>2026-04-12T05:20:16Z</time></trkpt><trkpt lat="41.24355744888073" lon="15.138442139865264"><ele>674.5</ele><time>2026-04-12T05:20:18Z</time></trkpt><trkpt lat="41.24366836372195" lon="15.13840775491863"><ele>675.75</ele><time>2026-04-12T05:20:20Z</time></trkpt><trkpt lat="41.243784730256756" lon="15.138374218563648"><ele>677.0</ele><time>2026-04-12T05:20:22Z</time></trkpt><trkpt lat="41.24389735228729" lon="15.138353648256805"><ele>678.4000000000001</ele><time>2026-04-12T05:20:24Z</time></trkpt><trkpt lat="41.24401243440505" lon="15.138342278430692"><ele>679.8000000000001</ele><time>2026-04-12T05:20:26Z</time></trkpt><trkpt lat="41.24411293946387" lon="15.138326141433144"><ele>681.2</ele><time>2026-04-12T05:20:28Z</time></trkpt><trkpt lat="41.24422366002053" lon="15.138322493643637"><ele>682.6</ele><time>2026-04-12T05:20:30Z</time></trkpt><trkpt lat="41.244286733685406" lon="15.138325378089746"><ele>684.0</ele><time>2026-04-12T05:20:32Z</time></trkpt><trkpt lat="41.24442541628422" lon="15.138309148660495"><ele>684.0</ele><time>2026-04-12T05:20:34.001Z</time></trkpt><trkpt lat="41.24454627736088" lon="15.1382986985882"><ele>684.0</ele><time>2026-04-12T05:20:36.001Z</time></trkpt><trkpt lat="41.24466280552725" lon="15.138243832368591"><ele>684.0</ele><time>2026-04-12T05:20:38.001Z</time></trkpt><trkpt lat="41.24475582535325" lon="15.138178650197771"><ele>684.0</ele><time>2026-04-12T05:20:40.001Z</time></trkpt><trkpt lat="41.244818653957076" lon="15.13811914039729"><ele>684.0</ele><time>2026-04-12T05:20:42.001Z</time></trkpt><trkpt lat="41.24488132834048" lon="15.138097303240551"><ele>684.0</ele><time>2026-04-12T05:20:44.001Z</time></trkpt><trkpt lat="41.24493707144211" lon="15.138050255011308"><ele>684.0</ele><time>2026-04-12T05:20:47.001Z</time></trkpt><trkpt lat="41.24499839286598" lon="15.13802181119487"><ele>684.0</ele><time>2026-04-12T05:21:13.001Z</time></trkpt><trkpt lat="41.24491845007746" lon="15.138051900102456"><ele>684.0</ele><time>2026-04-12T05:22:11Z</time></trkpt><trkpt lat="41.244839527566945" lon="15.138106293748134"><ele>684.0</ele><time>2026-04-12T05:22:14Z</time></trkpt><trkpt lat="41.244785996461346" lon="15.138160143022233"><ele>684.0</ele><time>2026-04-12T05:22:17Z</time></trkpt><trkpt lat="41.2447029605608" lon="15.138218635748682"><ele>684.0</ele><time>2026-04-12T05:22:20Z</time></trkpt><trkpt lat="41.244624770059566" lon="15.138256459420843"><ele>684.0</ele><time>2026-04-12T05:22:23Z</time></trkpt><trkpt lat="41.24454103072504" lon="15.138284929142845"><ele>684.0</ele><time>2026-04-12T05:22:26Z</time></trkpt><trkpt lat="41.244463954839794" lon="15.138300180410898"><ele>684.0</ele><time>2026-04-12T05:22:29Z</time></trkpt><trkpt lat="41.244389243252435" lon="15.138319183623342"><ele>684.0</ele><time>2026-04-12T05:22:32Z</time></trkpt><trkpt lat="41.24431203670637" lon="15.138328327383554"><ele>684.0</ele><time>2026-04-12T05:22:35Z</time></trkpt><trkpt lat="41.24422722116856" lon="15.13833440200252"><ele>684.0</ele><time>2026-04-12T05:22:38Z</time></trkpt><trkpt lat="41.24414942271358" lon="15.138340131393095"><ele>684.0</ele><time>2026-04-12T05:22:41Z</time></trkpt><trkpt lat="41.24407126197932" lon="15.138345887453257"><ele>684.0</ele><time>2026-04-12T05:22:44.001Z</time></trkpt><trkpt lat="41.243984332088345" lon="15.138352289271383"><ele>684.0</ele><time>2026-04-12T05:22:47.001Z</time></trkpt><trkpt lat="41.243901924253514" lon="15.138370343139547"><ele>684.0</ele><time>2026-04-12T05:22:50.001Z</time></trkpt><trkpt lat="41.24381970036273" lon="15.138386294442718"><ele>684.0</ele><time>2026-04-12T05:22:53.001Z</time></trkpt><trkpt lat="41.24372326075031" lon="15.137951046073866"><ele>682.9999999999999</ele><time>2026-04-12T05:22:56.001Z</time></trkpt><trkpt lat="41.2436780832185" lon="15.137877753194548"><ele>682.0</ele><time>2026-04-12T05:22:58.001Z</time></trkpt><trkpt lat="41.24363624286931" lon="15.13780258372584"><ele>681.0</ele><time>2026-04-12T05:23:00.001Z</time></trkpt><trkpt lat="41.24360408163018" lon="15.137720059408636"><ele>680.0</ele><time>2026-04-12T05:23:02.001Z</time></trkpt><trkpt lat="41.24358540470466" lon="15.137634805715283"><ele>679.0</ele><time>2026-04-12T05:23:04.001Z</time></trkpt><trkpt lat="41.243581999129134" lon="15.137544208560566"><ele>677.9999999999999</ele><time>2026-04-12T05:23:06.001Z</time></trkpt><trkpt lat="41.24358594113854" lon="15.137451581619034"><ele>677.0</ele><time>2026-04-12T05:23:08.001Z</time></trkpt><trkpt lat="41.24359781034548" lon="15.13736013917025"><ele>676.2857142857142</ele><time>2026-04-12T05:23:10.001Z</time></trkpt><trkpt lat="41.24361878710267" lon="15.137262914742061"><ele>675.5714285714286</ele><time>2026-04-12T05:23:12.001Z</time></trkpt><trkpt lat="41.24364537536644" lon="15.137173247946848"><ele>674.8571428571429</ele><time>2026-04-12T05:23:14.001Z</time></trkpt><trkpt lat="41.24366290886454" lon="15.137085053101192"><ele>674.1428571428571</ele><time>2026-04-12T05:23:16.001Z</time></trkpt><trkpt lat="41.243711861306586" lon="15.137003855187146"><ele>673.4285714285714</ele><time>2026-04-12T05:23:18.001Z</time></trkpt><trkpt lat="41.24374327098363" lon="15.136922735187312"><ele>672.7142857142857</ele><time>2026-04-12T05:23:20.001Z</time></trkpt><trkpt lat="41.24376385264885" lon="15.136825325076654"><ele>672.0</ele><time>2026-04-12T05:23:22.001Z</time></trkpt><trkpt lat="41.24378954688127" lon="15.136729978233648"><ele>672.0</ele><time>2026-04-12T05:23:24.001Z</time></trkpt><trkpt lat="41.24382272803234" lon="15.136643535838001"><ele>672.0</ele><time>2026-04-12T05:23:26.001Z</time></trkpt><trkpt lat="41.24382785551958" lon="15.136518779432889"><ele>672.0</ele><time>2026-04-12T05:23:28Z</time></trkpt><trkpt lat="41.24381914063957" lon="15.136431753917321"><ele>672.0</ele><time>2026-04-12T05:23:30Z</time></trkpt><trkpt lat="41.243814645152675" lon="15.136340529115918"><ele>672.0</ele><time>2026-04-12T05:23:32Z</time></trkpt><trkpt lat="41.243814168093124" lon="15.136249833614844"><ele>672.0</ele><time>2026-04-12T05:23:34Z</time></trkpt><trkpt lat="41.24381831218576" lon="15.136149103055175"><ele>672.0</ele><time>2026-04-12T05:23:36Z</time></trkpt><trkpt lat="41.24384005776438" lon="15.13602366978255"><ele>671.4285714285714</ele><time>2026-04-12T05:23:39Z</time></trkpt><trkpt lat="41.243863206745075" lon="15.135942261694087"><ele>670.8571428571429</ele><time>2026-04-12T05:23:41Z</time></trkpt><trkpt lat="41.24390077848052" lon="15.135858770047882"><ele>670.2857142857142</ele><time>2026-04-12T05:23:43Z</time></trkpt><trkpt lat="41.24391824959872" lon="15.135767824534119"><ele>669.7142857142858</ele><time>2026-04-12T05:23:45Z</time></trkpt><trkpt lat="41.243965698916284" lon="15.135688591099875"><ele>669.1428571428571</ele><time>2026-04-12T05:23:47Z</time></trkpt><trkpt lat="41.24398500936199" lon="15.13559202190533"><ele>668.5714285714286</ele><time>2026-04-12T05:23:49Z</time></trkpt><trkpt lat="41.244027430257304" lon="15.135508481734103"><ele>668.0</ele><time>2026-04-12T05:23:51Z</time></trkpt><trkpt lat="41.244037556682045" lon="15.135413851632944"><ele>667.8333333333333</ele><time>2026-04-12T05:23:53Z</time></trkpt><trkpt lat="41.24405593239655" lon="15.135326158223013"><ele>667.6666666666666</ele><time>2026-04-12T05:23:55Z</time></trkpt><trkpt lat="41.24406715543382" lon="15.135233120689314"><ele>667.5</ele><time>2026-04-12T05:23:57Z</time></trkpt><trkpt lat="41.24408080028712" lon="15.135130783123463"><ele>667.3333333333334</ele><time>2026-04-12T05:23:59Z</time></trkpt><trkpt lat="41.24410421729581" lon="15.135022046841815"><ele>667.1666666666667</ele><time>2026-04-12T05:24:02Z</time></trkpt><trkpt lat="41.24413671101056" lon="15.134946805821395"><ele>667.0</ele><time>2026-04-12T05:24:04Z</time></trkpt><trkpt lat="41.244151639753255" lon="15.134824850830999"><ele>666.1666666666667</ele><time>2026-04-12T05:24:07Z</time></trkpt><trkpt lat="41.24418288048678" lon="15.134730543591703"><ele>665.3333333333334</ele><time>2026-04-12T05:24:10Z</time></trkpt><trkpt lat="41.244219346029766" lon="15.134632420530705"><ele>664.5</ele><time>2026-04-12T05:24:13Z</time></trkpt><trkpt lat="41.24426710155777" lon="15.134541202471201"><ele>663.6666666666666</ele><time>2026-04-12T05:24:16Z</time></trkpt><trkpt lat="41.244322855229846" lon="15.134466607565184"><ele>662.8333333333333</ele><time>2026-04-12T05:24:19Z</time></trkpt><trkpt lat="41.2443639464069" lon="15.134374029362867"><ele>662.0</ele><time>2026-04-12T05:24:22Z</time></trkpt><trkpt lat="41.244420109818954" lon="15.134300413259659"><ele>662.0</ele><time>2026-04-12T05:24:25Z</time></trkpt><trkpt lat="41.24448138851256" lon="15.134227763011303"><ele>662.0</ele><time>2026-04-12T05:24:28Z</time></trkpt><trkpt lat="41.2445506896097" lon="15.13416357663331"><ele>662.0</ele><time>2026-04-12T05:24:31Z</time></trkpt><trkpt lat="41.244623776385076" lon="15.134104057295152"><ele>662.0</ele><time>2026-04-12T05:24:34Z</time></trkpt><trkpt lat="41.24469922608412" lon="15.13404450211719"><ele>662.0</ele><time>2026-04-12T05:24:37Z</time></trkpt><trkpt lat="41.24475633138542" lon="15.13400824301185"><ele>662.0</ele><time>2026-04-12T05:24:39Z</time></trkpt><trkpt lat="41.24481520432133" lon="15.13397054602949"><ele>661.0</ele><time>2026-04-12T05:24:41Z</time></trkpt><trkpt lat="41.24489587771502" lon="15.133916281990087"><ele>660.0</ele><time>2026-04-12T05:24:44Z</time></trkpt><trkpt lat="41.24497511005543" lon="15.133865693097192"><ele>659.0</ele><time>2026-04-12T05:24:47Z</time></trkpt><trkpt lat="41.24505813701547" lon="15.133832128571802"><ele>658.0</ele><time>2026-04-12T05:24:50Z</time></trkpt><trkpt lat="41.245121526873376" lon="15.133804101468673"><ele>657.0</ele><time>2026-04-12T05:24:52Z</time></trkpt><trkpt lat="41.245189210027924" lon="15.133800056299387"><ele>656.0</ele><time>2026-04-12T05:24:54Z</time></trkpt><trkpt lat="41.245255721593495" lon="15.133775866920775"><ele>655.9999999999999</ele><time>2026-04-12T05:24:56.001Z</time></trkpt><trkpt lat="41.24532061668819" lon="15.133740175300815"><ele>656.0</ele><time>2026-04-12T05:24:58.001Z</time></trkpt><trkpt lat="41.245380774527135" lon="15.133695624865688"><ele>656.0</ele><time>2026-04-12T05:25:00.001Z</time></trkpt><trkpt lat="41.24544213024713" lon="15.13362774755168"><ele>656.0</ele><time>2026-04-12T05:25:02.001Z</time></trkpt><trkpt lat="41.245490538726735" lon="15.133549180702973"><ele>656.0</ele><time>2026-04-12T05:25:04.001Z</time></trkpt><trkpt lat="41.24552231750987" lon="15.133466844161639"><ele>655.9999999999999</ele><time>2026-04-12T05:25:06.001Z</time></trkpt><trkpt lat="41.245544622958086" lon="15.13337606267479"><ele>656.0</ele><time>2026-04-12T05:25:08.001Z</time></trkpt><trkpt lat="41.245545774639716" lon="15.133256025831313"><ele>655.5714285714286</ele><time>2026-04-12T05:25:11.001Z</time></trkpt><trkpt lat="41.2455661848248" lon="15.133149601219243"><ele>655.1428571428571</ele><time>2026-04-12T05:25:14.001Z</time></trkpt><trkpt lat="41.24559596492459" lon="15.133064400161837"><ele>654.7142857142858</ele><time>2026-04-12T05:25:16.001Z</time></trkpt><trkpt lat="41.24560132579648" lon="15.132971919596987"><ele>654.2857142857142</ele><time>2026-04-12T05:25:18.001Z</time></trkpt><trkpt lat="41.24562204445004" lon="15.132849844801603"><ele>653.8571428571429</ele><time>2026-04-12T05:25:21.001Z</time></trkpt><trkpt lat="41.24564241553615" lon="15.13276625264702"><ele>653.4285714285714</ele><time>2026-04-12T05:25:23.001Z</time></trkpt><trkpt lat="41.24566252152497" lon="15.132684115520938"><ele>653.0</ele><time>2026-04-12T05:25:25.001Z</time></trkpt><trkpt lat="41.24568777295449" lon="15.132593915303486"><ele>653.0</ele><time>2026-04-12T05:25:27.001Z</time></trkpt><trkpt lat="41.2457146891898" lon="15.132484736359912"><ele>653.0</ele><time>2026-04-12T05:25:30.001Z</time></trkpt><trkpt lat="41.245757566810695" lon="15.132369922424548"><ele>653.0</ele><time>2026-04-12T05:25:33.001Z</time></trkpt><trkpt lat="41.24578665337369" lon="15.132283236515491"><ele>653.0</ele><time>2026-04-12T05:25:35Z</time></trkpt><trkpt lat="41.24581489617084" lon="15.132192615916342"><ele>653.0</ele><time>2026-04-12T05:25:37Z</time></trkpt><trkpt lat="41.245834712622894" lon="15.132109374827403"><ele>653.0</ele><time>2026-04-12T05:25:39Z</time></trkpt><trkpt lat="41.2458530349438" lon="15.132021950862173"><ele>652.1428571428572</ele><time>2026-04-12T05:25:41Z</time></trkpt><trkpt lat="41.245865961951004" lon="15.13192933069667"><ele>651.2857142857143</ele><time>2026-04-12T05:25:43Z</time></trkpt><trkpt lat="41.24587887656536" lon="15.131842416854775"><ele>650.4285714285714</ele><time>2026-04-12T05:25:45Z</time></trkpt><trkpt lat="41.245883665632746" lon="15.13175015648675"><ele>649.5714285714287</ele><time>2026-04-12T05:25:47Z</time></trkpt><trkpt lat="41.245890950441584" lon="15.131658699543094"><ele>648.7142857142858</ele><time>2026-04-12T05:25:49Z</time></trkpt><trkpt lat="41.245897913217405" lon="15.131563880119058"><ele>647.8571428571429</ele><time>2026-04-12T05:25:51Z</time></trkpt><trkpt lat="41.24592589836327" lon="15.131444168859717"><ele>647.0</ele><time>2026-04-12T05:25:54Z</time></trkpt><trkpt lat="41.245947874019585" lon="15.131351801648941"><ele>646.1428571428571</ele><time>2026-04-12T05:25:56Z</time></trkpt><trkpt lat="41.24597383967039" lon="15.131266292793379"><ele>645.2857142857143</ele><time>2026-04-12T05:25:58Z</time></trkpt><trkpt lat="41.246004854593465" lon="15.13118840850432"><ele>644.4285714285714</ele><time>2026-04-12T05:26:00Z</time></trkpt><trkpt lat="41.24602576160654" lon="15.131098821432243"><ele>643.5714285714286</ele><time>2026-04-12T05:26:02Z</time></trkpt><trkpt lat="41.2460704162851" lon="15.131022889355105"><ele>642.7142857142857</ele><time>2026-04-12T05:26:04Z</time></trkpt><trkpt lat="41.246121923020674" lon="15.130944787750883"><ele>641.8571428571429</ele><time>2026-04-12T05:26:06Z</time></trkpt><trkpt lat="41.24617059703692" lon="15.130866886205917"><ele>641.0</ele><time>2026-04-12T05:26:08Z</time></trkpt><trkpt lat="41.24622256920258" lon="15.130791445691962"><ele>641.0</ele><time>2026-04-12T05:26:10Z</time></trkpt><trkpt lat="41.246272177879554" lon="15.130725620127778"><ele>641.0</ele><time>2026-04-12T05:26:12Z</time></trkpt><trkpt lat="41.2463320232776" lon="15.130656089168738"><ele>641.0</ele><time>2026-04-12T05:26:14Z</time></trkpt><trkpt lat="41.24639389846846" lon="15.130593575395467"><ele>641.0</ele><time>2026-04-12T05:26:16Z</time></trkpt><trkpt lat="41.246459420058166" lon="15.130517795160166"><ele>641.0</ele><time>2026-04-12T05:26:18Z</time></trkpt><trkpt lat="41.2465454360042" lon="15.130444067928481"><ele>641.0</ele><time>2026-04-12T05:26:21Z</time></trkpt><trkpt lat="41.24661585966202" lon="15.130380193486358"><ele>640.5</ele><time>2026-04-12T05:26:24Z</time></trkpt><trkpt lat="41.24667309081719" lon="15.130345056038367"><ele>640.0</ele><time>2026-04-12T05:26:26Z</time></trkpt><trkpt lat="41.246748943962345" lon="15.130284058568131"><ele>639.5</ele><time>2026-04-12T05:26:29Z</time></trkpt><trkpt lat="41.246830397413795" lon="15.13022772421645"><ele>639.0</ele><time>2026-04-12T05:26:32Z</time></trkpt><trkpt lat="41.246914638630514" lon="15.130185953665496"><ele>638.5</ele><time>2026-04-12T05:26:35Z</time></trkpt><trkpt lat="41.246980187197984" lon="15.130160160553258"><ele>638.0</ele><time>2026-04-12T05:26:37Z</time></trkpt><trkpt lat="41.24706192169663" lon="15.130151850286394"><ele>638.0</ele><time>2026-04-12T05:26:40Z</time></trkpt><trkpt lat="41.24712462208114" lon="15.13016023942311"><ele>638.0</ele><time>2026-04-12T05:26:42Z</time></trkpt><trkpt lat="41.247216011957" lon="15.130190584862923"><ele>638.0</ele><time>2026-04-12T05:26:45Z</time></trkpt><trkpt lat="41.24730473047597" lon="15.130241955256848"><ele>638.0</ele><time>2026-04-12T05:26:48Z</time></trkpt><trkpt lat="41.247360415351785" lon="15.130292270563185"><ele>638.0</ele><time>2026-04-12T05:26:50Z</time></trkpt><trkpt lat="41.24741971460068" lon="15.130322340570196"><ele>638.0</ele><time>2026-04-12T05:26:53Z</time></trkpt><trkpt lat="41.24747785331098" lon="15.130354997182819"><ele>638.0</ele><time>2026-04-12T05:26:56Z</time></trkpt><trkpt lat="41.247562243988945" lon="15.1303875976566"><ele>637.5</ele><time>2026-04-12T05:26:59.001Z</time></trkpt><trkpt lat="41.24764291863401" lon="15.130403737842734"><ele>637.0</ele><time>2026-04-12T05:27:02.001Z</time></trkpt><trkpt lat="41.247723751462466" lon="15.130401136710429"><ele>636.5</ele><time>2026-04-12T05:27:05.001Z</time></trkpt><trkpt lat="41.24780592402143" lon="15.130354699324219"><ele>636.0</ele><time>2026-04-12T05:27:08.001Z</time></trkpt><trkpt lat="41.247872851712955" lon="15.130284319801218"><ele>635.5</ele><time>2026-04-12T05:27:11.001Z</time></trkpt><trkpt lat="41.24792642763254" lon="15.130195385452206"><ele>635.0</ele><time>2026-04-12T05:27:14.001Z</time></trkpt><trkpt lat="41.2479512208152" lon="15.130096714429126"><ele>635.0</ele><time>2026-04-12T05:27:17.001Z</time></trkpt><trkpt lat="41.24797300354084" lon="15.129985112846509"><ele>635.0</ele><time>2026-04-12T05:27:20.001Z</time></trkpt><trkpt lat="41.24797560881376" lon="15.129869403654437"><ele>635.0</ele><time>2026-04-12T05:27:23.001Z</time></trkpt><trkpt lat="41.2479839495958" lon="15.129761672496851"><ele>635.0</ele><time>2026-04-12T05:27:25.001Z</time></trkpt><trkpt lat="41.24798933116512" lon="15.129656478020271"><ele>635.0</ele><time>2026-04-12T05:27:27.001Z</time></trkpt><trkpt lat="41.24799301908622" lon="15.129539366417605"><ele>635.0</ele><time>2026-04-12T05:27:29.001Z</time></trkpt><trkpt lat="41.247992133121066" lon="15.129400286828357"><ele>634.0</ele><time>2026-04-12T05:27:31.001Z</time></trkpt><trkpt lat="41.24798262605271" lon="15.129303947642725"><ele>633.0</ele><time>2026-04-12T05:27:33.001Z</time></trkpt><trkpt lat="41.24795992633592" lon="15.12918830997127"><ele>632.0</ele><time>2026-04-12T05:27:35.001Z</time></trkpt><trkpt lat="41.247915859757484" lon="15.129092189112491"><ele>631.0</ele><time>2026-04-12T05:27:37.001Z</time></trkpt><trkpt lat="41.24786338775126" lon="15.129015437851224"><ele>630.0</ele><time>2026-04-12T05:27:39.001Z</time></trkpt><trkpt lat="41.24779475649037" lon="15.128944622393252"><ele>629.0</ele><time>2026-04-12T05:27:41Z</time></trkpt><trkpt lat="41.247743003484786" lon="15.128894827566306"><ele>628.0</ele><time>2026-04-12T05:27:43Z</time></trkpt><trkpt lat="41.2476794038338" lon="15.12883758403577"><ele>627.0</ele><time>2026-04-12T05:27:45Z</time></trkpt><trkpt lat="41.247623415910695" lon="15.128776237487761"><ele>626.0</ele><time>2026-04-12T05:27:47Z</time></trkpt><trkpt lat="41.247555208494155" lon="15.128698732375323"><ele>625.0</ele><time>2026-04-12T05:27:49Z</time></trkpt><trkpt lat="41.24749596264241" lon="15.128634357776079"><ele>624.0</ele><time>2026-04-12T05:27:51Z</time></trkpt><trkpt lat="41.24743306067416" lon="15.128560927875704"><ele>623.0</ele><time>2026-04-12T05:27:53Z</time></trkpt><trkpt lat="41.24737794237113" lon="15.12847680253443"><ele>623.0</ele><time>2026-04-12T05:27:55Z</time></trkpt><trkpt lat="41.24732659562134" lon="15.128400636461937"><ele>623.0</ele><time>2026-04-12T05:27:57Z</time></trkpt><trkpt lat="41.24728412379752" lon="15.128338272519768"><ele>623.0</ele><time>2026-04-12T05:27:59Z</time></trkpt><trkpt lat="41.24722731390807" lon="15.12825600927886"><ele>623.0</ele><time>2026-04-12T05:28:01Z</time></trkpt><trkpt lat="41.24717650857241" lon="15.12817223565644"><ele>623.0</ele><time>2026-04-12T05:28:03Z</time></trkpt><trkpt lat="41.24711562563906" lon="15.128085012155754"><ele>623.0</ele><time>2026-04-12T05:28:06Z</time></trkpt><trkpt lat="41.24707283117665" lon="15.127996201464514"><ele>622.6666666666666</ele><time>2026-04-12T05:28:08Z</time></trkpt><trkpt lat="41.247019913709636" lon="15.127918637203711"><ele>622.3333333333333</ele><time>2026-04-12T05:28:10Z</time></trkpt><trkpt lat="41.24696942485817" lon="15.127839708552804"><ele>622.0</ele><time>2026-04-12T05:28:12Z</time></trkpt><trkpt lat="41.24689495574415" lon="15.127760862175387"><ele>621.6666666666666</ele><time>2026-04-12T05:28:14Z</time></trkpt><trkpt lat="41.24680731151916" lon="15.127702831741674"><ele>621.3333333333334</ele><time>2026-04-12T05:28:16Z</time></trkpt><trkpt lat="41.24672850535895" lon="15.12766109487664"><ele>621.0</ele><time>2026-04-12T05:28:18Z</time></trkpt><trkpt lat="41.24664774980734" lon="15.127611380906737"><ele>621.0</ele><time>2026-04-12T05:28:20Z</time></trkpt><trkpt lat="41.24659074329133" lon="15.127572805551516"><ele>621.0</ele><time>2026-04-12T05:28:22Z</time></trkpt><trkpt lat="41.2465237551467" lon="15.127519199161073"><ele>621.0</ele><time>2026-04-12T05:28:24Z</time></trkpt><trkpt lat="41.2464475718111" lon="15.127439300188334"><ele>621.0</ele><time>2026-04-12T05:28:26Z</time></trkpt><trkpt lat="41.24637466480494" lon="15.12733273591223"><ele>621.0</ele><time>2026-04-12T05:28:28Z</time></trkpt><trkpt lat="41.246324473287835" lon="15.12724652037867"><ele>621.0</ele><time>2026-04-12T05:28:30Z</time></trkpt><trkpt lat="41.246264111873586" lon="15.12712743577256"><ele>620.1666666666666</ele><time>2026-04-12T05:28:32Z</time></trkpt><trkpt lat="41.246218559862484" lon="15.12701004071672"><ele>619.3333333333334</ele><time>2026-04-12T05:28:34Z</time></trkpt><trkpt lat="41.246160491614134" lon="15.126902946798538"><ele>618.5</ele><time>2026-04-12T05:28:36Z</time></trkpt><trkpt lat="41.246126382453234" lon="15.126810707462003"><ele>617.6666666666667</ele><time>2026-04-12T05:28:38Z</time></trkpt><trkpt lat="41.246079044857794" lon="15.126716980234534"><ele>616.8333333333334</ele><time>2026-04-12T05:28:40Z</time></trkpt><trkpt lat="41.24604695250503" lon="15.126635166694607"><ele>616.0</ele><time>2026-04-12T05:28:42Z</time></trkpt><trkpt lat="41.2460083058159" lon="15.126546794335795"><ele>615.8</ele><time>2026-04-12T05:28:44Z</time></trkpt><trkpt lat="41.24596868041241" lon="15.126433955849926"><ele>615.6</ele><time>2026-04-12T05:28:46Z</time></trkpt><trkpt lat="41.245930001534425" lon="15.126341239521404"><ele>615.4</ele><time>2026-04-12T05:28:48Z</time></trkpt><trkpt lat="41.2458861927258" lon="15.126228035218434"><ele>615.2</ele><time>2026-04-12T05:28:50Z</time></trkpt><trkpt lat="41.24583029565688" lon="15.126140476887587"><ele>615.0</ele><time>2026-04-12T05:28:52Z</time></trkpt><trkpt lat="41.24576107224188" lon="15.12604116223808"><ele>615.0</ele><time>2026-04-12T05:28:54Z</time></trkpt><trkpt lat="41.24570262430171" lon="15.125909168502801"><ele>615.0</ele><time>2026-04-12T05:28:56Z</time></trkpt><trkpt lat="41.24565006885048" lon="15.125798356870984"><ele>615.0</ele><time>2026-04-12T05:28:58Z</time></trkpt><trkpt lat="41.24559149624799" lon="15.125691291750437"><ele>615.0</ele><time>2026-04-12T05:29:00Z</time></trkpt><trkpt lat="41.24552577296509" lon="15.125587533353286"><ele>615.0</ele><time>2026-04-12T05:29:02Z</time></trkpt><trkpt lat="41.24546322734631" lon="15.125482663017458"><ele>615.0</ele><time>2026-04-12T05:29:04Z</time></trkpt><trkpt lat="41.24540278878269" lon="15.125383987642762"><ele>615.0</ele><time>2026-04-12T05:29:06Z</time></trkpt><trkpt lat="41.24533775991366" lon="15.125295965315711"><ele>615.0</ele><time>2026-04-12T05:29:08.001Z</time></trkpt><trkpt lat="41.245263680049284" lon="15.125200243264613"><ele>615.0</ele><time>2026-04-12T05:29:10.001Z</time></trkpt><trkpt lat="41.24518764558959" lon="15.125115747156022"><ele>615.0</ele><time>2026-04-12T05:29:12.001Z</time></trkpt><trkpt lat="41.245092125911974" lon="15.125027013757641"><ele>615.0</ele><time>2026-04-12T05:29:14.001Z</time></trkpt><trkpt lat="41.245009719589646" lon="15.124941720557239"><ele>615.0</ele><time>2026-04-12T05:29:16.001Z</time></trkpt><trkpt lat="41.244926007468045" lon="15.12486166153202"><ele>615.0</ele><time>2026-04-12T05:29:18.001Z</time></trkpt><trkpt lat="41.24484097877251" lon="15.124772222707886"><ele>615.0</ele><time>2026-04-12T05:29:20.001Z</time></trkpt><trkpt lat="41.244750588709884" lon="15.124679361481478"><ele>615.0</ele><time>2026-04-12T05:29:22.001Z</time></trkpt><trkpt lat="41.24467089661214" lon="15.124599907594162"><ele>614.6</ele><time>2026-04-12T05:29:24.001Z</time></trkpt><trkpt lat="41.2445875247722" lon="15.124514444657553"><ele>614.2</ele><time>2026-04-12T05:29:26.001Z</time></trkpt><trkpt lat="41.2445314147863" lon="15.124416655121806"><ele>613.8</ele><time>2026-04-12T05:29:28.001Z</time></trkpt><trkpt lat="41.24445973860594" lon="15.124333162802824"><ele>613.4</ele><time>2026-04-12T05:29:30.001Z</time></trkpt><trkpt lat="41.244399075508305" lon="15.12426329286266"><ele>613.0</ele><time>2026-04-12T05:29:32.001Z</time></trkpt><trkpt lat="41.244320805608716" lon="15.124164610155857"><ele>612.8</ele><time>2026-04-12T05:29:34.001Z</time></trkpt><trkpt lat="41.24423378839087" lon="15.12405841609058"><ele>612.5999999999999</ele><time>2026-04-12T05:29:36.001Z</time></trkpt><trkpt lat="41.24414502045556" lon="15.123958229527448"><ele>612.4000000000001</ele><time>2026-04-12T05:29:38.001Z</time></trkpt><trkpt lat="41.244082001553686" lon="15.123868132599847"><ele>612.2</ele><time>2026-04-12T05:29:40.001Z</time></trkpt><trkpt lat="41.24399079610011" lon="15.123765005070691"><ele>612.0</ele><time>2026-04-12T05:29:42.001Z</time></trkpt><trkpt lat="41.243940218106125" lon="15.123707826489124"><ele>612.0</ele><time>2026-04-12T05:29:43.001Z</time></trkpt><trkpt lat="41.24388357757185" lon="15.12364055844291"><ele>612.0</ele><time>2026-04-12T05:29:44.001Z</time></trkpt><trkpt lat="41.24383170293223" lon="15.123580984539922"><ele>612.0</ele><time>2026-04-12T05:29:45.001Z</time></trkpt><trkpt lat="41.24374362593009" lon="15.123472277897282"><ele>612.0</ele><time>2026-04-12T05:29:47Z</time></trkpt><trkpt lat="41.24364992168341" lon="15.123366790908053"><ele>612.0</ele><time>2026-04-12T05:29:49Z</time></trkpt><trkpt lat="41.243602639424694" lon="15.123307707436455"><ele>612.0</ele><time>2026-04-12T05:29:50Z</time></trkpt><trkpt lat="41.243548437120296" lon="15.123258157426024"><ele>612.0</ele><time>2026-04-12T05:29:51Z</time></trkpt><trkpt lat="41.24350336524716" lon="15.12319856874131"><ele>612.0</ele><time>2026-04-12T05:29:52Z</time></trkpt><trkpt lat="41.24344773338457" lon="15.1231386106864"><ele>612.0</ele><time>2026-04-12T05:29:53Z</time></trkpt><trkpt lat="41.24336287818298" lon="15.123010527210178"><ele>612.0</ele><time>2026-04-12T05:29:55Z</time></trkpt><trkpt lat="41.24331482515461" lon="15.122944110780136"><ele>612.0</ele><time>2026-04-12T05:29:56Z</time></trkpt><trkpt lat="41.24326287226466" lon="15.122878399394402"><ele>611.6666666666666</ele><time>2026-04-12T05:29:57Z</time></trkpt><trkpt lat="41.24316267466619" lon="15.122765151261804"><ele>611.3333333333334</ele><time>2026-04-12T05:29:59Z</time></trkpt><trkpt lat="41.243110058937916" lon="15.12269805138064"><ele>611.0</ele><time>2026-04-12T05:30:00Z</time></trkpt><trkpt lat="41.243055846758196" lon="15.122631758799942"><ele>610.6666666666667</ele><time>2026-04-12T05:30:01Z</time></trkpt><trkpt lat="41.24300918456219" lon="15.122560392373943"><ele>610.3333333333334</ele><time>2026-04-12T05:30:02Z</time></trkpt><trkpt lat="41.24294998052697" lon="15.122487000735205"><ele>610.0</ele><time>2026-04-12T05:30:03Z</time></trkpt><trkpt lat="41.24290220360386" lon="15.122422526664568"><ele>610.3333333333334</ele><time>2026-04-12T05:30:04Z</time></trkpt><trkpt lat="41.24285721377501" lon="15.122357499920394"><ele>610.6666666666667</ele><time>2026-04-12T05:30:05Z</time></trkpt><trkpt lat="41.24280935282089" lon="15.122284266187481"><ele>611.0</ele><time>2026-04-12T05:30:06Z</time></trkpt><trkpt lat="41.242763178197215" lon="15.122203344558557"><ele>611.3333333333334</ele><time>2026-04-12T05:30:07Z</time></trkpt><trkpt lat="41.24272163535696" lon="15.122112487358699"><ele>611.6666666666666</ele><time>2026-04-12T05:30:08Z</time></trkpt><trkpt lat="41.242668172417936" lon="15.122025695134056"><ele>612.0</ele><time>2026-04-12T05:30:09Z</time></trkpt><trkpt lat="41.24261498901397" lon="15.121956776700534"><ele>612.0</ele><time>2026-04-12T05:30:10Z</time></trkpt><trkpt lat="41.242554068389275" lon="15.121861374284892"><ele>612.0</ele><time>2026-04-12T05:30:11Z</time></trkpt><trkpt lat="41.24250741302501" lon="15.121757911726576"><ele>612.0</ele><time>2026-04-12T05:30:12Z</time></trkpt><trkpt lat="41.24245854213973" lon="15.121638057318817"><ele>612.0</ele><time>2026-04-12T05:30:13Z</time></trkpt><trkpt lat="41.24240422869945" lon="15.121547121523376"><ele>612.0</ele><time>2026-04-12T05:30:14Z</time></trkpt><trkpt lat="41.24235729857067" lon="15.12146250604596"><ele>612.3333333333334</ele><time>2026-04-12T05:30:15Z</time></trkpt><trkpt lat="41.242313744603436" lon="15.121385761486293"><ele>612.6666666666666</ele><time>2026-04-12T05:30:16Z</time></trkpt><trkpt lat="41.242271361905495" lon="15.12130689638554"><ele>613.0</ele><time>2026-04-12T05:30:17Z</time></trkpt><trkpt lat="41.24222617002739" lon="15.121226860583297"><ele>613.3333333333333</ele><time>2026-04-12T05:30:18Z</time></trkpt><trkpt lat="41.24217556003984" lon="15.1211482656148"><ele>613.6666666666666</ele><time>2026-04-12T05:30:19Z</time></trkpt><trkpt lat="41.24212578775792" lon="15.12106284652249"><ele>614.0</ele><time>2026-04-12T05:30:20Z</time></trkpt><trkpt lat="41.24208094048644" lon="15.120973945503263"><ele>614.1666666666666</ele><time>2026-04-12T05:30:21Z</time></trkpt><trkpt lat="41.24204062054318" lon="15.120893651130013"><ele>614.3333333333333</ele><time>2026-04-12T05:30:22Z</time></trkpt><trkpt lat="41.24200723588979" lon="15.120800956204809"><ele>614.5</ele><time>2026-04-12T05:30:23Z</time></trkpt><trkpt lat="41.24197319653419" lon="15.120703296339048"><ele>614.6666666666666</ele><time>2026-04-12T05:30:24Z</time></trkpt><trkpt lat="41.24193803194211" lon="15.120598440089324"><ele>614.8333333333334</ele><time>2026-04-12T05:30:25Z</time></trkpt><trkpt lat="41.24190503391543" lon="15.120497299861027"><ele>615.0</ele><time>2026-04-12T05:30:26Z</time></trkpt><trkpt lat="41.24186712802733" lon="15.120401200762375"><ele>615.2857142857142</ele><time>2026-04-12T05:30:27Z</time></trkpt><trkpt lat="41.241827287668755" lon="15.12032015136167"><ele>615.5714285714287</ele><time>2026-04-12T05:30:28Z</time></trkpt><trkpt lat="41.24178377060894" lon="15.120240085879582"><ele>615.8571428571429</ele><time>2026-04-12T05:30:29Z</time></trkpt><trkpt lat="41.241744325948694" lon="15.120166769758457"><ele>616.1428571428571</ele><time>2026-04-12T05:30:30Z</time></trkpt><trkpt lat="41.24168946377782" lon="15.120102696098112"><ele>616.4285714285713</ele><time>2026-04-12T05:30:31Z</time></trkpt><trkpt lat="41.24163892358593" lon="15.12004138984941"><ele>616.7142857142858</ele><time>2026-04-12T05:30:32Z</time></trkpt><trkpt lat="41.2415871318283" lon="15.119970779593842"><ele>617.0</ele><time>2026-04-12T05:30:33Z</time></trkpt><trkpt lat="41.241532723070215" lon="15.119895118512419"><ele>617.3333333333333</ele><time>2026-04-12T05:30:34Z</time></trkpt><trkpt lat="41.24147692751009" lon="15.11981756740945"><ele>617.6666666666666</ele><time>2026-04-12T05:30:35Z</time></trkpt><trkpt lat="41.24142029828696" lon="15.119743588376865"><ele>618.0</ele><time>2026-04-12T05:30:36Z</time></trkpt><trkpt lat="41.241365087281046" lon="15.119664452264843"><ele>618.3333333333334</ele><time>2026-04-12T05:30:37Z</time></trkpt><trkpt lat="41.241308171237286" lon="15.119583629037344"><ele>618.6666666666667</ele><time>2026-04-12T05:30:38Z</time></trkpt><trkpt lat="41.24125460036211" lon="15.11950672229869"><ele>619.0</ele><time>2026-04-12T05:30:39Z</time></trkpt><trkpt lat="41.24120336249165" lon="15.119431928807982"><ele>619.1666666666667</ele><time>2026-04-12T05:30:40Z</time></trkpt><trkpt lat="41.24114582410678" lon="15.119346713970888"><ele>619.3333333333334</ele><time>2026-04-12T05:30:41Z</time></trkpt><trkpt lat="41.24109227445523" lon="15.11927339974088"><ele>619.5</ele><time>2026-04-12T05:30:42Z</time></trkpt><trkpt lat="41.24103503900969" lon="15.119196214681025"><ele>619.6666666666666</ele><time>2026-04-12T05:30:43Z</time></trkpt><trkpt lat="41.24097810499007" lon="15.119119230267852"><ele>619.8333333333333</ele><time>2026-04-12T05:30:44Z</time></trkpt><trkpt lat="41.240921690707815" lon="15.11904153222375"><ele>620.0</ele><time>2026-04-12T05:30:45Z</time></trkpt><trkpt lat="41.240865175054076" lon="15.118959127482713"><ele>620.5</ele><time>2026-04-12T05:30:46Z</time></trkpt><trkpt lat="41.24080847791579" lon="15.118884746627986"><ele>621.0</ele><time>2026-04-12T05:30:47Z</time></trkpt><trkpt lat="41.240755350065065" lon="15.1188101405368"><ele>621.5</ele><time>2026-04-12T05:30:48Z</time></trkpt><trkpt lat="41.24072013528279" lon="15.118731783878424"><ele>622.0</ele><time>2026-04-12T05:30:49Z</time></trkpt><trkpt lat="41.24066164595436" lon="15.118666758526627"><ele>622.5</ele><time>2026-04-12T05:30:50Z</time></trkpt><trkpt lat="41.24057221686854" lon="15.118548356193127"><ele>623.0</ele><time>2026-04-12T05:30:52Z</time></trkpt><trkpt lat="41.24051498002544" lon="15.118425583502404"><ele>623.1999999999999</ele><time>2026-04-12T05:30:54Z</time></trkpt><trkpt lat="41.2404571851654" lon="15.11837474482758"><ele>623.4</ele><time>2026-04-12T05:30:55Z</time></trkpt><trkpt lat="41.24040866198708" lon="15.118321392620265"><ele>623.5999999999999</ele><time>2026-04-12T05:30:56Z</time></trkpt><trkpt lat="41.240318842140404" lon="15.118254210257783"><ele>623.8</ele><time>2026-04-12T05:30:58Z</time></trkpt><trkpt lat="41.24023132074228" lon="15.118177781728491"><ele>624.0</ele><time>2026-04-12T05:31:00Z</time></trkpt><trkpt lat="41.24011819231155" lon="15.118163385143784"><ele>624.2</ele><time>2026-04-12T05:31:02Z</time></trkpt><trkpt lat="41.24004716876646" lon="15.118173338882885"><ele>624.4</ele><time>2026-04-12T05:31:03Z</time></trkpt><trkpt lat="41.2399665767409" lon="15.118181036031823"><ele>624.6</ele><time>2026-04-12T05:31:04Z</time></trkpt><trkpt lat="41.2398607077654" lon="15.118182097039393"><ele>624.8</ele><time>2026-04-12T05:31:05Z</time></trkpt><trkpt lat="41.23976216428742" lon="15.11819442466081"><ele>625.0</ele><time>2026-04-12T05:31:06Z</time></trkpt><trkpt lat="41.23965697658494" lon="15.118204650157463"><ele>624.6</ele><time>2026-04-12T05:31:07Z</time></trkpt><trkpt lat="41.23955223986038" lon="15.118217710586247"><ele>624.2</ele><time>2026-04-12T05:31:08Z</time></trkpt><trkpt lat="41.2394644183986" lon="15.118223786944876"><ele>623.8</ele><time>2026-04-12T05:31:09.001Z</time></trkpt><trkpt lat="41.23937505560483" lon="15.118233418789547"><ele>623.4</ele><time>2026-04-12T05:31:10.001Z</time></trkpt><trkpt lat="41.23927853407104" lon="15.118244719101497"><ele>623.0</ele><time>2026-04-12T05:31:11.001Z</time></trkpt><trkpt lat="41.23917179122039" lon="15.118246508147132"><ele>623.0</ele><time>2026-04-12T05:31:12.001Z</time></trkpt><trkpt lat="41.23906338117974" lon="15.118259057127187"><ele>623.0</ele><time>2026-04-12T05:31:13.001Z</time></trkpt><trkpt lat="41.238958608137374" lon="15.118268788857632"><ele>623.0</ele><time>2026-04-12T05:31:14.001Z</time></trkpt><trkpt lat="41.238855126803664" lon="15.118272621711055"><ele>623.0</ele><time>2026-04-12T05:31:15.001Z</time></trkpt><trkpt lat="41.23875095078617" lon="15.118276167704176"><ele>623.0</ele><time>2026-04-12T05:31:16.001Z</time></trkpt><trkpt lat="41.23865368656064" lon="15.118271116302653"><ele>622.5</ele><time>2026-04-12T05:31:17.001Z</time></trkpt><trkpt lat="41.23856184751321" lon="15.118260071328375"><ele>622.0</ele><time>2026-04-12T05:31:18.001Z</time></trkpt><trkpt lat="41.23847330288383" lon="15.11825248380547"><ele>621.5</ele><time>2026-04-12T05:31:19.001Z</time></trkpt><trkpt lat="41.23839196164428" lon="15.118247340496206"><ele>621.0</ele><time>2026-04-12T05:31:20.001Z</time></trkpt><trkpt lat="41.238309164862535" lon="15.118247036104874"><ele>620.5</ele><time>2026-04-12T05:31:21.001Z</time></trkpt><trkpt lat="41.23823421030533" lon="15.11824569352286"><ele>620.0</ele><time>2026-04-12T05:31:22.001Z</time></trkpt><trkpt lat="41.23815322543441" lon="15.118242102152504"><ele>619.2857142857143</ele><time>2026-04-12T05:31:23.001Z</time></trkpt><trkpt lat="41.23807566667379" lon="15.118228269031555"><ele>618.5714285714286</ele><time>2026-04-12T05:31:24.001Z</time></trkpt><trkpt lat="41.23800362878308" lon="15.118223954504527"><ele>617.8571428571429</ele><time>2026-04-12T05:31:25.001Z</time></trkpt><trkpt lat="41.237935086267036" lon="15.118221853814502"><ele>617.1428571428571</ele><time>2026-04-12T05:31:26.001Z</time></trkpt><trkpt lat="41.237867361487574" lon="15.118219637975272"><ele>616.4285714285714</ele><time>2026-04-12T05:31:27.001Z</time></trkpt><trkpt lat="41.23779662576113" lon="15.118216646271957"><ele>615.7142857142857</ele><time>2026-04-12T05:31:28.001Z</time></trkpt><trkpt lat="41.237723159866725" lon="15.118214996217333"><ele>615.0</ele><time>2026-04-12T05:31:29.001Z</time></trkpt><trkpt lat="41.23765151853791" lon="15.118208142623656"><ele>615.0</ele><time>2026-04-12T05:31:30.001Z</time></trkpt><trkpt lat="41.23756822972038" lon="15.118194116103194"><ele>615.0</ele><time>2026-04-12T05:31:31.001Z</time></trkpt><trkpt lat="41.23749332852949" lon="15.118191003689372"><ele>615.0</ele><time>2026-04-12T05:31:32.001Z</time></trkpt><trkpt lat="41.23741375633927" lon="15.118189956441427"><ele>615.0</ele><time>2026-04-12T05:31:33.001Z</time></trkpt><trkpt lat="41.2373392512293" lon="15.118196680610957"><ele>615.0</ele><time>2026-04-12T05:31:34.001Z</time></trkpt><trkpt lat="41.23725242308198" lon="15.118194081344722"><ele>615.0</ele><time>2026-04-12T05:31:35.001Z</time></trkpt><trkpt lat="41.2371687736794" lon="15.118179234656418"><ele>614.6666666666666</ele><time>2026-04-12T05:31:36.001Z</time></trkpt><trkpt lat="41.23710101592415" lon="15.118169775211564"><ele>614.3333333333334</ele><time>2026-04-12T05:31:37.001Z</time></trkpt><trkpt lat="41.237024554468746" lon="15.118162378655967"><ele>614.0</ele><time>2026-04-12T05:31:38.001Z</time></trkpt><trkpt lat="41.23695216933724" lon="15.11816373172095"><ele>613.6666666666667</ele><time>2026-04-12T05:31:39.001Z</time></trkpt><trkpt lat="41.23687738230044" lon="15.118156727328477"><ele>613.3333333333334</ele><time>2026-04-12T05:31:40.001Z</time></trkpt><trkpt lat="41.23678974863197" lon="15.118144476402515"><ele>613.0</ele><time>2026-04-12T05:31:41.001Z</time></trkpt><trkpt lat="41.236707960417604" lon="15.118137588743737"><ele>613.0</ele><time>2026-04-12T05:31:42.001Z</time></trkpt><trkpt lat="41.23663474303004" lon="15.11814670861102"><ele>613.0</ele><time>2026-04-12T05:31:43.001Z</time></trkpt><trkpt lat="41.236571636149534" lon="15.11813741799038"><ele>613.0</ele><time>2026-04-12T05:31:44.001Z</time></trkpt><trkpt lat="41.23650166145253" lon="15.118142583391023"><ele>613.0</ele><time>2026-04-12T05:31:45.001Z</time></trkpt><trkpt lat="41.23642832725206" lon="15.118134979069481"><ele>613.0</ele><time>2026-04-12T05:31:46.001Z</time></trkpt><trkpt lat="41.23635518893702" lon="15.118118911958966"><ele>613.0</ele><time>2026-04-12T05:31:47.001Z</time></trkpt><trkpt lat="41.236273313012866" lon="15.118111970860015"><ele>613.0</ele><time>2026-04-12T05:31:48.001Z</time></trkpt><trkpt lat="41.2361891295257" lon="15.118107098676143"><ele>613.0</ele><time>2026-04-12T05:31:49.001Z</time></trkpt><trkpt lat="41.23611188546504" lon="15.118107708074126"><ele>613.0</ele><time>2026-04-12T05:31:50.001Z</time></trkpt><trkpt lat="41.23604402878327" lon="15.118112657574665"><ele>613.0</ele><time>2026-04-12T05:31:51.001Z</time></trkpt><trkpt lat="41.23597887529528" lon="15.118117105672525"><ele>613.0</ele><time>2026-04-12T05:31:52Z</time></trkpt><trkpt lat="41.23585526634995" lon="15.118115789851284"><ele>613.0</ele><time>2026-04-12T05:31:54Z</time></trkpt><trkpt lat="41.235791108360885" lon="15.118114306257375"><ele>613.0</ele><time>2026-04-12T05:31:55Z</time></trkpt><trkpt lat="41.23572738146127" lon="15.118116742725066"><ele>612.8333333333334</ele><time>2026-04-12T05:31:56Z</time></trkpt><trkpt lat="41.2356082336565" lon="15.118124878028468"><ele>612.6666666666667</ele><time>2026-04-12T05:31:58Z</time></trkpt><trkpt lat="41.235542976791784" lon="15.118126115063301"><ele>612.5</ele><time>2026-04-12T05:31:59Z</time></trkpt><trkpt lat="41.235478677119374" lon="15.11812797411484"><ele>612.3333333333334</ele><time>2026-04-12T05:32:00Z</time></trkpt><trkpt lat="41.23541093993917" lon="15.118135023046824"><ele>612.1666666666666</ele><time>2026-04-12T05:32:01Z</time></trkpt><trkpt lat="41.235342939050675" lon="15.118143853675258"><ele>612.0</ele><time>2026-04-12T05:32:02Z</time></trkpt><trkpt lat="41.235201295668986" lon="15.118162319999383"><ele>612.0</ele><time>2026-04-12T05:32:04Z</time></trkpt><trkpt lat="41.23513368255806" lon="15.118160470522328"><ele>612.0</ele><time>2026-04-12T05:32:05Z</time></trkpt><trkpt lat="41.235059825461754" lon="15.118168094933752"><ele>612.0</ele><time>2026-04-12T05:32:06Z</time></trkpt><trkpt lat="41.234990872598274" lon="15.118170909045292"><ele>612.0</ele><time>2026-04-12T05:32:07Z</time></trkpt><trkpt lat="41.2349223446236" lon="15.118173366220535"><ele>612.0</ele><time>2026-04-12T05:32:08Z</time></trkpt><trkpt lat="41.23485373168328" lon="15.118172677364202"><ele>612.0</ele><time>2026-04-12T05:32:09Z</time></trkpt><trkpt lat="41.23478936542137" lon="15.118171056671892"><ele>612.0</ele><time>2026-04-12T05:32:10Z</time></trkpt><trkpt lat="41.23467129699885" lon="15.118175729457146"><ele>611.4285714285714</ele><time>2026-04-12T05:32:12Z</time></trkpt><trkpt lat="41.23460237995656" lon="15.118165569934096"><ele>610.8571428571429</ele><time>2026-04-12T05:32:13Z</time></trkpt><trkpt lat="41.23453154674074" lon="15.118156222334859"><ele>610.2857142857142</ele><time>2026-04-12T05:32:14Z</time></trkpt><trkpt lat="41.23446068264576" lon="15.118146285054756"><ele>609.7142857142858</ele><time>2026-04-12T05:32:15Z</time></trkpt><trkpt lat="41.234391230224496" lon="15.118132519947865"><ele>609.1428571428572</ele><time>2026-04-12T05:32:16Z</time></trkpt><trkpt lat="41.234319199120435" lon="15.11811395217491"><ele>608.5714285714286</ele><time>2026-04-12T05:32:17Z</time></trkpt><trkpt lat="41.234255757049446" lon="15.118094788640796"><ele>608.0</ele><time>2026-04-12T05:32:18Z</time></trkpt><trkpt lat="41.2341394805807" lon="15.118042726787667"><ele>608.0</ele><time>2026-04-12T05:32:20Z</time></trkpt><trkpt lat="41.234028860734696" lon="15.118001211781724"><ele>608.0</ele><time>2026-04-12T05:32:22Z</time></trkpt><trkpt lat="41.233969351953824" lon="15.11796824084471"><ele>608.0</ele><time>2026-04-12T05:32:23Z</time></trkpt><trkpt lat="41.23390325625573" lon="15.117939952503878"><ele>608.0</ele><time>2026-04-12T05:32:24Z</time></trkpt><trkpt lat="41.23380805798399" lon="15.117824621669476"><ele>608.0</ele><time>2026-04-12T05:32:25Z</time></trkpt><trkpt lat="41.23372258262142" lon="15.117831362952021"><ele>607.0</ele><time>2026-04-12T05:32:27Z</time></trkpt><trkpt lat="41.233637740774086" lon="15.117789213562176"><ele>606.0</ele><time>2026-04-12T05:32:29Z</time></trkpt><trkpt lat="41.23351880737835" lon="15.11774302503616"><ele>605.0</ele><time>2026-04-12T05:32:31Z</time></trkpt><trkpt lat="41.233442076796344" lon="15.117733024115694"><ele>604.0</ele><time>2026-04-12T05:32:33Z</time></trkpt><trkpt lat="41.23337486561041" lon="15.117769440678757"><ele>603.0</ele><time>2026-04-12T05:32:35Z</time></trkpt><trkpt lat="41.23329308477188" lon="15.117823942936957"><ele>603.0</ele><time>2026-04-12T05:32:37Z</time></trkpt><trkpt lat="41.23328510776245" lon="15.117933071385442"><ele>603.0</ele><time>2026-04-12T05:32:39Z</time></trkpt><trkpt lat="41.23328590101727" lon="15.118022674900743"><ele>603.0</ele><time>2026-04-12T05:32:40Z</time></trkpt><trkpt lat="41.23327907394006" lon="15.1181276676483"><ele>603.0</ele><time>2026-04-12T05:32:41Z</time></trkpt><trkpt lat="41.23325121464362" lon="15.118245493560977"><ele>603.0</ele><time>2026-04-12T05:32:42Z</time></trkpt><trkpt lat="41.23322074302512" lon="15.11835112753076"><ele>603.0</ele><time>2026-04-12T05:32:43Z</time></trkpt><trkpt lat="41.2331741643821" lon="15.118463123489121"><ele>602.0</ele><time>2026-04-12T05:32:44Z</time></trkpt><trkpt lat="41.233106039817784" lon="15.118571818102673"><ele>601.0</ele><time>2026-04-12T05:32:45Z</time></trkpt><trkpt lat="41.233028734423485" lon="15.118691934998104"><ele>600.0</ele><time>2026-04-12T05:32:46Z</time></trkpt><trkpt lat="41.232942649228306" lon="15.118809313765134"><ele>599.0</ele><time>2026-04-12T05:32:47Z</time></trkpt><trkpt lat="41.2328682242838" lon="15.118919286015474"><ele>599.0</ele><time>2026-04-12T05:32:48Z</time></trkpt><trkpt lat="41.23279016773576" lon="15.119035815283354"><ele>599.0</ele><time>2026-04-12T05:32:49Z</time></trkpt><trkpt lat="41.232713177600125" lon="15.11916174138454"><ele>599.0</ele><time>2026-04-12T05:32:50Z</time></trkpt><trkpt lat="41.23263416351939" lon="15.11928900485323"><ele>599.0</ele><time>2026-04-12T05:32:51Z</time></trkpt><trkpt lat="41.232552818267585" lon="15.119422194092952"><ele>599.0</ele><time>2026-04-12T05:32:52Z</time></trkpt><trkpt lat="41.232447767027445" lon="15.119585876730811"><ele>599.0</ele><time>2026-04-12T05:32:53Z</time></trkpt><trkpt lat="41.23232981950862" lon="15.11976472996546"><ele>599.0</ele><time>2026-04-12T05:32:54Z</time></trkpt><trkpt lat="41.23221315076644" lon="15.119949652264422"><ele>600.0</ele><time>2026-04-12T05:32:55Z</time></trkpt><trkpt lat="41.2320864924207" lon="15.120155317001194"><ele>601.0</ele><time>2026-04-12T05:32:56Z</time></trkpt><trkpt lat="41.23194654241502" lon="15.120374408705642"><ele>602.0</ele><time>2026-04-12T05:32:57Z</time></trkpt><trkpt lat="41.23179365464893" lon="15.120615944087799"><ele>602.6666666666666</ele><time>2026-04-12T05:32:58Z</time></trkpt><trkpt lat="41.23164230300295" lon="15.120850679808106"><ele>603.3333333333334</ele><time>2026-04-12T05:32:59Z</time></trkpt><trkpt lat="41.23150757949173" lon="15.121060164626751"><ele>604.0</ele><time>2026-04-12T05:33:00Z</time></trkpt><trkpt lat="41.231386175081276" lon="15.121250944842874"><ele>604.0</ele><time>2026-04-12T05:33:01Z</time></trkpt><trkpt lat="41.23126509015102" lon="15.121438268275096"><ele>604.0</ele><time>2026-04-12T05:33:02Z</time></trkpt><trkpt lat="41.231158852084796" lon="15.121621906366682"><ele>604.0</ele><time>2026-04-12T05:33:03Z</time></trkpt><trkpt lat="41.23105009472638" lon="15.121796477711387"><ele>604.25</ele><time>2026-04-12T05:33:04Z</time></trkpt><trkpt lat="41.230946476847066" lon="15.121957865041978"><ele>604.5</ele><time>2026-04-12T05:33:05Z</time></trkpt><trkpt lat="41.23085239539237" lon="15.12210592249735"><ele>604.75</ele><time>2026-04-12T05:33:06Z</time></trkpt><trkpt lat="41.230759026795226" lon="15.12224515005417"><ele>605.0</ele><time>2026-04-12T05:33:07Z</time></trkpt><trkpt lat="41.23066238976073" lon="15.12238965053175"><ele>604.5</ele><time>2026-04-12T05:33:08Z</time></trkpt><trkpt lat="41.23056703198426" lon="15.122537867433582"><ele>604.0</ele><time>2026-04-12T05:33:09Z</time></trkpt><trkpt lat="41.230474743450266" lon="15.122690563563621"><ele>603.5</ele><time>2026-04-12T05:33:10Z</time></trkpt><trkpt lat="41.23038232712311" lon="15.122844983733314"><ele>603.0</ele><time>2026-04-12T05:33:11Z</time></trkpt><trkpt lat="41.23028655232352" lon="15.123004590863513"><ele>603.0</ele><time>2026-04-12T05:33:12Z</time></trkpt><trkpt lat="41.23018691195" lon="15.123163281227754"><ele>603.0</ele><time>2026-04-12T05:33:13Z</time></trkpt><trkpt lat="41.23008054971068" lon="15.12331704786583"><ele>603.0</ele><time>2026-04-12T05:33:14Z</time></trkpt><trkpt lat="41.22997434816252" lon="15.123474033259964"><ele>604.0</ele><time>2026-04-12T05:33:15Z</time></trkpt><trkpt lat="41.22987067912113" lon="15.123641152293008"><ele>605.0</ele><time>2026-04-12T05:33:16Z</time></trkpt><trkpt lat="41.22975877317381" lon="15.123819439467125"><ele>606.0</ele><time>2026-04-12T05:33:17.001Z</time></trkpt><trkpt lat="41.229626837831255" lon="15.124009832145026"><ele>606.3333333333334</ele><time>2026-04-12T05:33:18.001Z</time></trkpt><trkpt lat="41.22948899944099" lon="15.124211143765258"><ele>606.6666666666667</ele><time>2026-04-12T05:33:19.001Z</time></trkpt><trkpt lat="41.229353644162344" lon="15.124424817352248"><ele>607.0</ele><time>2026-04-12T05:33:20.001Z</time></trkpt><trkpt lat="41.22922150796113" lon="15.124634449247573"><ele>607.0</ele><time>2026-04-12T05:33:21.001Z</time></trkpt><trkpt lat="41.22909388111729" lon="15.124837914455178"><ele>607.0</ele><time>2026-04-12T05:33:22.001Z</time></trkpt><trkpt lat="41.22896839187179" lon="15.125033394249327"><ele>607.0</ele><time>2026-04-12T05:33:23.001Z</time></trkpt><trkpt lat="41.22884930106937" lon="15.125213611695603"><ele>607.6666666666667</ele><time>2026-04-12T05:33:24.001Z</time></trkpt><trkpt lat="41.22873752062464" lon="15.125384214161068"><ele>608.3333333333334</ele><time>2026-04-12T05:33:25.001Z</time></trkpt><trkpt lat="41.228639595241695" lon="15.125547302716086"><ele>609.0</ele><time>2026-04-12T05:33:26.001Z</time></trkpt><trkpt lat="41.228542718431235" lon="15.12570316889143"><ele>608.75</ele><time>2026-04-12T05:33:27.001Z</time></trkpt><trkpt lat="41.22844418398211" lon="15.125855012409666"><ele>608.5</ele><time>2026-04-12T05:33:28.001Z</time></trkpt><trkpt lat="41.22834508899842" lon="15.12600350951674"><ele>608.25</ele><time>2026-04-12T05:33:29.001Z</time></trkpt><trkpt lat="41.22824557149789" lon="15.126151496960544"><ele>608.0</ele><time>2026-04-12T05:33:30.001Z</time></trkpt><trkpt lat="41.22814923621149" lon="15.126306587702302"><ele>608.5</ele><time>2026-04-12T05:33:31.001Z</time></trkpt><trkpt lat="41.22806019893828" lon="15.12646456654379"><ele>609.0</ele><time>2026-04-12T05:33:32.001Z</time></trkpt><trkpt lat="41.22798683936228" lon="15.126614129702869"><ele>609.5</ele><time>2026-04-12T05:33:33.001Z</time></trkpt><trkpt lat="41.22792273960043" lon="15.126759452735044"><ele>610.0</ele><time>2026-04-12T05:33:34.001Z</time></trkpt><trkpt lat="41.22786318246424" lon="15.126906833092715"><ele>610.0</ele><time>2026-04-12T05:33:35.001Z</time></trkpt><trkpt lat="41.22780181440802" lon="15.12706172496771"><ele>610.0</ele><time>2026-04-12T05:33:36.001Z</time></trkpt><trkpt lat="41.22773915982599" lon="15.127220249380134"><ele>610.0</ele><time>2026-04-12T05:33:37.001Z</time></trkpt><trkpt lat="41.227676625914356" lon="15.127379451608832"><ele>610.0</ele><time>2026-04-12T05:33:38.001Z</time></trkpt><trkpt lat="41.22761690168788" lon="15.127529655930894"><ele>609.8</ele><time>2026-04-12T05:33:39.001Z</time></trkpt><trkpt lat="41.22755852508255" lon="15.127669307573887"><ele>609.6</ele><time>2026-04-12T05:33:40.001Z</time></trkpt><trkpt lat="41.22750613762928" lon="15.12780120317911"><ele>609.4</ele><time>2026-04-12T05:33:41.001Z</time></trkpt><trkpt lat="41.2274569890263" lon="15.127928129108756"><ele>609.2</ele><time>2026-04-12T05:33:42.001Z</time></trkpt><trkpt lat="41.22741091471664" lon="15.128051883698792"><ele>609.0</ele><time>2026-04-12T05:33:43.001Z</time></trkpt><trkpt lat="41.22736746431135" lon="15.128164520574835"><ele>608.6666666666666</ele><time>2026-04-12T05:33:44.001Z</time></trkpt><trkpt lat="41.22732548487739" lon="15.128261812150361"><ele>608.3333333333334</ele><time>2026-04-12T05:33:45.001Z</time></trkpt><trkpt lat="41.22728742435186" lon="15.128354695964793"><ele>608.0</ele><time>2026-04-12T05:33:46.001Z</time></trkpt><trkpt lat="41.227255379283186" lon="15.12844443414906"><ele>607.6666666666667</ele><time>2026-04-12T05:33:47.001Z</time></trkpt><trkpt lat="41.22722669034446" lon="15.128528029517218"><ele>607.3333333333334</ele><time>2026-04-12T05:33:48.001Z</time></trkpt><trkpt lat="41.22719729033685" lon="15.128604084438738"><ele>607.0</ele><time>2026-04-12T05:33:49.001Z</time></trkpt><trkpt lat="41.227144734748386" lon="15.128742453322538"><ele>607.0</ele><time>2026-04-12T05:33:51.001Z</time></trkpt><trkpt lat="41.22709643611625" lon="15.128869221473845"><ele>607.0</ele><time>2026-04-12T05:33:53.001Z</time></trkpt><trkpt lat="41.22705878475891" lon="15.128982898351573"><ele>607.0</ele><time>2026-04-12T05:33:55.001Z</time></trkpt><trkpt lat="41.22699975701135" lon="15.129062131493876"><ele>607.0</ele><time>2026-04-12T05:33:57.001Z</time></trkpt><trkpt lat="41.22692754664432" lon="15.12907714363396"><ele>607.0</ele><time>2026-04-12T05:33:58Z</time></trkpt><trkpt lat="41.2268213538835" lon="15.129050221578616"><ele>606.5</ele><time>2026-04-12T05:33:59Z</time></trkpt><trkpt lat="41.22669180981213" lon="15.12899564484783"><ele>606.0</ele><time>2026-04-12T05:34:00Z</time></trkpt><trkpt lat="41.226540070469326" lon="15.128926182915398"><ele>605.5</ele><time>2026-04-12T05:34:01Z</time></trkpt><trkpt lat="41.226400061069434" lon="15.128880802494669"><ele>605.0</ele><time>2026-04-12T05:34:02Z</time></trkpt><trkpt lat="41.22624085743335" lon="15.12882790409702"><ele>604.6666666666666</ele><time>2026-04-12T05:34:03Z</time></trkpt><trkpt lat="41.22605808036828" lon="15.128766630115416"><ele>604.3333333333334</ele><time>2026-04-12T05:34:04Z</time></trkpt><trkpt lat="41.22585396476507" lon="15.128698903581265"><ele>604.0</ele><time>2026-04-12T05:34:05Z</time></trkpt><trkpt lat="41.225625263449764" lon="15.128626245749505"><ele>603.0</ele><time>2026-04-12T05:34:06Z</time></trkpt><trkpt lat="41.22539715846072" lon="15.12855246428453"><ele>602.0</ele><time>2026-04-12T05:34:07Z</time></trkpt><trkpt lat="41.22515877078863" lon="15.128473479196366"><ele>602.0</ele><time>2026-04-12T05:34:08Z</time></trkpt><trkpt lat="41.22490326318578" lon="15.128387760311917"><ele>602.0</ele><time>2026-04-12T05:34:09Z</time></trkpt><trkpt lat="41.2246441054948" lon="15.12830064926735"><ele>602.0</ele><time>2026-04-12T05:34:10Z</time></trkpt><trkpt lat="41.22441731258643" lon="15.12821284262592"><ele>602.0</ele><time>2026-04-12T05:34:11Z</time></trkpt><trkpt lat="41.22419570620586" lon="15.128146393545425"><ele>602.0</ele><time>2026-04-12T05:34:12Z</time></trkpt><trkpt lat="41.223990460021675" lon="15.128082996419964"><ele>602.0</ele><time>2026-04-12T05:34:13Z</time></trkpt><trkpt lat="41.22379517708011" lon="15.128019429997673"><ele>602.0</ele><time>2026-04-12T05:34:14Z</time></trkpt><trkpt lat="41.223611590247614" lon="15.12796026444479"><ele>601.6666666666666</ele><time>2026-04-12T05:34:15Z</time></trkpt><trkpt lat="41.223435680739165" lon="15.127909905367458"><ele>601.3333333333334</ele><time>2026-04-12T05:34:16Z</time></trkpt><trkpt lat="41.22327414178636" lon="15.127860513037431"><ele>601.0</ele><time>2026-04-12T05:34:17Z</time></trkpt><trkpt lat="41.22311600336332" lon="15.127809337026346"><ele>600.5</ele><time>2026-04-12T05:34:18Z</time></trkpt><trkpt lat="41.22296712948835" lon="15.127757966270268"><ele>600.0</ele><time>2026-04-12T05:34:19Z</time></trkpt><trkpt lat="41.22283814513608" lon="15.127709468942623"><ele>599.5</ele><time>2026-04-12T05:34:20Z</time></trkpt><trkpt lat="41.22273208302217" lon="15.127674655070209"><ele>599.0</ele><time>2026-04-12T05:34:21Z</time></trkpt><trkpt lat="41.222655392221625" lon="15.127659653441237"><ele>599.0</ele><time>2026-04-12T05:34:22Z</time></trkpt><trkpt lat="41.22255170089123" lon="15.127704364092919"><ele>599.0</ele><time>2026-04-12T05:34:24Z</time></trkpt><trkpt lat="41.222448248449446" lon="15.12779483162207"><ele>599.0</ele><time>2026-04-12T05:34:26Z</time></trkpt><trkpt lat="41.222367735762425" lon="15.127837062956516"><ele>599.0</ele><time>2026-04-12T05:34:27Z</time></trkpt><trkpt lat="41.22225662398141" lon="15.127867239110378"><ele>599.0</ele><time>2026-04-12T05:34:28Z</time></trkpt><trkpt lat="41.22212004087223" lon="15.127896201544157"><ele>598.6666666666666</ele><time>2026-04-12T05:34:29Z</time></trkpt><trkpt lat="41.221969136298" lon="15.127934164151677"><ele>598.3333333333334</ele><time>2026-04-12T05:34:30Z</time></trkpt><trkpt lat="41.22179668360391" lon="15.12799084633282"><ele>598.0</ele><time>2026-04-12T05:34:31Z</time></trkpt><trkpt lat="41.2216038151455" lon="15.128061924006492"><ele>596.6666666666667</ele><time>2026-04-12T05:34:32Z</time></trkpt><trkpt lat="41.22141521627475" lon="15.128126322465125"><ele>595.3333333333334</ele><time>2026-04-12T05:34:33Z</time></trkpt><trkpt lat="41.22122888002106" lon="15.12819134911619"><ele>594.0</ele><time>2026-04-12T05:34:34Z</time></trkpt><trkpt lat="41.22103284788357" lon="15.1282601267291"><ele>593.6666666666666</ele><time>2026-04-12T05:34:35Z</time></trkpt><trkpt lat="41.22082957889062" lon="15.1283227530485"><ele>593.3333333333333</ele><time>2026-04-12T05:34:36Z</time></trkpt><trkpt lat="41.22062457687464" lon="15.12838348922021"><ele>593.0</ele><time>2026-04-12T05:34:37Z</time></trkpt><trkpt lat="41.220423421516834" lon="15.128443716655747"><ele>592.6666666666666</ele><time>2026-04-12T05:34:38Z</time></trkpt><trkpt lat="41.2202267743645" lon="15.12850568472634"><ele>592.3333333333334</ele><time>2026-04-12T05:34:39Z</time></trkpt><trkpt lat="41.22003559750017" lon="15.12856361263059"><ele>592.0</ele><time>2026-04-12T05:34:40Z</time></trkpt><trkpt lat="41.21984885824581" lon="15.12861923755226"><ele>593.0</ele><time>2026-04-12T05:34:41Z</time></trkpt><trkpt lat="41.219661561317324" lon="15.128674833722531"><ele>594.0</ele><time>2026-04-12T05:34:42Z</time></trkpt><trkpt lat="41.219470786905745" lon="15.12872798374235"><ele>595.0</ele><time>2026-04-12T05:34:43Z</time></trkpt><trkpt lat="41.21928463929632" lon="15.128773598298398"><ele>595.0</ele><time>2026-04-12T05:34:44Z</time></trkpt><trkpt lat="41.219097421476306" lon="15.128817077142347"><ele>595.0</ele><time>2026-04-12T05:34:45Z</time></trkpt><trkpt lat="41.218910086376475" lon="15.128858961945387"><ele>595.0</ele><time>2026-04-12T05:34:46Z</time></trkpt><trkpt lat="41.21872532433229" lon="15.128902749293191"><ele>595.0</ele><time>2026-04-12T05:34:47Z</time></trkpt><trkpt lat="41.21854091742936" lon="15.128942763069343"><ele>595.0</ele><time>2026-04-12T05:34:48Z</time></trkpt><trkpt lat="41.218355589173925" lon="15.128983885324656"><ele>595.0</ele><time>2026-04-12T05:34:49Z</time></trkpt><trkpt lat="41.21817078365106" lon="15.129030898156103"><ele>595.0</ele><time>2026-04-12T05:34:50Z</time></trkpt><trkpt lat="41.21798982906206" lon="15.129069308687503"><ele>595.0</ele><time>2026-04-12T05:34:51Z</time></trkpt><trkpt lat="41.21781099246648" lon="15.129104167683687"><ele>595.0</ele><time>2026-04-12T05:34:52Z</time></trkpt><trkpt lat="41.21762858612269" lon="15.129135382391027"><ele>595.0</ele><time>2026-04-12T05:34:53Z</time></trkpt><trkpt lat="41.217443733541835" lon="15.129168018933076"><ele>595.0</ele><time>2026-04-12T05:34:54Z</time></trkpt><trkpt lat="41.21725081404628" lon="15.129201209631894"><ele>595.0</ele><time>2026-04-12T05:34:55Z</time></trkpt><trkpt lat="41.21705458816793" lon="15.129235049111868"><ele>595.6666666666667</ele><time>2026-04-12T05:34:56Z</time></trkpt><trkpt lat="41.216853779370624" lon="15.129268827264188"><ele>596.3333333333334</ele><time>2026-04-12T05:34:57Z</time></trkpt><trkpt lat="41.216656393295146" lon="15.129304189561923"><ele>597.0</ele><time>2026-04-12T05:34:58Z</time></trkpt><trkpt lat="41.21645749193139" lon="15.129337299695248"><ele>598.3333333333334</ele><time>2026-04-12T05:34:59Z</time></trkpt><trkpt lat="41.21626184672948" lon="15.129365518511356"><ele>599.6666666666667</ele><time>2026-04-12T05:35:00Z</time></trkpt><trkpt lat="41.2160744646171" lon="15.129393901254769"><ele>601.0</ele><time>2026-04-12T05:35:01Z</time></trkpt><trkpt lat="41.215889714373674" lon="15.129420212388935"><ele>601.0</ele><time>2026-04-12T05:35:02Z</time></trkpt><trkpt lat="41.215719372881374" lon="15.129446486556276"><ele>601.0</ele><time>2026-04-12T05:35:03Z</time></trkpt><trkpt lat="41.21556341450874" lon="15.129471332081232"><ele>601.0</ele><time>2026-04-12T05:35:04Z</time></trkpt><trkpt lat="41.21541342268862" lon="15.12950006448309"><ele>601.0</ele><time>2026-04-12T05:35:05Z</time></trkpt><trkpt lat="41.21526130392147" lon="15.129536976411233"><ele>601.0</ele><time>2026-04-12T05:35:06Z</time></trkpt><trkpt lat="41.21510382124943" lon="15.129572226371758"><ele>601.0</ele><time>2026-04-12T05:35:07Z</time></trkpt><trkpt lat="41.21494597367595" lon="15.129604906089483"><ele>600.6666666666667</ele><time>2026-04-12T05:35:08Z</time></trkpt><trkpt lat="41.21478416838549" lon="15.12964126003583"><ele>600.3333333333334</ele><time>2026-04-12T05:35:09Z</time></trkpt><trkpt lat="41.21461983493502" lon="15.129682178985538"><ele>600.0</ele><time>2026-04-12T05:35:10Z</time></trkpt><trkpt lat="41.21445719233156" lon="15.129723061547756"><ele>600.0</ele><time>2026-04-12T05:35:11Z</time></trkpt><trkpt lat="41.21429284167967" lon="15.12976502126559"><ele>600.0</ele><time>2026-04-12T05:35:12.001Z</time></trkpt><trkpt lat="41.214129999344486" lon="15.12980181042138"><ele>600.0</ele><time>2026-04-12T05:35:13.001Z</time></trkpt><trkpt lat="41.21396481556654" lon="15.129841653511221"><ele>600.3333333333334</ele><time>2026-04-12T05:35:14.001Z</time></trkpt><trkpt lat="41.213796738937134" lon="15.129880929246491"><ele>600.6666666666667</ele><time>2026-04-12T05:35:15.001Z</time></trkpt><trkpt lat="41.21362771101566" lon="15.129926821749258"><ele>601.0</ele><time>2026-04-12T05:35:16.001Z</time></trkpt><trkpt lat="41.213457942194054" lon="15.129984272466848"><ele>601.0</ele><time>2026-04-12T05:35:17.001Z</time></trkpt><trkpt lat="41.213290065776796" lon="15.13005813256364"><ele>601.0</ele><time>2026-04-12T05:35:18.001Z</time></trkpt><trkpt lat="41.2131196693228" lon="15.130139116548026"><ele>601.0</ele><time>2026-04-12T05:35:19.001Z</time></trkpt><trkpt lat="41.21294804920454" lon="15.13022182357146"><ele>601.3333333333334</ele><time>2026-04-12T05:35:20.001Z</time></trkpt><trkpt lat="41.21277638906139" lon="15.130306411966595"><ele>601.6666666666666</ele><time>2026-04-12T05:35:21.001Z</time></trkpt><trkpt lat="41.21260872991971" lon="15.1303969591051"><ele>602.0</ele><time>2026-04-12T05:35:22.001Z</time></trkpt><trkpt lat="41.212436773459146" lon="15.130484726233636"><ele>602.0</ele><time>2026-04-12T05:35:23.001Z</time></trkpt><trkpt lat="41.21227568242642" lon="15.130576193851093"><ele>602.0</ele><time>2026-04-12T05:35:24.001Z</time></trkpt><trkpt lat="41.212131951436156" lon="15.130661098797685"><ele>602.0</ele><time>2026-04-12T05:35:25.001Z</time></trkpt><trkpt lat="41.21199526175324" lon="15.130744091462148"><ele>602.0</ele><time>2026-04-12T05:35:26.001Z</time></trkpt><trkpt lat="41.21186384429682" lon="15.130817207542092"><ele>602.0</ele><time>2026-04-12T05:35:27.001Z</time></trkpt><trkpt lat="41.21172757098371" lon="15.13093227590174"><ele>602.0</ele><time>2026-04-12T05:35:28.001Z</time></trkpt><trkpt lat="41.211585027031745" lon="15.13099183106398"><ele>602.6666666666666</ele><time>2026-04-12T05:35:29.001Z</time></trkpt><trkpt lat="41.21144310873453" lon="15.131072107210805"><ele>603.3333333333334</ele><time>2026-04-12T05:35:30.001Z</time></trkpt><trkpt lat="41.211299888304985" lon="15.131150386376552"><ele>604.0</ele><time>2026-04-12T05:35:31.001Z</time></trkpt><trkpt lat="41.211126133490154" lon="15.131216921743835"><ele>604.0</ele><time>2026-04-12T05:35:32.001Z</time></trkpt><trkpt lat="41.210996775145425" lon="15.131321127688942"><ele>604.0</ele><time>2026-04-12T05:35:33.001Z</time></trkpt><trkpt lat="41.21085316079903" lon="15.131405663119983"><ele>604.0</ele><time>2026-04-12T05:35:34.001Z</time></trkpt><trkpt lat="41.21071247344935" lon="15.131499571673091"><ele>603.6666666666667</ele><time>2026-04-12T05:35:35.001Z</time></trkpt><trkpt lat="41.21057078509135" lon="15.131590903284614"><ele>603.3333333333334</ele><time>2026-04-12T05:35:36.001Z</time></trkpt><trkpt lat="41.210426479489605" lon="15.131680560401644"><ele>603.0</ele><time>2026-04-12T05:35:37.001Z</time></trkpt><trkpt lat="41.21028369899365" lon="15.131766482782927"><ele>603.0</ele><time>2026-04-12T05:35:38.001Z</time></trkpt><trkpt lat="41.210155839875306" lon="15.131853909583535"><ele>603.0</ele><time>2026-04-12T05:35:39.001Z</time></trkpt><trkpt lat="41.21003657292168" lon="15.13193270261191"><ele>603.0</ele><time>2026-04-12T05:35:40.001Z</time></trkpt><trkpt lat="41.20992865217141" lon="15.132005135870807"><ele>603.0</ele><time>2026-04-12T05:35:41.001Z</time></trkpt><trkpt lat="41.20982816545515" lon="15.132077257911536"><ele>603.0</ele><time>2026-04-12T05:35:42.001Z</time></trkpt><trkpt lat="41.209745114520395" lon="15.132138357211057"><ele>603.0</ele><time>2026-04-12T05:35:43.001Z</time></trkpt><trkpt lat="41.20966901935819" lon="15.132188746081672"><ele>603.0</ele><time>2026-04-12T05:35:44.001Z</time></trkpt><trkpt lat="41.20960781555481" lon="15.13223305108663"><ele>603.0</ele><time>2026-04-12T05:35:45.001Z</time></trkpt><trkpt lat="41.209555638430615" lon="15.132286145861055"><ele>603.0</ele><time>2026-04-12T05:35:46.001Z</time></trkpt><trkpt lat="41.20950860152608" lon="15.132425614286692"><ele>603.0</ele><time>2026-04-12T05:35:48.001Z</time></trkpt><trkpt lat="41.20951377521427" lon="15.13252037855228"><ele>603.0</ele><time>2026-04-12T05:35:49.001Z</time></trkpt><trkpt lat="41.2095525056509" lon="15.13263176560269"><ele>603.0</ele><time>2026-04-12T05:35:50.001Z</time></trkpt><trkpt lat="41.2095972507503" lon="15.13274789809376"><ele>603.0</ele><time>2026-04-12T05:35:51.001Z</time></trkpt><trkpt lat="41.2096563934467" lon="15.132872333891099"><ele>603.0</ele><time>2026-04-12T05:35:52.001Z</time></trkpt><trkpt lat="41.20972595365629" lon="15.132994075545152"><ele>603.0</ele><time>2026-04-12T05:35:53.001Z</time></trkpt><trkpt lat="41.20979258697132" lon="15.133132515700211"><ele>603.1999999999999</ele><time>2026-04-12T05:35:54.001Z</time></trkpt><trkpt lat="41.20984951346297" lon="15.133270934631922"><ele>603.4</ele><time>2026-04-12T05:35:55.001Z</time></trkpt><trkpt lat="41.20990497217635" lon="15.133404779816004"><ele>603.5999999999999</ele><time>2026-04-12T05:35:56.001Z</time></trkpt><trkpt lat="41.209948601327056" lon="15.133530658700348"><ele>603.8</ele><time>2026-04-12T05:35:57.001Z</time></trkpt><trkpt lat="41.209983091971075" lon="15.13364416872836"><ele>604.0</ele><time>2026-04-12T05:35:58.001Z</time></trkpt><trkpt lat="41.210024555972296" lon="15.13374941300145"><ele>604.0</ele><time>2026-04-12T05:35:59.001Z</time></trkpt><trkpt lat="41.21005787010085" lon="15.133845957406127"><ele>604.0</ele><time>2026-04-12T05:36:00.001Z</time></trkpt><trkpt lat="41.210088625267375" lon="15.13393601537695"><ele>604.0</ele><time>2026-04-12T05:36:01.001Z</time></trkpt><trkpt lat="41.210114819369124" lon="15.134016146970744"><ele>604.0</ele><time>2026-04-12T05:36:02.001Z</time></trkpt><trkpt lat="41.21011990762348" lon="15.134099861610673"><ele>604.0</ele><time>2026-04-12T05:36:03.001Z</time></trkpt><trkpt lat="41.21013048178293" lon="15.134185690800923"><ele>604.0</ele><time>2026-04-12T05:36:04Z</time></trkpt><trkpt lat="41.2100523507188" lon="15.13428121296332"><ele>604.0</ele><time>2026-04-12T05:36:05Z</time></trkpt><trkpt lat="41.20997414530772" lon="15.134328319297179"><ele>604.0</ele><time>2026-04-12T05:36:06Z</time></trkpt><trkpt lat="41.209874341415386" lon="15.13439700965083"><ele>604.0</ele><time>2026-04-12T05:36:07Z</time></trkpt><trkpt lat="41.20975428792456" lon="15.134477633807776"><ele>604.0</ele><time>2026-04-12T05:36:08Z</time></trkpt><trkpt lat="41.209625626115255" lon="15.134558492737948"><ele>604.25</ele><time>2026-04-12T05:36:09Z</time></trkpt><trkpt lat="41.209504918908856" lon="15.134634244232089"><ele>604.5</ele><time>2026-04-12T05:36:10Z</time></trkpt><trkpt lat="41.20938205317086" lon="15.134711350341625"><ele>604.75</ele><time>2026-04-12T05:36:11Z</time></trkpt><trkpt lat="41.20923642805894" lon="15.13480362551295"><ele>605.0</ele><time>2026-04-12T05:36:12Z</time></trkpt><trkpt lat="41.209077011084716" lon="15.134905403344497"><ele>606.3333333333333</ele><time>2026-04-12T05:36:13Z</time></trkpt><trkpt lat="41.20892693305753" lon="15.135001218838141"><ele>607.6666666666666</ele><time>2026-04-12T05:36:14Z</time></trkpt><trkpt lat="41.20878551815942" lon="15.135091503462162"><ele>609.0</ele><time>2026-04-12T05:36:15Z</time></trkpt><trkpt lat="41.20866109852471" lon="15.135170937667345"><ele>609.0</ele><time>2026-04-12T05:36:16Z</time></trkpt><trkpt lat="41.20853148049529" lon="15.135253690737523"><ele>609.0</ele><time>2026-04-12T05:36:17Z</time></trkpt><trkpt lat="41.20839775049205" lon="15.13533715367522"><ele>609.0</ele><time>2026-04-12T05:36:18Z</time></trkpt><trkpt lat="41.2082664375805" lon="15.13541747230498"><ele>609.0</ele><time>2026-04-12T05:36:19Z</time></trkpt><trkpt lat="41.20813443392452" lon="15.135491770047768"><ele>609.25</ele><time>2026-04-12T05:36:20Z</time></trkpt><trkpt lat="41.20800556937697" lon="15.135559097761531"><ele>609.5</ele><time>2026-04-12T05:36:21Z</time></trkpt><trkpt lat="41.20787129324164" lon="15.135623910214727"><ele>609.75</ele><time>2026-04-12T05:36:22Z</time></trkpt><trkpt lat="41.20773211081534" lon="15.135678876854806"><ele>610.0</ele><time>2026-04-12T05:36:23Z</time></trkpt><trkpt lat="41.20758598313236" lon="15.135716286563197"><ele>610.5</ele><time>2026-04-12T05:36:24Z</time></trkpt><trkpt lat="41.20744263436327" lon="15.135738231792159"><ele>611.0</ele><time>2026-04-12T05:36:25Z</time></trkpt><trkpt lat="41.207305507086296" lon="15.135763614562226"><ele>611.5</ele><time>2026-04-12T05:36:26Z</time></trkpt><trkpt lat="41.20717270937433" lon="15.135792209863116"><ele>612.0</ele><time>2026-04-12T05:36:27Z</time></trkpt><trkpt lat="41.20705836791023" lon="15.135833550989291"><ele>613.0</ele><time>2026-04-12T05:36:28Z</time></trkpt><trkpt lat="41.20695495907229" lon="15.135836054762928"><ele>614.0</ele><time>2026-04-12T05:36:29Z</time></trkpt><trkpt lat="41.20684205640657" lon="15.135835023942516"><ele>615.0</ele><time>2026-04-12T05:36:30Z</time></trkpt><trkpt lat="41.20670329553644" lon="15.135860411435809"><ele>616.0</ele><time>2026-04-12T05:36:31Z</time></trkpt><trkpt lat="41.20654934514712" lon="15.13590603499449"><ele>617.3333333333334</ele><time>2026-04-12T05:36:32Z</time></trkpt><trkpt lat="41.20637482837885" lon="15.1359314376565"><ele>618.6666666666666</ele><time>2026-04-12T05:36:33Z</time></trkpt><trkpt lat="41.206199522537645" lon="15.135950120812616"><ele>620.0</ele><time>2026-04-12T05:36:34Z</time></trkpt><trkpt lat="41.206026642347524" lon="15.135968234241766"><ele>620.0</ele><time>2026-04-12T05:36:35Z</time></trkpt><trkpt lat="41.20586827605857" lon="15.135991770298757"><ele>620.0</ele><time>2026-04-12T05:36:36Z</time></trkpt><trkpt lat="41.205730465535375" lon="15.136014101606987"><ele>620.0</ele><time>2026-04-12T05:36:37Z</time></trkpt><trkpt lat="41.20559271804495" lon="15.136043476593962"><ele>620.0</ele><time>2026-04-12T05:36:38Z</time></trkpt><trkpt lat="41.20545838997737" lon="15.1360634083667"><ele>620.0</ele><time>2026-04-12T05:36:39Z</time></trkpt><trkpt lat="41.20532408951719" lon="15.136080400410803"><ele>620.0</ele><time>2026-04-12T05:36:40Z</time></trkpt><trkpt lat="41.20518953218451" lon="15.136098692763136"><ele>620.0</ele><time>2026-04-12T05:36:41Z</time></trkpt><trkpt lat="41.20505442684079" lon="15.136114649399987"><ele>620.0</ele><time>2026-04-12T05:36:42Z</time></trkpt><trkpt lat="41.20492109395674" lon="15.13613777676821"><ele>620.0</ele><time>2026-04-12T05:36:43Z</time></trkpt><trkpt lat="41.204787292671945" lon="15.13615874479411"><ele>620.0</ele><time>2026-04-12T05:36:44Z</time></trkpt><trkpt lat="41.20465630757381" lon="15.136184462912333"><ele>620.0</ele><time>2026-04-12T05:36:45Z</time></trkpt><trkpt lat="41.20452390739076" lon="15.136213514987498"><ele>620.0</ele><time>2026-04-12T05:36:46Z</time></trkpt><trkpt lat="41.20438851006289" lon="15.136237324560112"><ele>620.0</ele><time>2026-04-12T05:36:47Z</time></trkpt><trkpt lat="41.20425199545678" lon="15.136256338622333"><ele>620.0</ele><time>2026-04-12T05:36:48Z</time></trkpt><trkpt lat="41.20411725961844" lon="15.136275741351012"><ele>620.0</ele><time>2026-04-12T05:36:49Z</time></trkpt><trkpt lat="41.20397653075387" lon="15.136288038121137"><ele>620.0</ele><time>2026-04-12T05:36:50Z</time></trkpt><trkpt lat="41.20383781150146" lon="15.136296109968518"><ele>620.25</ele><time>2026-04-12T05:36:51Z</time></trkpt><trkpt lat="41.203699325410525" lon="15.136310768188125"><ele>620.5</ele><time>2026-04-12T05:36:52Z</time></trkpt><trkpt lat="41.20356074927259" lon="15.136324337676383"><ele>620.75</ele><time>2026-04-12T05:36:53Z</time></trkpt><trkpt lat="41.20342148480572" lon="15.136331094468774"><ele>621.0</ele><time>2026-04-12T05:36:54Z</time></trkpt><trkpt lat="41.20329467013681" lon="15.136334531254523"><ele>621.0</ele><time>2026-04-12T05:36:55Z</time></trkpt><trkpt lat="41.203172924383985" lon="15.136338514955868"><ele>621.0</ele><time>2026-04-12T05:36:56Z</time></trkpt><trkpt lat="41.20306608055179" lon="15.1363527508863"><ele>621.0</ele><time>2026-04-12T05:36:57Z</time></trkpt><trkpt lat="41.2029680177574" lon="15.136353460263768"><ele>621.0</ele><time>2026-04-12T05:36:58Z</time></trkpt><trkpt lat="41.20288282624916" lon="15.136350603216613"><ele>621.0</ele><time>2026-04-12T05:36:59Z</time></trkpt><trkpt lat="41.20280950228117" lon="15.136357647220512"><ele>621.1666666666666</ele><time>2026-04-12T05:37:00Z</time></trkpt><trkpt lat="41.202739844589274" lon="15.136359766600128"><ele>621.3333333333334</ele><time>2026-04-12T05:37:01Z</time></trkpt><trkpt lat="41.20264086807502" lon="15.13633976798775"><ele>621.5</ele><time>2026-04-12T05:37:03Z</time></trkpt><trkpt lat="41.20257453851448" lon="15.136345895893578"><ele>621.6666666666667</ele><time>2026-04-12T05:37:06Z</time></trkpt><trkpt lat="41.20250260764423" lon="15.136330278601223"><ele>621.8333333333334</ele><time>2026-04-12T05:37:10Z</time></trkpt><trkpt lat="41.20243928436342" lon="15.136357314831052"><ele>622.0</ele><time>2026-04-12T05:37:12Z</time></trkpt><trkpt lat="41.20236326397607" lon="15.136363732925513"><ele>622.0</ele><time>2026-04-12T05:37:40.001Z</time></trkpt><trkpt lat="41.20229096720732" lon="15.136369836636359"><ele>622.0</ele><time>2026-04-12T05:37:45.001Z</time></trkpt><trkpt lat="41.20222658380665" lon="15.136374559800696"><ele>622.0</ele><time>2026-04-12T05:37:49.001Z</time></trkpt><trkpt lat="41.202242849976784" lon="15.136196709826955"><ele>622.0</ele><time>2026-04-12T05:37:56.001Z</time></trkpt><trkpt lat="41.20232076473425" lon="15.136208190413532"><ele>622.0</ele><time>2026-04-12T05:37:59.001Z</time></trkpt><trkpt lat="41.202384297509305" lon="15.136209860657022"><ele>622.0</ele><time>2026-04-12T05:38:02.001Z</time></trkpt><trkpt lat="41.202453958293006" lon="15.136199450392352"><ele>622.0</ele><time>2026-04-12T05:38:05.001Z</time></trkpt><trkpt lat="41.20251738887067" lon="15.136219066103868"><ele>622.0</ele><time>2026-04-12T05:38:08.001Z</time></trkpt><trkpt lat="41.20248369033885" lon="15.136134028168494"><ele>622.0</ele><time>2026-04-12T05:38:13Z</time></trkpt><trkpt lat="41.20241483076612" lon="15.136162889246654"><ele>622.0</ele><time>2026-04-12T05:38:16Z</time></trkpt><trkpt lat="41.20233890175876" lon="15.13614793495871"><ele>622.0</ele><time>2026-04-12T05:38:20Z</time></trkpt><trkpt lat="41.202256062057266" lon="15.136163300504942"><ele>622.0</ele><time>2026-04-12T05:38:26Z</time></trkpt><trkpt lat="41.20217901009838" lon="15.136153537871628"><ele>622.0</ele><time>2026-04-12T05:38:31Z</time></trkpt><trkpt lat="41.20220968581455" lon="15.136230380494034"><ele>622.0</ele><time>2026-04-12T05:38:34Z</time></trkpt><trkpt lat="41.20229224400186" lon="15.136225000168226"><ele>622.0</ele><time>2026-04-12T05:38:37Z</time></trkpt><trkpt lat="41.20237195817132" lon="15.136429297187611"><ele>622.0</ele><time>2026-04-12T05:38:40Z</time></trkpt><trkpt lat="41.20251515995835" lon="15.136404781633011"><ele>622.0</ele><time>2026-04-12T05:38:47Z</time></trkpt><trkpt lat="41.202431746185376" lon="15.13641403331905"><ele>622.4</ele><time>2026-04-12T05:38:50Z</time></trkpt><trkpt lat="41.20231459371727" lon="15.136411302450968"><ele>622.8000000000001</ele><time>2026-04-12T05:38:52Z</time></trkpt><trkpt lat="41.20224741702906" lon="15.13639496581564"><ele>623.2</ele><time>2026-04-12T05:38:53Z</time></trkpt><trkpt lat="41.20212566649946" lon="15.136395161265519"><ele>623.6</ele><time>2026-04-12T05:38:55Z</time></trkpt><trkpt lat="41.20200833145969" lon="15.136395350687065"><ele>624.0</ele><time>2026-04-12T05:38:57Z</time></trkpt><trkpt lat="41.20190989776023" lon="15.136400101807709"><ele>624.0</ele><time>2026-04-12T05:38:59Z</time></trkpt><trkpt lat="41.20182772968782" lon="15.136418451050927"><ele>624.0</ele><time>2026-04-12T05:39:01Z</time></trkpt><trkpt lat="41.2017433778788" lon="15.136423065196672"><ele>624.0</ele><time>2026-04-12T05:39:03Z</time></trkpt><trkpt lat="41.201714141300506" lon="15.136709677837917"><ele>624.0</ele><time>2026-04-12T05:39:05Z</time></trkpt><trkpt lat="41.20172471126153" lon="15.136854761691595"><ele>624.4</ele><time>2026-04-12T05:39:07Z</time></trkpt><trkpt lat="41.20174997352925" lon="15.137017620307338"><ele>624.8</ele><time>2026-04-12T05:39:09Z</time></trkpt><trkpt lat="41.20175669784945" lon="15.137115393410006"><ele>625.2</ele><time>2026-04-12T05:39:10Z</time></trkpt><trkpt lat="41.20176080414702" lon="15.137225096943526"><ele>625.6</ele><time>2026-04-12T05:39:11Z</time></trkpt><trkpt lat="41.20177012655871" lon="15.137348146791357"><ele>626.0</ele><time>2026-04-12T05:39:12Z</time></trkpt><trkpt lat="41.201780842995014" lon="15.137484793391703"><ele>626.6666666666666</ele><time>2026-04-12T05:39:13Z</time></trkpt><trkpt lat="41.201786304757945" lon="15.13761657781691"><ele>627.3333333333333</ele><time>2026-04-12T05:39:14Z</time></trkpt><trkpt lat="41.20178712161886" lon="15.137725729982456"><ele>628.0</ele><time>2026-04-12T05:39:15Z</time></trkpt><trkpt lat="41.201790188391044" lon="15.137829320156378"><ele>628.6666666666666</ele><time>2026-04-12T05:39:16Z</time></trkpt><trkpt lat="41.20179080678022" lon="15.137939341592912"><ele>629.3333333333334</ele><time>2026-04-12T05:39:17Z</time></trkpt><trkpt lat="41.201795975293905" lon="15.138044663167163"><ele>630.0</ele><time>2026-04-12T05:39:18.001Z</time></trkpt><trkpt lat="41.201798645441876" lon="15.138154149063658"><ele>630.0</ele><time>2026-04-12T05:39:19.001Z</time></trkpt><trkpt lat="41.2017934068802" lon="15.138276083474475"><ele>630.0</ele><time>2026-04-12T05:39:20.001Z</time></trkpt><trkpt lat="41.20176347337982" lon="15.138380652210405"><ele>630.0</ele><time>2026-04-12T05:39:21.001Z</time></trkpt><trkpt lat="41.20174053077808" lon="15.138482876131844"><ele>630.0</ele><time>2026-04-12T05:39:22.001Z</time></trkpt><trkpt lat="41.20171185363142" lon="15.138588834417558"><ele>630.0</ele><time>2026-04-12T05:39:23.001Z</time></trkpt><trkpt lat="41.20168210435185" lon="15.138703795437982"><ele>630.0</ele><time>2026-04-12T05:39:24.001Z</time></trkpt><trkpt lat="41.20164103274477" lon="15.138847233060913"><ele>630.0</ele><time>2026-04-12T05:39:25.001Z</time></trkpt><trkpt lat="41.201598996849086" lon="15.138993817331771"><ele>630.0</ele><time>2026-04-12T05:39:26.001Z</time></trkpt><trkpt lat="41.20156210046489" lon="15.139122479376061"><ele>630.0</ele><time>2026-04-12T05:39:27.001Z</time></trkpt><trkpt lat="41.20154017022856" lon="15.139248236197997"><ele>630.0</ele><time>2026-04-12T05:39:28.001Z</time></trkpt><trkpt lat="41.201499562411726" lon="15.139360621073617"><ele>630.0</ele><time>2026-04-12T05:39:29.001Z</time></trkpt><trkpt lat="41.20145715050586" lon="15.139493984789318"><ele>629.8</ele><time>2026-04-12T05:39:30.001Z</time></trkpt><trkpt lat="41.20141692885459" lon="15.13962250173348"><ele>629.6</ele><time>2026-04-12T05:39:31.001Z</time></trkpt><trkpt lat="41.201375385708026" lon="15.139738049637963"><ele>629.4</ele><time>2026-04-12T05:39:32.001Z</time></trkpt><trkpt lat="41.20132800455196" lon="15.13984821010056"><ele>629.2</ele><time>2026-04-12T05:39:33.001Z</time></trkpt><trkpt lat="41.20129163970535" lon="15.13993676584427"><ele>629.0</ele><time>2026-04-12T05:39:34.001Z</time></trkpt><trkpt lat="41.20125446373526" lon="15.14003877814321"><ele>629.0</ele><time>2026-04-12T05:39:35.001Z</time></trkpt><trkpt lat="41.201217090127905" lon="15.140125669752818"><ele>629.0</ele><time>2026-04-12T05:39:36.001Z</time></trkpt><trkpt lat="41.2011951393703" lon="15.140232615943916"><ele>629.0</ele><time>2026-04-12T05:39:37.001Z</time></trkpt><trkpt lat="41.20111136828357" lon="15.140297871566709"><ele>629.0</ele><time>2026-04-12T05:39:38.001Z</time></trkpt><trkpt lat="41.20104189130146" lon="15.140359619553342"><ele>629.0</ele><time>2026-04-12T05:39:39.001Z</time></trkpt><trkpt lat="41.20095989981643" lon="15.140396478995928"><ele>629.0</ele><time>2026-04-12T05:39:40.001Z</time></trkpt><trkpt lat="41.200868040327144" lon="15.140423343612706"><ele>629.0</ele><time>2026-04-12T05:39:41.001Z</time></trkpt><trkpt lat="41.2007811900058" lon="15.140433113890916"><ele>629.0</ele><time>2026-04-12T05:39:42.001Z</time></trkpt><trkpt lat="41.200701726338764" lon="15.140462078812078"><ele>629.0</ele><time>2026-04-12T05:39:43.001Z</time></trkpt><trkpt lat="41.200614353691364" lon="15.140482542336503"><ele>629.0</ele><time>2026-04-12T05:39:44.001Z</time></trkpt><trkpt lat="41.200507762918086" lon="15.140373309248528"><ele>629.0</ele><time>2026-04-12T05:39:45.001Z</time></trkpt><trkpt lat="41.200359561360216" lon="15.140302772053467"><ele>628.3333333333333</ele><time>2026-04-12T05:39:46.001Z</time></trkpt><trkpt lat="41.20021433821615" lon="15.140249933110539"><ele>627.6666666666666</ele><time>2026-04-12T05:39:47.001Z</time></trkpt><trkpt lat="41.20007315441846" lon="15.140173074186533"><ele>627.0</ele><time>2026-04-12T05:39:48.001Z</time></trkpt><trkpt lat="41.199921199227184" lon="15.140101148249764"><ele>626.3333333333334</ele><time>2026-04-12T05:39:49.001Z</time></trkpt><trkpt lat="41.1997492348264" lon="15.140023528301896"><ele>625.6666666666667</ele><time>2026-04-12T05:39:50.001Z</time></trkpt><trkpt lat="41.199557167870175" lon="15.139928405520045"><ele>625.0</ele><time>2026-04-12T05:39:51.001Z</time></trkpt><trkpt lat="41.19935254837713" lon="15.139832370837814"><ele>626.5</ele><time>2026-04-12T05:39:52.001Z</time></trkpt><trkpt lat="41.19914995658255" lon="15.139735139169582"><ele>628.0</ele><time>2026-04-12T05:39:53.001Z</time></trkpt><trkpt lat="41.19892932518725" lon="15.139630289631608"><ele>628.0</ele><time>2026-04-12T05:39:54.001Z</time></trkpt><trkpt lat="41.19868822071757" lon="15.13951738099036"><ele>628.0</ele><time>2026-04-12T05:39:55.001Z</time></trkpt><trkpt lat="41.19844515092465" lon="15.139392109596052"><ele>628.0</ele><time>2026-04-12T05:39:56.001Z</time></trkpt><trkpt lat="41.198208099866065" lon="15.139272985411626"><ele>628.0</ele><time>2026-04-12T05:39:57.001Z</time></trkpt><trkpt lat="41.19798454498423" lon="15.139168287778224"><ele>628.0</ele><time>2026-04-12T05:39:58.001Z</time></trkpt><trkpt lat="41.197778239796996" lon="15.13906365830896"><ele>628.0</ele><time>2026-04-12T05:39:59.001Z</time></trkpt><trkpt lat="41.19755580114071" lon="15.138967988462742"><ele>628.3333333333334</ele><time>2026-04-12T05:40:00.001Z</time></trkpt><trkpt lat="41.19735009296317" lon="15.13886799311398"><ele>628.6666666666666</ele><time>2026-04-12T05:40:01.001Z</time></trkpt><trkpt lat="41.197163196175616" lon="15.13878696857151"><ele>629.0</ele><time>2026-04-12T05:40:02.001Z</time></trkpt><trkpt lat="41.196982469859655" lon="15.13870283035084"><ele>629.3333333333333</ele><time>2026-04-12T05:40:03.001Z</time></trkpt><trkpt lat="41.1968126806833" lon="15.138624499126994"><ele>629.6666666666666</ele><time>2026-04-12T05:40:04.001Z</time></trkpt><trkpt lat="41.19664605233279" lon="15.138540550515696"><ele>630.0</ele><time>2026-04-12T05:40:05.001Z</time></trkpt><trkpt lat="41.1964792768443" lon="15.138460257407825"><ele>628.6666666666666</ele><time>2026-04-12T05:40:06.001Z</time></trkpt><trkpt lat="41.19630898648307" lon="15.138384094224762"><ele>627.3333333333333</ele><time>2026-04-12T05:40:07.001Z</time></trkpt><trkpt lat="41.19614128937996" lon="15.138315409698073"><ele>626.0</ele><time>2026-04-12T05:40:08.001Z</time></trkpt><trkpt lat="41.195971489370095" lon="15.138232522094778"><ele>626.6666666666666</ele><time>2026-04-12T05:40:09.001Z</time></trkpt><trkpt lat="41.19578585493636" lon="15.138149786011518"><ele>627.3333333333334</ele><time>2026-04-12T05:40:10.001Z</time></trkpt><trkpt lat="41.19559363836909" lon="15.138059269763739"><ele>628.0</ele><time>2026-04-12T05:40:11.001Z</time></trkpt><trkpt lat="41.19539189028197" lon="15.13797160706757"><ele>628.0</ele><time>2026-04-12T05:40:12.001Z</time></trkpt><trkpt lat="41.19520750592458" lon="15.137887049894978"><ele>628.0</ele><time>2026-04-12T05:40:13.001Z</time></trkpt><trkpt lat="41.19502126784799" lon="15.137800816365727"><ele>628.0</ele><time>2026-04-12T05:40:14.001Z</time></trkpt><trkpt lat="41.19483228354216" lon="15.137715625302661"><ele>627.3333333333334</ele><time>2026-04-12T05:40:15.001Z</time></trkpt><trkpt lat="41.19464158804438" lon="15.137633341113574"><ele>626.6666666666666</ele><time>2026-04-12T05:40:16Z</time></trkpt><trkpt lat="41.194454803608714" lon="15.137541957905713"><ele>626.0</ele><time>2026-04-12T05:40:17Z</time></trkpt><trkpt lat="41.19426394426853" lon="15.137456562549842"><ele>626.0</ele><time>2026-04-12T05:40:18Z</time></trkpt><trkpt lat="41.19406882141787" lon="15.137368537950822"><ele>626.0</ele><time>2026-04-12T05:40:19Z</time></trkpt><trkpt lat="41.19387843437436" lon="15.137279524889497"><ele>626.0</ele><time>2026-04-12T05:40:20Z</time></trkpt><trkpt lat="41.19368423202901" lon="15.137181869088279"><ele>626.0</ele><time>2026-04-12T05:40:21Z</time></trkpt><trkpt lat="41.19349128775973" lon="15.137085880285554"><ele>626.0</ele><time>2026-04-12T05:40:22Z</time></trkpt><trkpt lat="41.19329570829313" lon="15.13698948204161"><ele>626.0</ele><time>2026-04-12T05:40:23Z</time></trkpt><trkpt lat="41.1931018121601" lon="15.13690693394969"><ele>626.0</ele><time>2026-04-12T05:40:24Z</time></trkpt><trkpt lat="41.192906445288564" lon="15.136816100936267"><ele>626.0</ele><time>2026-04-12T05:40:25Z</time></trkpt><trkpt lat="41.19269963028008" lon="15.136718662457369"><ele>626.0</ele><time>2026-04-12T05:40:26Z</time></trkpt><trkpt lat="41.19250424363022" lon="15.1366364228155"><ele>627.0</ele><time>2026-04-12T05:40:27Z</time></trkpt><trkpt lat="41.19232152885782" lon="15.136537207373733"><ele>628.0</ele><time>2026-04-12T05:40:28Z</time></trkpt><trkpt lat="41.19212761168959" lon="15.136444989877672"><ele>629.0</ele><time>2026-04-12T05:40:29Z</time></trkpt><trkpt lat="41.191938774182674" lon="15.136356807827216"><ele>629.0</ele><time>2026-04-12T05:40:30Z</time></trkpt><trkpt lat="41.19175635482495" lon="15.136249082449153"><ele>629.0</ele><time>2026-04-12T05:40:31Z</time></trkpt><trkpt lat="41.19154900040275" lon="15.136170506678258"><ele>629.0</ele><time>2026-04-12T05:40:32Z</time></trkpt><trkpt lat="41.19136873126617" lon="15.136088203124094"><ele>629.3333333333333</ele><time>2026-04-12T05:40:33Z</time></trkpt><trkpt lat="41.19117925457589" lon="15.13598800540895"><ele>629.6666666666666</ele><time>2026-04-12T05:40:34Z</time></trkpt><trkpt lat="41.19099341638495" lon="15.135899073755487"><ele>630.0</ele><time>2026-04-12T05:40:35Z</time></trkpt><trkpt lat="41.19080834499665" lon="15.13583000305386"><ele>630.3333333333334</ele><time>2026-04-12T05:40:36Z</time></trkpt><trkpt lat="41.19061769264871" lon="15.135722184187001"><ele>630.6666666666667</ele><time>2026-04-12T05:40:37Z</time></trkpt><trkpt lat="41.19042988729659" lon="15.135640091901541"><ele>631.0</ele><time>2026-04-12T05:40:38Z</time></trkpt><trkpt lat="41.19024371319589" lon="15.135553404927718"><ele>631.6666666666667</ele><time>2026-04-12T05:40:39Z</time></trkpt><trkpt lat="41.19005594582014" lon="15.13547043244612"><ele>632.3333333333334</ele><time>2026-04-12T05:40:40Z</time></trkpt><trkpt lat="41.1898668624428" lon="15.135395911397499"><ele>633.0</ele><time>2026-04-12T05:40:41Z</time></trkpt><trkpt lat="41.18966864955843" lon="15.135331923919114"><ele>633.6666666666666</ele><time>2026-04-12T05:40:42Z</time></trkpt><trkpt lat="41.189468333710636" lon="15.135273170412038"><ele>634.3333333333333</ele><time>2026-04-12T05:40:43Z</time></trkpt><trkpt lat="41.18927039599779" lon="15.135227695416956"><ele>635.0</ele><time>2026-04-12T05:40:44Z</time></trkpt><trkpt lat="41.189065086529915" lon="15.135160052315578"><ele>635.6666666666666</ele><time>2026-04-12T05:40:45Z</time></trkpt><trkpt lat="41.1888490092855" lon="15.135118631910148"><ele>636.3333333333334</ele><time>2026-04-12T05:40:46Z</time></trkpt><trkpt lat="41.18865122561856" lon="15.135038752796923"><ele>637.0</ele><time>2026-04-12T05:40:47Z</time></trkpt><trkpt lat="41.18843256492996" lon="15.134989124106138"><ele>637.0</ele><time>2026-04-12T05:40:48Z</time></trkpt><trkpt lat="41.18822348193095" lon="15.134931238981514"><ele>637.0</ele><time>2026-04-12T05:40:49Z</time></trkpt><trkpt lat="41.18801153234953" lon="15.134875916434916"><ele>637.0</ele><time>2026-04-12T05:40:50Z</time></trkpt><trkpt lat="41.18781729150479" lon="15.134827777471218"><ele>636.0</ele><time>2026-04-12T05:40:51Z</time></trkpt><trkpt lat="41.1876154443105" lon="15.134761970128258"><ele>635.0</ele><time>2026-04-12T05:40:52Z</time></trkpt><trkpt lat="41.1874084537752" lon="15.134703349991263"><ele>634.0</ele><time>2026-04-12T05:40:53Z</time></trkpt><trkpt lat="41.187201254195756" lon="15.134678698545494"><ele>636.6666666666667</ele><time>2026-04-12T05:40:54Z</time></trkpt><trkpt lat="41.18699983180397" lon="15.134612508951411"><ele>639.3333333333334</ele><time>2026-04-12T05:40:55Z</time></trkpt><trkpt lat="41.18680227596119" lon="15.134543944120546"><ele>642.0</ele><time>2026-04-12T05:40:56Z</time></trkpt><trkpt lat="41.1866066457273" lon="15.13448616772162"><ele>643.6666666666666</ele><time>2026-04-12T05:40:57Z</time></trkpt><trkpt lat="41.18640447694225" lon="15.134430569867828"><ele>645.3333333333333</ele><time>2026-04-12T05:40:58Z</time></trkpt><trkpt lat="41.18621066155966" lon="15.134380345701315"><ele>647.0</ele><time>2026-04-12T05:40:59Z</time></trkpt><trkpt lat="41.18600774786027" lon="15.134333288460253"><ele>647.0</ele><time>2026-04-12T05:41:00Z</time></trkpt><trkpt lat="41.18581116630939" lon="15.13428850912341"><ele>647.0</ele><time>2026-04-12T05:41:01Z</time></trkpt><trkpt lat="41.185621359487264" lon="15.134247865143196"><ele>647.0</ele><time>2026-04-12T05:41:02Z</time></trkpt><trkpt lat="41.18544415020593" lon="15.134212772004277"><ele>648.6666666666666</ele><time>2026-04-12T05:41:03Z</time></trkpt><trkpt lat="41.1852717399146" lon="15.1341906879289"><ele>650.3333333333334</ele><time>2026-04-12T05:41:04Z</time></trkpt><trkpt lat="41.18511096446434" lon="15.134191781765663"><ele>652.0</ele><time>2026-04-12T05:41:05Z</time></trkpt><trkpt lat="41.18495030231063" lon="15.134223439013592"><ele>653.0</ele><time>2026-04-12T05:41:06Z</time></trkpt><trkpt lat="41.18478726471468" lon="15.134280892109903"><ele>654.0</ele><time>2026-04-12T05:41:07Z</time></trkpt><trkpt lat="41.184645626998474" lon="15.134353240080067"><ele>655.0</ele><time>2026-04-12T05:41:08Z</time></trkpt><trkpt lat="41.18451585891137" lon="15.13442428252346"><ele>655.0</ele><time>2026-04-12T05:41:09Z</time></trkpt><trkpt lat="41.184376720845556" lon="15.134458854580844"><ele>655.0</ele><time>2026-04-12T05:41:10Z</time></trkpt><trkpt lat="41.18422796145917" lon="15.134439468920263"><ele>655.0</ele><time>2026-04-12T05:41:11Z</time></trkpt><trkpt lat="41.184073897078335" lon="15.134380873087686"><ele>655.3333333333334</ele><time>2026-04-12T05:41:12Z</time></trkpt><trkpt lat="41.18391741900453" lon="15.134289048573203"><ele>655.6666666666666</ele><time>2026-04-12T05:41:13Z</time></trkpt><trkpt lat="41.18377525759886" lon="15.134181604670037"><ele>656.0</ele><time>2026-04-12T05:41:14Z</time></trkpt><trkpt lat="41.18365859603713" lon="15.134047970843694"><ele>656.0</ele><time>2026-04-12T05:41:15Z</time></trkpt><trkpt lat="41.18357534950685" lon="15.133881565103843"><ele>656.0</ele><time>2026-04-12T05:41:16Z</time></trkpt><trkpt lat="41.18352708837275" lon="15.133661117164342"><ele>656.0</ele><time>2026-04-12T05:41:17Z</time></trkpt><trkpt lat="41.183469796575665" lon="15.133416862071819"><ele>658.3333333333333</ele><time>2026-04-12T05:41:18Z</time></trkpt><trkpt lat="41.18340906474699" lon="15.133137946688736"><ele>660.6666666666666</ele><time>2026-04-12T05:41:19Z</time></trkpt><trkpt lat="41.183362108828355" lon="15.132972525446663"><ele>663.0</ele><time>2026-04-12T05:41:20Z</time></trkpt><trkpt lat="41.18329708790612" lon="15.132780515574009"><ele>663.0</ele><time>2026-04-12T05:41:21Z</time></trkpt><trkpt lat="41.18322412705934" lon="15.132606923170643"><ele>663.0</ele><time>2026-04-12T05:41:22Z</time></trkpt><trkpt lat="41.183125975854615" lon="15.132434734070872"><ele>663.0</ele><time>2026-04-12T05:41:23Z</time></trkpt><trkpt lat="41.18301858622554" lon="15.132291514570534"><ele>665.3333333333334</ele><time>2026-04-12T05:41:24Z</time></trkpt><trkpt lat="41.18288615460329" lon="15.132178891751433"><ele>667.6666666666667</ele><time>2026-04-12T05:41:25Z</time></trkpt><trkpt lat="41.182733933434" lon="15.132100382113153"><ele>670.0</ele><time>2026-04-12T05:41:26Z</time></trkpt><trkpt lat="41.182565493720205" lon="15.13206253640645"><ele>670.0</ele><time>2026-04-12T05:41:27Z</time></trkpt><trkpt lat="41.18238311762825" lon="15.132044521984023"><ele>670.0</ele><time>2026-04-12T05:41:28Z</time></trkpt><trkpt lat="41.1821886065748" lon="15.132045741286486"><ele>670.0</ele><time>2026-04-12T05:41:29Z</time></trkpt><trkpt lat="41.181993521148186" lon="15.132047689691113"><ele>668.6666666666667</ele><time>2026-04-12T05:41:30Z</time></trkpt><trkpt lat="41.18179319055165" lon="15.132050541758318"><ele>667.3333333333334</ele><time>2026-04-12T05:41:31Z</time></trkpt><trkpt lat="41.181586856562326" lon="15.132062137506251"><ele>666.0</ele><time>2026-04-12T05:41:32Z</time></trkpt><trkpt lat="41.18138175087805" lon="15.132073476381363"><ele>663.6666666666666</ele><time>2026-04-12T05:41:33Z</time></trkpt><trkpt lat="41.181180542905324" lon="15.132083963164291"><ele>661.3333333333333</ele><time>2026-04-12T05:41:34Z</time></trkpt><trkpt lat="41.18098259326981" lon="15.132096819406614"><ele>659.0</ele><time>2026-04-12T05:41:35Z</time></trkpt><trkpt lat="41.18079061467119" lon="15.132109603454973"><ele>658.0</ele><time>2026-04-12T05:41:36Z</time></trkpt><trkpt lat="41.18060289983544" lon="15.13211854225261"><ele>657.0</ele><time>2026-04-12T05:41:37.001Z</time></trkpt><trkpt lat="41.18042032524606" lon="15.1321259903832"><ele>656.0</ele><time>2026-04-12T05:41:38.001Z</time></trkpt><trkpt lat="41.180242284906406" lon="15.132139399290509"><ele>656.0</ele><time>2026-04-12T05:41:39.001Z</time></trkpt><trkpt lat="41.18005062997234" lon="15.132137393107364"><ele>656.0</ele><time>2026-04-12T05:41:40.001Z</time></trkpt><trkpt lat="41.179866973109924" lon="15.132147562933593"><ele>656.0</ele><time>2026-04-12T05:41:41.001Z</time></trkpt><trkpt lat="41.17968254022544" lon="15.132176878754825"><ele>654.3333333333333</ele><time>2026-04-12T05:41:42.001Z</time></trkpt><trkpt lat="41.179494677231084" lon="15.132181234086922"><ele>652.6666666666666</ele><time>2026-04-12T05:41:43.001Z</time></trkpt><trkpt lat="41.17930673270118" lon="15.13220913502751"><ele>651.0</ele><time>2026-04-12T05:41:44.001Z</time></trkpt><trkpt lat="41.17911743217851" lon="15.132260034945961"><ele>651.6666666666666</ele><time>2026-04-12T05:41:45.001Z</time></trkpt><trkpt lat="41.17892985046882" lon="15.132329030977427"><ele>652.3333333333333</ele><time>2026-04-12T05:41:46.001Z</time></trkpt><trkpt lat="41.17873625856562" lon="15.132410503460372"><ele>653.0</ele><time>2026-04-12T05:41:47.001Z</time></trkpt><trkpt lat="41.17853810947132" lon="15.13249484038738"><ele>653.0</ele><time>2026-04-12T05:41:48.001Z</time></trkpt><trkpt lat="41.17837459403238" lon="15.132567782305694"><ele>653.0</ele><time>2026-04-12T05:41:49.001Z</time></trkpt><trkpt lat="41.178201123267065" lon="15.132652554416413"><ele>653.0</ele><time>2026-04-12T05:41:50.001Z</time></trkpt><trkpt lat="41.17802901582963" lon="15.132727827391703"><ele>651.3333333333333</ele><time>2026-04-12T05:41:51.001Z</time></trkpt><trkpt lat="41.177848399659425" lon="15.132791328927897"><ele>649.6666666666666</ele><time>2026-04-12T05:41:52.001Z</time></trkpt><trkpt lat="41.17766174795782" lon="15.132832124668278"><ele>648.0</ele><time>2026-04-12T05:41:53.001Z</time></trkpt><trkpt lat="41.1774771462109" lon="15.132838659804527"><ele>647.6666666666666</ele><time>2026-04-12T05:41:54.001Z</time></trkpt><trkpt lat="41.17728756256972" lon="15.132811263593563"><ele>647.3333333333333</ele><time>2026-04-12T05:41:55.001Z</time></trkpt><trkpt lat="41.17710941021118" lon="15.132781422427353"><ele>647.0</ele><time>2026-04-12T05:41:56.001Z</time></trkpt><trkpt lat="41.176930225297646" lon="15.132765285623442"><ele>647.0</ele><time>2026-04-12T05:41:57.001Z</time></trkpt><trkpt lat="41.17674362051864" lon="15.132775181387116"><ele>647.0</ele><time>2026-04-12T05:41:58.001Z</time></trkpt><trkpt lat="41.17655517684161" lon="15.132798322333977"><ele>647.0</ele><time>2026-04-12T05:41:59.001Z</time></trkpt><trkpt lat="41.176370460049846" lon="15.132829823419403"><ele>645.0</ele><time>2026-04-12T05:42:00.001Z</time></trkpt><trkpt lat="41.17619877715025" lon="15.132874136492678"><ele>643.0</ele><time>2026-04-12T05:42:01.001Z</time></trkpt><trkpt lat="41.1760351906764" lon="15.13292407693001"><ele>641.0</ele><time>2026-04-12T05:42:02.001Z</time></trkpt><trkpt lat="41.17587725090548" lon="15.13295734314307"><ele>641.0</ele><time>2026-04-12T05:42:03.001Z</time></trkpt><trkpt lat="41.17572182817997" lon="15.13296393750386"><ele>641.0</ele><time>2026-04-12T05:42:04.001Z</time></trkpt><trkpt lat="41.17556009133546" lon="15.132944528147759"><ele>641.0</ele><time>2026-04-12T05:42:05.001Z</time></trkpt><trkpt lat="41.17539322612441" lon="15.132913029794219"><ele>642.0</ele><time>2026-04-12T05:42:06.001Z</time></trkpt><trkpt lat="41.175237177769134" lon="15.132884873188784"><ele>643.0</ele><time>2026-04-12T05:42:07.001Z</time></trkpt><trkpt lat="41.17509764349694" lon="15.132871425383364"><ele>644.0</ele><time>2026-04-12T05:42:08.001Z</time></trkpt><trkpt lat="41.174970062194404" lon="15.132864463280898"><ele>645.0</ele><time>2026-04-12T05:42:09.001Z</time></trkpt><trkpt lat="41.17485798444962" lon="15.132832538405463"><ele>645.2</ele><time>2026-04-12T05:42:10.001Z</time></trkpt><trkpt lat="41.17477131667423" lon="15.132776336203882"><ele>645.4</ele><time>2026-04-12T05:42:11.001Z</time></trkpt><trkpt lat="41.17471295071702" lon="15.132690161394097"><ele>645.5999999999999</ele><time>2026-04-12T05:42:12.001Z</time></trkpt><trkpt lat="41.174662799092" lon="15.13256614043318"><ele>645.8</ele><time>2026-04-12T05:42:13.001Z</time></trkpt><trkpt lat="41.174649245687135" lon="15.132414102293264"><ele>646.0</ele><time>2026-04-12T05:42:14.001Z</time></trkpt><trkpt lat="41.174679538460055" lon="15.132256928875215"><ele>646.0</ele><time>2026-04-12T05:42:15.001Z</time></trkpt><trkpt lat="41.17467888032945" lon="15.132071897240934"><ele>646.0</ele><time>2026-04-12T05:42:16.001Z</time></trkpt><trkpt lat="41.1746553436771" lon="15.131907884337977"><ele>646.0</ele><time>2026-04-12T05:42:17.001Z</time></trkpt><trkpt lat="41.17457889399287" lon="15.131778897028925"><ele>646.0</ele><time>2026-04-12T05:42:18.001Z</time></trkpt><trkpt lat="41.174473223866904" lon="15.131675449355964"><ele>646.0</ele><time>2026-04-12T05:42:19.001Z</time></trkpt><trkpt lat="41.174340803584315" lon="15.131612063757727"><ele>646.0</ele><time>2026-04-12T05:42:20.001Z</time></trkpt><trkpt lat="41.1741877062846" lon="15.131587818589441"><ele>646.0</ele><time>2026-04-12T05:42:21.001Z</time></trkpt><trkpt lat="41.174050112512695" lon="15.131624881154234"><ele>646.0</ele><time>2026-04-12T05:42:22Z</time></trkpt><trkpt lat="41.1738959247948" lon="15.131724089610469"><ele>642.6666666666667</ele><time>2026-04-12T05:42:23Z</time></trkpt><trkpt lat="41.17373020067174" lon="15.131802364804091"><ele>639.3333333333334</ele><time>2026-04-12T05:42:24Z</time></trkpt><trkpt lat="41.17356831506377" lon="15.13191051056027"><ele>636.0</ele><time>2026-04-12T05:42:25Z</time></trkpt><trkpt lat="41.17342478590957" lon="15.132017206811073"><ele>636.0</ele><time>2026-04-12T05:42:26Z</time></trkpt><trkpt lat="41.17328380853237" lon="15.132109106362595"><ele>636.0</ele><time>2026-04-12T05:42:27Z</time></trkpt><trkpt lat="41.173134274248476" lon="15.13219189197739"><ele>636.0</ele><time>2026-04-12T05:42:28Z</time></trkpt><trkpt lat="41.17295696387552" lon="15.132254251638077"><ele>639.0</ele><time>2026-04-12T05:42:29Z</time></trkpt><trkpt lat="41.172763099540944" lon="15.132305426859917"><ele>642.0</ele><time>2026-04-12T05:42:30Z</time></trkpt><trkpt lat="41.172579430879985" lon="15.132368559838742"><ele>645.0</ele><time>2026-04-12T05:42:31Z</time></trkpt><trkpt lat="41.17241142229789" lon="15.132442672040801"><ele>641.3333333333334</ele><time>2026-04-12T05:42:32Z</time></trkpt><trkpt lat="41.172245393990735" lon="15.132521262837958"><ele>637.6666666666667</ele><time>2026-04-12T05:42:33Z</time></trkpt><trkpt lat="41.17208762892609" lon="15.132596886118712"><ele>634.0</ele><time>2026-04-12T05:42:34Z</time></trkpt><trkpt lat="41.17194044659813" lon="15.13266525074863"><ele>634.0</ele><time>2026-04-12T05:42:35Z</time></trkpt><trkpt lat="41.1718026381436" lon="15.132731692676145"><ele>634.0</ele><time>2026-04-12T05:42:36Z</time></trkpt><trkpt lat="41.171670978731875" lon="15.132797692873211"><ele>634.0</ele><time>2026-04-12T05:42:37Z</time></trkpt><trkpt lat="41.1715475161532" lon="15.132863604995014"><ele>634.0</ele><time>2026-04-12T05:42:38Z</time></trkpt><trkpt lat="41.17142027574584" lon="15.13290921665152"><ele>633.25</ele><time>2026-04-12T05:42:39Z</time></trkpt><trkpt lat="41.171298291193565" lon="15.132996149995142"><ele>632.5</ele><time>2026-04-12T05:42:40Z</time></trkpt><trkpt lat="41.17118204015603" lon="15.13305024418929"><ele>631.75</ele><time>2026-04-12T05:42:41Z</time></trkpt><trkpt lat="41.17106371131009" lon="15.13308381577493"><ele>631.0</ele><time>2026-04-12T05:42:42Z</time></trkpt><trkpt lat="41.17093145941984" lon="15.13309411438465"><ele>631.0</ele><time>2026-04-12T05:42:43Z</time></trkpt><trkpt lat="41.170796084990755" lon="15.133073302383966"><ele>631.0</ele><time>2026-04-12T05:42:44Z</time></trkpt><trkpt lat="41.1706614128051" lon="15.133019021721351"><ele>631.0</ele><time>2026-04-12T05:42:45Z</time></trkpt><trkpt lat="41.17053110106176" lon="15.132919886681147"><ele>631.0</ele><time>2026-04-12T05:42:46Z</time></trkpt><trkpt lat="41.17040952784452" lon="15.132778135303965"><ele>630.6666666666667</ele><time>2026-04-12T05:42:47Z</time></trkpt><trkpt lat="41.17028937955492" lon="15.132610129768567"><ele>630.3333333333334</ele><time>2026-04-12T05:42:48Z</time></trkpt><trkpt lat="41.17016685126365" lon="15.132434036065478"><ele>630.0</ele><time>2026-04-12T05:42:49Z</time></trkpt><trkpt lat="41.170047466644476" lon="15.132252259875084"><ele>630.0</ele><time>2026-04-12T05:42:50Z</time></trkpt><trkpt lat="41.169933305951304" lon="15.132071478996986"><ele>630.0</ele><time>2026-04-12T05:42:51Z</time></trkpt><trkpt lat="41.169827145247744" lon="15.13189965045823"><ele>630.0</ele><time>2026-04-12T05:42:52Z</time></trkpt><trkpt lat="41.16972036102311" lon="15.131720441585038"><ele>633.0</ele><time>2026-04-12T05:42:53Z</time></trkpt><trkpt lat="41.16961494801535" lon="15.13154058276429"><ele>636.0</ele><time>2026-04-12T05:42:54Z</time></trkpt><trkpt lat="41.16951138139105" lon="15.131361577097413"><ele>639.0</ele><time>2026-04-12T05:42:55Z</time></trkpt><trkpt lat="41.169420248330205" lon="15.131184233617047"><ele>639.0</ele><time>2026-04-12T05:42:56Z</time></trkpt><trkpt lat="41.16934374646374" lon="15.131002294034163"><ele>639.0</ele><time>2026-04-12T05:42:57Z</time></trkpt><trkpt lat="41.16927686640755" lon="15.130803577666283"><ele>639.0</ele><time>2026-04-12T05:42:58Z</time></trkpt><trkpt lat="41.16922282064361" lon="15.130599411099475"><ele>637.0</ele><time>2026-04-12T05:42:59Z</time></trkpt><trkpt lat="41.16917352716131" lon="15.130400845913883"><ele>635.0</ele><time>2026-04-12T05:43:00Z</time></trkpt><trkpt lat="41.16912855420468" lon="15.130217819504642"><ele>633.0</ele><time>2026-04-12T05:43:01Z</time></trkpt><trkpt lat="41.169091295388434" lon="15.130041962978694"><ele>631.0</ele><time>2026-04-12T05:43:02Z</time></trkpt><trkpt lat="41.16905716864915" lon="15.129866101316164"><ele>632.75</ele><time>2026-04-12T05:43:03Z</time></trkpt><trkpt lat="41.16902345801187" lon="15.12968480974477"><ele>634.5</ele><time>2026-04-12T05:43:04Z</time></trkpt><trkpt lat="41.16898865646057" lon="15.129507337465743"><ele>636.25</ele><time>2026-04-12T05:43:05Z</time></trkpt><trkpt lat="41.16895412750974" lon="15.129345543035019"><ele>638.0</ele><time>2026-04-12T05:43:06Z</time></trkpt><trkpt lat="41.16891283601892" lon="15.129189468299053"><ele>634.25</ele><time>2026-04-12T05:43:07Z</time></trkpt><trkpt lat="41.16886076720195" lon="15.129047056302412"><ele>630.5</ele><time>2026-04-12T05:43:08Z</time></trkpt><trkpt lat="41.16878908729369" lon="15.128933890422545"><ele>626.75</ele><time>2026-04-12T05:43:09Z</time></trkpt><trkpt lat="41.16870379364888" lon="15.128837788126557"><ele>623.0</ele><time>2026-04-12T05:43:10Z</time></trkpt><trkpt lat="41.16858336806108" lon="15.128775378237757"><ele>623.0</ele><time>2026-04-12T05:43:11Z</time></trkpt><trkpt lat="41.16844418170441" lon="15.128747785727038"><ele>623.0</ele><time>2026-04-12T05:43:12Z</time></trkpt><trkpt lat="41.16829773824105" lon="15.128746232491205"><ele>623.0</ele><time>2026-04-12T05:43:13Z</time></trkpt><trkpt lat="41.16814896059456" lon="15.128743044969994"><ele>623.0</ele><time>2026-04-12T05:43:14Z</time></trkpt><trkpt lat="41.168013746610725" lon="15.128676076256232"><ele>624.5</ele><time>2026-04-12T05:43:15Z</time></trkpt><trkpt lat="41.167883357974425" lon="15.128593125463214"><ele>626.0</ele><time>2026-04-12T05:43:16Z</time></trkpt><trkpt lat="41.16775024343251" lon="15.128506695070866"><ele>627.5</ele><time>2026-04-12T05:43:17Z</time></trkpt><trkpt lat="41.16762519239685" lon="15.128403095724419"><ele>629.0</ele><time>2026-04-12T05:43:18Z</time></trkpt><trkpt lat="41.167482015340376" lon="15.12833336371711"><ele>630.0</ele><time>2026-04-12T05:43:19Z</time></trkpt><trkpt lat="41.167325113009966" lon="15.12830731362416"><ele>631.0</ele><time>2026-04-12T05:43:20Z</time></trkpt><trkpt lat="41.16714298440702" lon="15.128314298463852"><ele>632.0</ele><time>2026-04-12T05:43:21Z</time></trkpt><trkpt lat="41.16695682729917" lon="15.128309629169566"><ele>632.0</ele><time>2026-04-12T05:43:22Z</time></trkpt><trkpt lat="41.16676852421403" lon="15.128263182808773"><ele>632.0</ele><time>2026-04-12T05:43:23Z</time></trkpt><trkpt lat="41.1665885340354" lon="15.128246600547222"><ele>632.0</ele><time>2026-04-12T05:43:24Z</time></trkpt><trkpt lat="41.16642660964594" lon="15.128213250573495"><ele>630.6666666666666</ele><time>2026-04-12T05:43:25Z</time></trkpt><trkpt lat="41.166270844876664" lon="15.128198974771339"><ele>629.3333333333334</ele><time>2026-04-12T05:43:26Z</time></trkpt><trkpt lat="41.16610819857074" lon="15.128204727914195"><ele>628.0</ele><time>2026-04-12T05:43:27Z</time></trkpt><trkpt lat="41.16594595684687" lon="15.12823864425646"><ele>628.0</ele><time>2026-04-12T05:43:28Z</time></trkpt><trkpt lat="41.16578126269775" lon="15.12828664976246"><ele>628.0</ele><time>2026-04-12T05:43:29Z</time></trkpt><trkpt lat="41.16561531322182" lon="15.12829319549107"><ele>628.0</ele><time>2026-04-12T05:43:30Z</time></trkpt><trkpt lat="41.16545074872715" lon="15.128288495457353"><ele>628.0</ele><time>2026-04-12T05:43:31Z</time></trkpt><trkpt lat="41.1652849119432" lon="15.128280860616192"><ele>628.0</ele><time>2026-04-12T05:43:32Z</time></trkpt><trkpt lat="41.16512118400443" lon="15.12819201203692"><ele>628.0</ele><time>2026-04-12T05:43:33Z</time></trkpt><trkpt lat="41.16495438387863" lon="15.128112963088608"><ele>625.6666666666667</ele><time>2026-04-12T05:43:34Z</time></trkpt><trkpt lat="41.164795590318576" lon="15.128059502976377"><ele>623.3333333333334</ele><time>2026-04-12T05:43:35Z</time></trkpt><trkpt lat="41.16462258740863" lon="15.128022942933677"><ele>621.0</ele><time>2026-04-12T05:43:36Z</time></trkpt><trkpt lat="41.16447876071394" lon="15.127983783265735"><ele>621.0</ele><time>2026-04-12T05:43:37Z</time></trkpt><trkpt lat="41.16431859870947" lon="15.127971152868131"><ele>621.0</ele><time>2026-04-12T05:43:38Z</time></trkpt><trkpt lat="41.16416094303799" lon="15.127955369673385"><ele>621.0</ele><time>2026-04-12T05:43:39.001Z</time></trkpt><trkpt lat="41.16401123833859" lon="15.127916237771718"><ele>621.6666666666666</ele><time>2026-04-12T05:43:40.001Z</time></trkpt><trkpt lat="41.163877325356744" lon="15.127796523282663"><ele>622.3333333333333</ele><time>2026-04-12T05:43:41.001Z</time></trkpt><trkpt lat="41.163720591807525" lon="15.12766282070846"><ele>623.0</ele><time>2026-04-12T05:43:42.001Z</time></trkpt><trkpt lat="41.163562253001075" lon="15.127524400268898"><ele>623.3333333333333</ele><time>2026-04-12T05:43:43.001Z</time></trkpt><trkpt lat="41.163385299460955" lon="15.127337638988978"><ele>623.6666666666666</ele><time>2026-04-12T05:43:44.001Z</time></trkpt><trkpt lat="41.163226990637945" lon="15.127201405025351"><ele>624.0</ele><time>2026-04-12T05:43:45.001Z</time></trkpt><trkpt lat="41.16308407109684" lon="15.127064562239399"><ele>624.0</ele><time>2026-04-12T05:43:46.001Z</time></trkpt><trkpt lat="41.16296970784608" lon="15.126923433656243"><ele>624.0</ele><time>2026-04-12T05:43:47.001Z</time></trkpt><trkpt lat="41.16285176323682" lon="15.126797000118154"><ele>624.0</ele><time>2026-04-12T05:43:48.001Z</time></trkpt><trkpt lat="41.16275263081729" lon="15.126680137623966"><ele>624.0</ele><time>2026-04-12T05:43:49.001Z</time></trkpt><trkpt lat="41.16265771146338" lon="15.126546281761739"><ele>625.0</ele><time>2026-04-12T05:43:50.001Z</time></trkpt><trkpt lat="41.162590430500146" lon="15.126388443350066"><ele>626.0</ele><time>2026-04-12T05:43:51.001Z</time></trkpt><trkpt lat="41.162550741490314" lon="15.126207791142978"><ele>627.0</ele><time>2026-04-12T05:43:52.001Z</time></trkpt><trkpt lat="41.162550511355086" lon="15.126014623975628"><ele>628.0</ele><time>2026-04-12T05:43:53.001Z</time></trkpt><trkpt lat="41.16255295454642" lon="15.125817000124385"><ele>627.0</ele><time>2026-04-12T05:43:54.001Z</time></trkpt><trkpt lat="41.16255194763279" lon="15.125639227471256"><ele>626.0</ele><time>2026-04-12T05:43:55.001Z</time></trkpt><trkpt lat="41.162559185529425" lon="15.125480744566397"><ele>625.0</ele><time>2026-04-12T05:43:56.001Z</time></trkpt><trkpt lat="41.16255485249516" lon="15.12533547787237"><ele>624.0</ele><time>2026-04-12T05:43:57.001Z</time></trkpt><trkpt lat="41.162519022114914" lon="15.125206451718363"><ele>624.0</ele><time>2026-04-12T05:43:58.001Z</time></trkpt><trkpt lat="41.16244190196152" lon="15.125112077399585"><ele>624.0</ele><time>2026-04-12T05:43:59.001Z</time></trkpt><trkpt lat="41.162326521806285" lon="15.125056590315626"><ele>624.0</ele><time>2026-04-12T05:44:00.001Z</time></trkpt><trkpt lat="41.16219460323266" lon="15.125038812651614"><ele>624.0</ele><time>2026-04-12T05:44:01.001Z</time></trkpt><trkpt lat="41.16205302630713" lon="15.12507141323542"><ele>622.0</ele><time>2026-04-12T05:44:02.001Z</time></trkpt><trkpt lat="41.161890727674276" lon="15.125144381830088"><ele>620.0</ele><time>2026-04-12T05:44:03.001Z</time></trkpt><trkpt lat="41.16172944299208" lon="15.125233935874045"><ele>618.0</ele><time>2026-04-12T05:44:04.001Z</time></trkpt><trkpt lat="41.16156840408953" lon="15.125347322655763"><ele>616.6666666666666</ele><time>2026-04-12T05:44:05.001Z</time></trkpt><trkpt lat="41.161419934813495" lon="15.125450153180605"><ele>615.3333333333333</ele><time>2026-04-12T05:44:06.001Z</time></trkpt><trkpt lat="41.16129195246494" lon="15.125527795717993"><ele>614.0</ele><time>2026-04-12T05:44:07.001Z</time></trkpt><trkpt lat="41.16114471079183" lon="15.12557507918558"><ele>614.0</ele><time>2026-04-12T05:44:08.001Z</time></trkpt><trkpt lat="41.16098617267589" lon="15.125595911746293"><ele>614.0</ele><time>2026-04-12T05:44:09.001Z</time></trkpt><trkpt lat="41.16083199588582" lon="15.12557920137252"><ele>614.0</ele><time>2026-04-12T05:44:10.001Z</time></trkpt><trkpt lat="41.16067785878633" lon="15.125548344154405"><ele>618.0</ele><time>2026-04-12T05:44:11.001Z</time></trkpt><trkpt lat="41.1605233863358" lon="15.125470461973908"><ele>622.0</ele><time>2026-04-12T05:44:12.001Z</time></trkpt><trkpt lat="41.16037560257593" lon="15.125349962297745"><ele>626.0</ele><time>2026-04-12T05:44:13.001Z</time></trkpt><trkpt lat="41.16026435906488" lon="15.125215329256624"><ele>626.0</ele><time>2026-04-12T05:44:14.001Z</time></trkpt><trkpt lat="41.16018223745538" lon="15.125069435380418"><ele>626.0</ele><time>2026-04-12T05:44:15.001Z</time></trkpt><trkpt lat="41.160116394813215" lon="15.124901179159338"><ele>626.0</ele><time>2026-04-12T05:44:16.001Z</time></trkpt><trkpt lat="41.16007954628173" lon="15.124708526353789"><ele>626.0</ele><time>2026-04-12T05:44:17.001Z</time></trkpt><trkpt lat="41.16007135478643" lon="15.124502054442342"><ele>624.75</ele><time>2026-04-12T05:44:18.001Z</time></trkpt><trkpt lat="41.16007601498998" lon="15.124310277347778"><ele>623.5</ele><time>2026-04-12T05:44:19.001Z</time></trkpt><trkpt lat="41.16009234303141" lon="15.124136482158363"><ele>622.25</ele><time>2026-04-12T05:44:20.001Z</time></trkpt><trkpt lat="41.160101216845135" lon="15.123974687021919"><ele>621.0</ele><time>2026-04-12T05:44:21.001Z</time></trkpt><trkpt lat="41.16008552156321" lon="15.123833854499475"><ele>619.5</ele><time>2026-04-12T05:44:22.001Z</time></trkpt><trkpt lat="41.160043911605094" lon="15.12370912459829"><ele>618.0</ele><time>2026-04-12T05:44:23.001Z</time></trkpt><trkpt lat="41.159975833214496" lon="15.123606396667258"><ele>616.5</ele><time>2026-04-12T05:44:24.001Z</time></trkpt><trkpt lat="41.15986879115347" lon="15.123534672282647"><ele>615.0</ele><time>2026-04-12T05:44:25.001Z</time></trkpt><trkpt lat="41.15972892285037" lon="15.123497399045144"><ele>615.0</ele><time>2026-04-12T05:44:26.001Z</time></trkpt><trkpt lat="41.15956272275869" lon="15.123494302301436"><ele>615.0</ele><time>2026-04-12T05:44:27.001Z</time></trkpt><trkpt lat="41.15938380462405" lon="15.123488403353573"><ele>615.0</ele><time>2026-04-12T05:44:28Z</time></trkpt><trkpt lat="41.15921950928439" lon="15.123472888852794"><ele>615.0</ele><time>2026-04-12T05:44:29Z</time></trkpt><trkpt lat="41.15906995797393" lon="15.123455779389452"><ele>615.0</ele><time>2026-04-12T05:44:30Z</time></trkpt><trkpt lat="41.15893482688144" lon="15.123427403564515"><ele>615.0</ele><time>2026-04-12T05:44:31Z</time></trkpt><trkpt lat="41.15880482411373" lon="15.123359229781798"><ele>615.0</ele><time>2026-04-12T05:44:32Z</time></trkpt><trkpt lat="41.1586698837818" lon="15.1232492091098"><ele>616.3333333333334</ele><time>2026-04-12T05:44:33Z</time></trkpt><trkpt lat="41.158544567878906" lon="15.123085460442443"><ele>617.6666666666667</ele><time>2026-04-12T05:44:34Z</time></trkpt><trkpt lat="41.15843739824066" lon="15.12291842787805"><ele>619.0</ele><time>2026-04-12T05:44:35Z</time></trkpt><trkpt lat="41.15835342052025" lon="15.122762079295404"><ele>619.0</ele><time>2026-04-12T05:44:36Z</time></trkpt><trkpt lat="41.15827853343256" lon="15.122599127170723"><ele>619.0</ele><time>2026-04-12T05:44:37Z</time></trkpt><trkpt lat="41.1582101267362" lon="15.122422349007516"><ele>619.0</ele><time>2026-04-12T05:44:38Z</time></trkpt><trkpt lat="41.15815987961958" lon="15.122224930973333"><ele>611.6666666666667</ele><time>2026-04-12T05:44:39Z</time></trkpt><trkpt lat="41.158124271000496" lon="15.122020541300278"><ele>604.3333333333334</ele><time>2026-04-12T05:44:40Z</time></trkpt><trkpt lat="41.15809979654263" lon="15.121793512263217"><ele>597.0</ele><time>2026-04-12T05:44:41Z</time></trkpt><trkpt lat="41.158089765784005" lon="15.121563119019308"><ele>596.3333333333334</ele><time>2026-04-12T05:44:42Z</time></trkpt><trkpt lat="41.15809558335457" lon="15.121305975921878"><ele>595.6666666666667</ele><time>2026-04-12T05:44:43Z</time></trkpt><trkpt lat="41.15810122177152" lon="15.121027218597062"><ele>595.0</ele><time>2026-04-12T05:44:44Z</time></trkpt><trkpt lat="41.1580897652919" lon="15.12077185486234"><ele>597.6666666666667</ele><time>2026-04-12T05:44:45Z</time></trkpt><trkpt lat="41.15807745162815" lon="15.120508932292438"><ele>600.3333333333334</ele><time>2026-04-12T05:44:46Z</time></trkpt><trkpt lat="41.158058501651475" lon="15.120244663760474"><ele>603.0</ele><time>2026-04-12T05:44:47Z</time></trkpt><trkpt lat="41.15804698829527" lon="15.11996787651329"><ele>606.6666666666666</ele><time>2026-04-12T05:44:48Z</time></trkpt><trkpt lat="41.158049966310024" lon="15.119690753142164"><ele>610.3333333333333</ele><time>2026-04-12T05:44:49Z</time></trkpt><trkpt lat="41.15806769228152" lon="15.119407300868941"><ele>614.0</ele><time>2026-04-12T05:44:50Z</time></trkpt><trkpt lat="41.15809759087916" lon="15.11912457380973"><ele>617.3333333333333</ele><time>2026-04-12T05:44:51Z</time></trkpt><trkpt lat="41.15813123802558" lon="15.118842744792538"><ele>620.6666666666666</ele><time>2026-04-12T05:44:52Z</time></trkpt><trkpt lat="41.158157080553835" lon="15.118568068075655"><ele>624.0</ele><time>2026-04-12T05:44:53Z</time></trkpt><trkpt lat="41.1581832276707" lon="15.118311756111005"><ele>625.0</ele><time>2026-04-12T05:44:54Z</time></trkpt><trkpt lat="41.15822299989908" lon="15.118055812722785"><ele>626.0</ele><time>2026-04-12T05:44:55Z</time></trkpt><trkpt lat="41.158281439987" lon="15.117814382319837"><ele>627.0</ele><time>2026-04-12T05:44:56Z</time></trkpt><trkpt lat="41.15835020270583" lon="15.117598105148398"><ele>627.0</ele><time>2026-04-12T05:44:57Z</time></trkpt><trkpt lat="41.15842423470865" lon="15.117403214102985"><ele>627.0</ele><time>2026-04-12T05:44:58Z</time></trkpt><trkpt lat="41.158523194439404" lon="15.117230199936817"><ele>627.0</ele><time>2026-04-12T05:44:59Z</time></trkpt><trkpt lat="41.15866912709357" lon="15.117095753597225"><ele>627.6666666666666</ele><time>2026-04-12T05:45:00Z</time></trkpt><trkpt lat="41.15881679512025" lon="15.11694135627483"><ele>628.3333333333333</ele><time>2026-04-12T05:45:01Z</time></trkpt><trkpt lat="41.15897216461258" lon="15.11678880596964"><ele>629.0</ele><time>2026-04-12T05:45:02Z</time></trkpt><trkpt lat="41.15912721605655" lon="15.116634243968893"><ele>631.6666666666666</ele><time>2026-04-12T05:45:03Z</time></trkpt><trkpt lat="41.15925689787939" lon="15.116466667770295"><ele>634.3333333333334</ele><time>2026-04-12T05:45:04Z</time></trkpt><trkpt lat="41.15934099516801" lon="15.116263636892452"><ele>637.0</ele><time>2026-04-12T05:45:05Z</time></trkpt><trkpt lat="41.15939531555062" lon="15.116035139546808"><ele>637.0</ele><time>2026-04-12T05:45:06Z</time></trkpt><trkpt lat="41.159437926295624" lon="15.115800871137411"><ele>637.0</ele><time>2026-04-12T05:45:07Z</time></trkpt><trkpt lat="41.15948764291022" lon="15.115572484183337"><ele>637.0</ele><time>2026-04-12T05:45:08Z</time></trkpt><trkpt lat="41.15956718763942" lon="15.115368174976542"><ele>637.3333333333334</ele><time>2026-04-12T05:45:09Z</time></trkpt><trkpt lat="41.15967306829906" lon="15.115176014686464"><ele>637.6666666666666</ele><time>2026-04-12T05:45:10Z</time></trkpt><trkpt lat="41.15980861478764" lon="15.114999145798977"><ele>638.0</ele><time>2026-04-12T05:45:11Z</time></trkpt><trkpt lat="41.15995643022442" lon="15.114821644038358"><ele>638.6666666666666</ele><time>2026-04-12T05:45:12Z</time></trkpt><trkpt lat="41.160081344141545" lon="15.11464335177754"><ele>639.3333333333334</ele><time>2026-04-12T05:45:13Z</time></trkpt><trkpt lat="41.16018862977793" lon="15.114449525611906"><ele>640.0</ele><time>2026-04-12T05:45:14Z</time></trkpt><trkpt lat="41.16027226830211" lon="15.114238050774592"><ele>640.6666666666667</ele><time>2026-04-12T05:45:15Z</time></trkpt><trkpt lat="41.160339327597704" lon="15.114011051422791"><ele>641.3333333333334</ele><time>2026-04-12T05:45:16Z</time></trkpt><trkpt lat="41.16040234190827" lon="15.11375575039578"><ele>642.0</ele><time>2026-04-12T05:45:17Z</time></trkpt><trkpt lat="41.16046410151218" lon="15.113487167056334"><ele>642.3333333333334</ele><time>2026-04-12T05:45:18Z</time></trkpt><trkpt lat="41.16053134401201" lon="15.113223242937416"><ele>642.6666666666667</ele><time>2026-04-12T05:45:19Z</time></trkpt><trkpt lat="41.16059804941649" lon="15.112948475304051"><ele>643.0</ele><time>2026-04-12T05:45:20Z</time></trkpt><trkpt lat="41.160666157877216" lon="15.112675089569915"><ele>644.0</ele><time>2026-04-12T05:45:21Z</time></trkpt><trkpt lat="41.160728840527206" lon="15.112416531171194"><ele>645.0</ele><time>2026-04-12T05:45:22Z</time></trkpt><trkpt lat="41.160781401614216" lon="15.112186070696378"><ele>646.0</ele><time>2026-04-12T05:45:23Z</time></trkpt><trkpt lat="41.16083109168401" lon="15.111965407093285"><ele>646.75</ele><time>2026-04-12T05:45:24Z</time></trkpt><trkpt lat="41.160877520089635" lon="15.111762103400638"><ele>647.5</ele><time>2026-04-12T05:45:25Z</time></trkpt><trkpt lat="41.160923446265535" lon="15.11157122687055"><ele>648.25</ele><time>2026-04-12T05:45:26Z</time></trkpt><trkpt lat="41.16096705894445" lon="15.11139840757584"><ele>649.0</ele><time>2026-04-12T05:45:27Z</time></trkpt><trkpt lat="41.1610126865376" lon="15.111229226044255"><ele>649.25</ele><time>2026-04-12T05:45:28Z</time></trkpt><trkpt lat="41.16104807648537" lon="15.11107235220845"><ele>649.5</ele><time>2026-04-12T05:45:29Z</time></trkpt><trkpt lat="41.16109013511885" lon="15.11091858738318"><ele>649.75</ele><time>2026-04-12T05:45:30Z</time></trkpt><trkpt lat="41.161130383013656" lon="15.110764569076244"><ele>650.0</ele><time>2026-04-12T05:45:31Z</time></trkpt><trkpt lat="41.16116584330113" lon="15.110611159265687"><ele>649.0</ele><time>2026-04-12T05:45:32Z</time></trkpt><trkpt lat="41.16119478875989" lon="15.11046113686553"><ele>648.0</ele><time>2026-04-12T05:45:33Z</time></trkpt><trkpt lat="41.16122789543439" lon="15.110315183893498"><ele>647.0</ele><time>2026-04-12T05:45:34Z</time></trkpt><trkpt lat="41.16125913958909" lon="15.11016951016541"><ele>646.0</ele><time>2026-04-12T05:45:35Z</time></trkpt><trkpt lat="41.161289640246636" lon="15.110035409059245"><ele>644.4</ele><time>2026-04-12T05:45:36Z</time></trkpt><trkpt lat="41.16132397858197" lon="15.109899887011593"><ele>642.8</ele><time>2026-04-12T05:45:37Z</time></trkpt><trkpt lat="41.16135550703527" lon="15.109761008414393"><ele>641.1999999999999</ele><time>2026-04-12T05:45:38Z</time></trkpt><trkpt lat="41.16138596871442" lon="15.109618915607282"><ele>639.5999999999999</ele><time>2026-04-12T05:45:39Z</time></trkpt><trkpt lat="41.161418012355405" lon="15.109467496612517"><ele>638.0</ele><time>2026-04-12T05:45:40Z</time></trkpt><trkpt lat="41.161454499518335" lon="15.109323632277427"><ele>638.0</ele><time>2026-04-12T05:45:41Z</time></trkpt><trkpt lat="41.16148966991932" lon="15.109166648796855"><ele>638.0</ele><time>2026-04-12T05:45:42Z</time></trkpt><trkpt lat="41.16152800095041" lon="15.109008038352506"><ele>638.0</ele><time>2026-04-12T05:45:43Z</time></trkpt><trkpt lat="41.16157041367959" lon="15.108836474177604"><ele>638.0</ele><time>2026-04-12T05:45:44Z</time></trkpt><trkpt lat="41.16162589536649" lon="15.108678006259176"><ele>637.0</ele><time>2026-04-12T05:45:45Z</time></trkpt><trkpt lat="41.16169714754653" lon="15.108525202174846"><ele>636.0</ele><time>2026-04-12T05:45:46Z</time></trkpt><trkpt lat="41.16175783012724" lon="15.108387771466699"><ele>635.0</ele><time>2026-04-12T05:45:47Z</time></trkpt><trkpt lat="41.161822658185564" lon="15.108250645769784"><ele>634.0</ele><time>2026-04-12T05:45:48Z</time></trkpt><trkpt lat="41.16188553338728" lon="15.108119526068917"><ele>633.2</ele><time>2026-04-12T05:45:49Z</time></trkpt><trkpt lat="41.16193752419269" lon="15.108000488161307"><ele>632.4</ele><time>2026-04-12T05:45:50Z</time></trkpt><trkpt lat="41.16199060413353" lon="15.1078858009896"><ele>631.6</ele><time>2026-04-12T05:45:51Z</time></trkpt><trkpt lat="41.16204737735226" lon="15.10776680435276"><ele>630.8</ele><time>2026-04-12T05:45:52Z</time></trkpt><trkpt lat="41.16209892563648" lon="15.107649912671668"><ele>630.0</ele><time>2026-04-12T05:45:53Z</time></trkpt><trkpt lat="41.16214756352255" lon="15.107533745830555"><ele>630.0</ele><time>2026-04-12T05:45:54Z</time></trkpt><trkpt lat="41.16219521852228" lon="15.107415542351857"><ele>630.0</ele><time>2026-04-12T05:45:55Z</time></trkpt><trkpt lat="41.16224033899505" lon="15.10729058377679"><ele>630.0</ele><time>2026-04-12T05:45:56.001Z</time></trkpt><trkpt lat="41.16229031037105" lon="15.107160283589346"><ele>630.0</ele><time>2026-04-12T05:45:57.001Z</time></trkpt><trkpt lat="41.1623396950561" lon="15.107033717492845"><ele>630.0</ele><time>2026-04-12T05:45:58.001Z</time></trkpt><trkpt lat="41.16236873849386" lon="15.106912451628004"><ele>630.2</ele><time>2026-04-12T05:45:59.001Z</time></trkpt><trkpt lat="41.1623926537581" lon="15.106774140545687"><ele>630.4</ele><time>2026-04-12T05:46:00.001Z</time></trkpt><trkpt lat="41.16241760761652" lon="15.106647146557316"><ele>630.6</ele><time>2026-04-12T05:46:01.001Z</time></trkpt><trkpt lat="41.162439916898315" lon="15.106529658842383"><ele>630.8</ele><time>2026-04-12T05:46:02.001Z</time></trkpt><trkpt lat="41.162478766097436" lon="15.106400226478302"><ele>631.0</ele><time>2026-04-12T05:46:03.001Z</time></trkpt><trkpt lat="41.16249845572546" lon="15.1062965191849"><ele>630.6</ele><time>2026-04-12T05:46:04.001Z</time></trkpt><trkpt lat="41.1625185965566" lon="15.106183363171052"><ele>630.2</ele><time>2026-04-12T05:46:05.001Z</time></trkpt><trkpt lat="41.16255185713523" lon="15.106071871625616"><ele>629.8</ele><time>2026-04-12T05:46:06.001Z</time></trkpt><trkpt lat="41.16258028858608" lon="15.105946003562135"><ele>629.4</ele><time>2026-04-12T05:46:07.001Z</time></trkpt><trkpt lat="41.16261298704614" lon="15.10582417043205"><ele>629.0</ele><time>2026-04-12T05:46:08.001Z</time></trkpt><trkpt lat="41.16264574751565" lon="15.10570961999415"><ele>628.3333333333333</ele><time>2026-04-12T05:46:09.001Z</time></trkpt><trkpt lat="41.16267883091936" lon="15.105608588643474"><ele>627.6666666666666</ele><time>2026-04-12T05:46:10.001Z</time></trkpt><trkpt lat="41.162711381437525" lon="15.10551207960019"><ele>627.0</ele><time>2026-04-12T05:46:11.001Z</time></trkpt><trkpt lat="41.16274349642523" lon="15.105410089447352"><ele>626.3333333333334</ele><time>2026-04-12T05:46:12.001Z</time></trkpt><trkpt lat="41.16278567770113" lon="15.105342466227228"><ele>625.6666666666667</ele><time>2026-04-12T05:46:13.001Z</time></trkpt><trkpt lat="41.162810446515145" lon="15.105264084206304"><ele>625.0</ele><time>2026-04-12T05:46:14.001Z</time></trkpt><trkpt lat="41.1628938580522" lon="15.105198476730303"><ele>625.0</ele><time>2026-04-12T05:46:15.001Z</time></trkpt><trkpt lat="41.162960878476966" lon="15.105143777773174"><ele>625.0</ele><time>2026-04-12T05:46:16.001Z</time></trkpt><trkpt lat="41.16298990073702" lon="15.105065239300712"><ele>625.0</ele><time>2026-04-12T05:46:17.001Z</time></trkpt><trkpt lat="41.16299795092997" lon="15.104974491148822"><ele>625.0</ele><time>2026-04-12T05:46:18.001Z</time></trkpt><trkpt lat="41.16293200004094" lon="15.104820490546187"><ele>625.0</ele><time>2026-04-12T05:46:20.001Z</time></trkpt><trkpt lat="41.162844723379735" lon="15.104808888406325"><ele>625.0</ele><time>2026-04-12T05:46:21.001Z</time></trkpt><trkpt lat="41.16281567692317" lon="15.104717391231286"><ele>625.0</ele><time>2026-04-12T05:46:22.001Z</time></trkpt><trkpt lat="41.162838358568294" lon="15.104610343285737"><ele>625.0</ele><time>2026-04-12T05:46:23.001Z</time></trkpt><trkpt lat="41.16284423998555" lon="15.104496745937588"><ele>625.0</ele><time>2026-04-12T05:46:24.001Z</time></trkpt><trkpt lat="41.1628713481246" lon="15.104381316797365"><ele>625.0</ele><time>2026-04-12T05:46:25.001Z</time></trkpt><trkpt lat="41.162900410963616" lon="15.104247921633085"><ele>625.0</ele><time>2026-04-12T05:46:26.001Z</time></trkpt><trkpt lat="41.162930878976255" lon="15.104100390409066"><ele>624.25</ele><time>2026-04-12T05:46:27.001Z</time></trkpt><trkpt lat="41.162963654738306" lon="15.103948121894417"><ele>623.5</ele><time>2026-04-12T05:46:28.001Z</time></trkpt><trkpt lat="41.162996563177295" lon="15.103789241190412"><ele>622.75</ele><time>2026-04-12T05:46:29.001Z</time></trkpt><trkpt lat="41.163025344432825" lon="15.103627517001932"><ele>622.0</ele><time>2026-04-12T05:46:30.001Z</time></trkpt><trkpt lat="41.163059111972046" lon="15.103462603391863"><ele>622.0</ele><time>2026-04-12T05:46:31.001Z</time></trkpt><trkpt lat="41.163099476810444" lon="15.103301443690516"><ele>622.0</ele><time>2026-04-12T05:46:32.001Z</time></trkpt><trkpt lat="41.163132148933364" lon="15.103120987604646"><ele>622.0</ele><time>2026-04-12T05:46:33.001Z</time></trkpt><trkpt lat="41.16316768206589" lon="15.102959862189621"><ele>622.0</ele><time>2026-04-12T05:46:34Z</time></trkpt><trkpt lat="41.163201253448875" lon="15.102799001926972"><ele>622.0</ele><time>2026-04-12T05:46:35Z</time></trkpt><trkpt lat="41.16324176395967" lon="15.10263611034568"><ele>622.0</ele><time>2026-04-12T05:46:36Z</time></trkpt><trkpt lat="41.16327718348003" lon="15.102457354109028"><ele>622.0</ele><time>2026-04-12T05:46:37Z</time></trkpt><trkpt lat="41.16330728121072" lon="15.102277325989789"><ele>622.0</ele><time>2026-04-12T05:46:38Z</time></trkpt><trkpt lat="41.163330120393205" lon="15.102093147469771"><ele>622.0</ele><time>2026-04-12T05:46:39Z</time></trkpt><trkpt lat="41.1633359309765" lon="15.101906598096203"><ele>622.0</ele><time>2026-04-12T05:46:40Z</time></trkpt><trkpt lat="41.16332814940137" lon="15.101716694261707"><ele>622.0</ele><time>2026-04-12T05:46:41Z</time></trkpt><trkpt lat="41.16330838738633" lon="15.10152500231191"><ele>622.0</ele><time>2026-04-12T05:46:42Z</time></trkpt><trkpt lat="41.16327896545874" lon="15.10132925167716"><ele>622.3333333333334</ele><time>2026-04-12T05:46:43Z</time></trkpt><trkpt lat="41.16323947191247" lon="15.101133892777117"><ele>622.6666666666666</ele><time>2026-04-12T05:46:44Z</time></trkpt><trkpt lat="41.16318877527397" lon="15.100944012594962"><ele>623.0</ele><time>2026-04-12T05:46:45Z</time></trkpt><trkpt lat="41.16312101644302" lon="15.100757501655782"><ele>620.0</ele><time>2026-04-12T05:46:46Z</time></trkpt><trkpt lat="41.16304027595738" lon="15.100579695888497"><ele>617.0</ele><time>2026-04-12T05:46:47Z</time></trkpt><trkpt lat="41.16295138348791" lon="15.100411790463937"><ele>614.0</ele><time>2026-04-12T05:46:48Z</time></trkpt><trkpt lat="41.162852712145046" lon="15.10025359317932"><ele>614.0</ele><time>2026-04-12T05:46:49Z</time></trkpt><trkpt lat="41.16273847904581" lon="15.10010831828112"><ele>614.0</ele><time>2026-04-12T05:46:50Z</time></trkpt><trkpt lat="41.162619639909224" lon="15.099973627679264"><ele>614.0</ele><time>2026-04-12T05:46:51Z</time></trkpt><trkpt lat="41.1624922415386" lon="15.099854056434618"><ele>621.0</ele><time>2026-04-12T05:46:52Z</time></trkpt><trkpt lat="41.16235843236697" lon="15.09974594930435"><ele>628.0</ele><time>2026-04-12T05:46:53Z</time></trkpt><trkpt lat="41.162211343336566" lon="15.099663717204555"><ele>635.0</ele><time>2026-04-12T05:46:54Z</time></trkpt><trkpt lat="41.162060758820225" lon="15.099593230007482"><ele>635.0</ele><time>2026-04-12T05:46:55Z</time></trkpt><trkpt lat="41.161906333797695" lon="15.09953427750077"><ele>635.0</ele><time>2026-04-12T05:46:56Z</time></trkpt><trkpt lat="41.16174139079476" lon="15.099492351937316"><ele>635.0</ele><time>2026-04-12T05:46:57Z</time></trkpt><trkpt lat="41.1615599063759" lon="15.099472150903246"><ele>635.3333333333333</ele><time>2026-04-12T05:46:58Z</time></trkpt><trkpt lat="41.161369608314615" lon="15.099471373157261"><ele>635.6666666666666</ele><time>2026-04-12T05:46:59Z</time></trkpt><trkpt lat="41.161164480103196" lon="15.099525087505043"><ele>636.0</ele><time>2026-04-12T05:47:00Z</time></trkpt><trkpt lat="41.160943441013146" lon="15.099624962327855"><ele>636.0</ele><time>2026-04-12T05:47:01Z</time></trkpt><trkpt lat="41.16070103175956" lon="15.099698833562881"><ele>636.0</ele><time>2026-04-12T05:47:02Z</time></trkpt><trkpt lat="41.16045523124337" lon="15.099813029721753"><ele>632.0</ele><time>2026-04-12T05:47:03Z</time></trkpt><trkpt lat="41.160189321135014" lon="15.099894753120404"><ele>628.0</ele><time>2026-04-12T05:47:04Z</time></trkpt><trkpt lat="41.15993854474374" lon="15.099985520374435"><ele>631.0</ele><time>2026-04-12T05:47:05Z</time></trkpt><trkpt lat="41.159681264102865" lon="15.100078234916422"><ele>634.0</ele><time>2026-04-12T05:47:06Z</time></trkpt><trkpt lat="41.15942010039836" lon="15.100176698875432"><ele>634.0</ele><time>2026-04-12T05:47:07Z</time></trkpt><trkpt lat="41.15915962409365" lon="15.100282832640852"><ele>634.0</ele><time>2026-04-12T05:47:08Z</time></trkpt><trkpt lat="41.15889354039059" lon="15.100387419938242"><ele>643.5</ele><time>2026-04-12T05:47:09Z</time></trkpt><trkpt lat="41.15862806638755" lon="15.100488846574299"><ele>653.0</ele><time>2026-04-12T05:47:10Z</time></trkpt><trkpt lat="41.15836018116391" lon="15.100595432163558"><ele>652.5</ele><time>2026-04-12T05:47:11Z</time></trkpt><trkpt lat="41.15809590162323" lon="15.10069740383697"><ele>652.0</ele><time>2026-04-12T05:47:12Z</time></trkpt><trkpt lat="41.157836934702715" lon="15.100796846103613"><ele>652.0</ele><time>2026-04-12T05:47:13Z</time></trkpt><trkpt lat="41.157598419081644" lon="15.100884331556626"><ele>652.0</ele><time>2026-04-12T05:47:14Z</time></trkpt><trkpt lat="41.15737228514816" lon="15.100953746314794"><ele>656.3333333333334</ele><time>2026-04-12T05:47:15Z</time></trkpt><trkpt lat="41.15716582237199" lon="15.10104640669243"><ele>660.6666666666666</ele><time>2026-04-12T05:47:16Z</time></trkpt><trkpt lat="41.15697085512554" lon="15.101129577034339"><ele>665.0</ele><time>2026-04-12T05:47:17Z</time></trkpt><trkpt lat="41.156770758831" lon="15.101201017956233"><ele>665.0</ele><time>2026-04-12T05:47:18Z</time></trkpt><trkpt lat="41.156566642868064" lon="15.10125516655357"><ele>665.0</ele><time>2026-04-12T05:47:19Z</time></trkpt><trkpt lat="41.15635916178568" lon="15.101303471093825"><ele>665.0</ele><time>2026-04-12T05:47:20Z</time></trkpt><trkpt lat="41.156144022188435" lon="15.101328504853107"><ele>667.5</ele><time>2026-04-12T05:47:21Z</time></trkpt><trkpt lat="41.15592102983761" lon="15.101327534057097"><ele>670.0</ele><time>2026-04-12T05:47:22Z</time></trkpt><trkpt lat="41.155693258855784" lon="15.101292415280822"><ele>670.0</ele><time>2026-04-12T05:47:23Z</time></trkpt><trkpt lat="41.15546889050831" lon="15.101246261915666"><ele>670.0</ele><time>2026-04-12T05:47:24Z</time></trkpt><trkpt lat="41.155236961192074" lon="15.10115740718843"><ele>670.0</ele><time>2026-04-12T05:47:25Z</time></trkpt><trkpt lat="41.15501217573898" lon="15.101043677442204"><ele>670.0</ele><time>2026-04-12T05:47:26Z</time></trkpt><trkpt lat="41.154793835371144" lon="15.100890117467129"><ele>670.5</ele><time>2026-04-12T05:47:27Z</time></trkpt><trkpt lat="41.15458996147166" lon="15.100726736008967"><ele>671.0</ele><time>2026-04-12T05:47:28Z</time></trkpt><trkpt lat="41.15437561438681" lon="15.100557389386745"><ele>671.0</ele><time>2026-04-12T05:47:29Z</time></trkpt><trkpt lat="41.15417790202654" lon="15.100360906528648"><ele>671.0</ele><time>2026-04-12T05:47:30Z</time></trkpt><trkpt lat="41.153980534035604" lon="15.1001678182988"><ele>668.0</ele><time>2026-04-12T05:47:31Z</time></trkpt><trkpt lat="41.15378636634864" lon="15.099989175012242"><ele>665.0</ele><time>2026-04-12T05:47:32Z</time></trkpt><trkpt lat="41.15360180990825" lon="15.099823667550536"><ele>665.0</ele><time>2026-04-12T05:47:33Z</time></trkpt><trkpt lat="41.153420414568714" lon="15.099661914212522"><ele>665.0</ele><time>2026-04-12T05:47:34Z</time></trkpt><trkpt lat="41.15325087168412" lon="15.099515172541318"><ele>665.0</ele><time>2026-04-12T05:47:35Z</time></trkpt><trkpt lat="41.15307324356533" lon="15.09936175488957"><ele>667.3333333333333</ele><time>2026-04-12T05:47:36Z</time></trkpt><trkpt lat="41.15290978326141" lon="15.099200325558073"><ele>669.6666666666666</ele><time>2026-04-12T05:47:37Z</time></trkpt><trkpt lat="41.1527419389036" lon="15.099068205710275"><ele>672.0</ele><time>2026-04-12T05:47:38Z</time></trkpt><trkpt lat="41.152595230373606" lon="15.098922366847443"><ele>672.0</ele><time>2026-04-12T05:47:39Z</time></trkpt><trkpt lat="41.15244542511929" lon="15.098782373187227"><ele>672.0</ele><time>2026-04-12T05:47:40Z</time></trkpt><trkpt lat="41.15229601203988" lon="15.098642481671368"><ele>672.0</ele><time>2026-04-12T05:47:41Z</time></trkpt><trkpt lat="41.15214146399081" lon="15.098494101614289"><ele>671.0</ele><time>2026-04-12T05:47:42Z</time></trkpt><trkpt lat="41.15199503295072" lon="15.09835909415068"><ele>670.0</ele><time>2026-04-12T05:47:43Z</time></trkpt><trkpt lat="41.151840494229276" lon="15.098218381192746"><ele>669.0</ele><time>2026-04-12T05:47:44Z</time></trkpt><trkpt lat="41.151682696150715" lon="15.098075635523887"><ele>668.3333333333334</ele><time>2026-04-12T05:47:45Z</time></trkpt><trkpt lat="41.15151798464676" lon="15.09792739824314"><ele>667.6666666666667</ele><time>2026-04-12T05:47:46Z</time></trkpt><trkpt lat="41.15135400443229" lon="15.097771805391886"><ele>667.0</ele><time>2026-04-12T05:47:47Z</time></trkpt><trkpt lat="41.15119431997056" lon="15.097604183571763"><ele>671.3333333333334</ele><time>2026-04-12T05:47:48Z</time></trkpt><trkpt lat="41.151044210867084" lon="15.097418806901532"><ele>675.6666666666666</ele><time>2026-04-12T05:47:49Z</time></trkpt><trkpt lat="41.15090411719093" lon="15.097221694850427"><ele>680.0</ele><time>2026-04-12T05:47:50Z</time></trkpt><trkpt lat="41.15076973029138" lon="15.097017710846071"><ele>672.0</ele><time>2026-04-12T05:47:51Z</time></trkpt><trkpt lat="41.15065953483749" lon="15.096802531723776"><ele>664.0</ele><time>2026-04-12T05:47:52Z</time></trkpt><trkpt lat="41.15054331262505" lon="15.096580491687702"><ele>656.0</ele><time>2026-04-12T05:47:53Z</time></trkpt><trkpt lat="41.15043572914464" lon="15.09634988408188"><ele>656.0</ele><time>2026-04-12T05:47:54Z</time></trkpt><trkpt lat="41.15033890483657" lon="15.096110868584146"><ele>656.0</ele><time>2026-04-12T05:47:55.001Z</time></trkpt><trkpt lat="41.15025439178205" lon="15.095858587188873"><ele>656.0</ele><time>2026-04-12T05:47:56.001Z</time></trkpt><trkpt lat="41.15018243889494" lon="15.0955955870814"><ele>657.6666666666666</ele><time>2026-04-12T05:47:57.001Z</time></trkpt><trkpt lat="41.15011954149639" lon="15.09532129329797"><ele>659.3333333333334</ele><time>2026-04-12T05:47:58.001Z</time></trkpt><trkpt lat="41.15007058578769" lon="15.095039051433014"><ele>661.0</ele><time>2026-04-12T05:47:59.001Z</time></trkpt><trkpt lat="41.150025060106785" lon="15.094754972038059"><ele>660.3333333333334</ele><time>2026-04-12T05:48:00.001Z</time></trkpt><trkpt lat="41.149975577397164" lon="15.094474177263699"><ele>659.6666666666666</ele><time>2026-04-12T05:48:01.001Z</time></trkpt><trkpt lat="41.14992531178801" lon="15.094184475709909"><ele>659.0</ele><time>2026-04-12T05:48:02.001Z</time></trkpt><trkpt lat="41.14987937664197" lon="15.093888636539129"><ele>653.3333333333333</ele><time>2026-04-12T05:48:03.001Z</time></trkpt><trkpt lat="41.14982663449949" lon="15.093602027921465"><ele>647.6666666666666</ele><time>2026-04-12T05:48:04.001Z</time></trkpt><trkpt lat="41.14977227647166" lon="15.093312394314424"><ele>642.0</ele><time>2026-04-12T05:48:05.001Z</time></trkpt><trkpt lat="41.149734210934305" lon="15.093026107908846"><ele>643.0</ele><time>2026-04-12T05:48:06.001Z</time></trkpt><trkpt lat="41.14968978101853" lon="15.092745498977626"><ele>644.0</ele><time>2026-04-12T05:48:07.001Z</time></trkpt><trkpt lat="41.149653257566655" lon="15.092465291101856"><ele>645.0</ele><time>2026-04-12T05:48:08.001Z</time></trkpt><trkpt lat="41.14960520541069" lon="15.092207160440042"><ele>645.0</ele><time>2026-04-12T05:48:09.001Z</time></trkpt><trkpt lat="41.149568851211384" lon="15.091947290331747"><ele>645.0</ele><time>2026-04-12T05:48:10.001Z</time></trkpt><trkpt lat="41.149528972046" lon="15.09169111056623"><ele>645.0</ele><time>2026-04-12T05:48:11.001Z</time></trkpt><trkpt lat="41.14948716123068" lon="15.091448560566548"><ele>646.6666666666666</ele><time>2026-04-12T05:48:12.001Z</time></trkpt><trkpt lat="41.149443346831355" lon="15.091216701052309"><ele>648.3333333333333</ele><time>2026-04-12T05:48:13.001Z</time></trkpt><trkpt lat="41.14940317606421" lon="15.090983956956187"><ele>650.0</ele><time>2026-04-12T05:48:14.001Z</time></trkpt><trkpt lat="41.14936770318271" lon="15.090753868114748"><ele>650.0</ele><time>2026-04-12T05:48:15.001Z</time></trkpt><trkpt lat="41.14933108139457" lon="15.090522895051492"><ele>650.0</ele><time>2026-04-12T05:48:16.001Z</time></trkpt><trkpt lat="41.14929487575256" lon="15.090299561601626"><ele>650.0</ele><time>2026-04-12T05:48:17.001Z</time></trkpt><trkpt lat="41.149259132330315" lon="15.090073467137499"><ele>650.0</ele><time>2026-04-12T05:48:18.001Z</time></trkpt><trkpt lat="41.14922782009942" lon="15.089858444030625"><ele>650.0</ele><time>2026-04-12T05:48:19.001Z</time></trkpt><trkpt lat="41.14918546758014" lon="15.089639704349215"><ele>650.0</ele><time>2026-04-12T05:48:20.001Z</time></trkpt><trkpt lat="41.14914856695729" lon="15.089429079243985"><ele>650.0</ele><time>2026-04-12T05:48:21.001Z</time></trkpt><trkpt lat="41.14910438191842" lon="15.089238865393769"><ele>650.0</ele><time>2026-04-12T05:48:22.001Z</time></trkpt><trkpt lat="41.14905615610894" lon="15.089045569844496"><ele>650.0</ele><time>2026-04-12T05:48:23.001Z</time></trkpt><trkpt lat="41.14900057019066" lon="15.088844704448842"><ele>650.3333333333333</ele><time>2026-04-12T05:48:24.001Z</time></trkpt><trkpt lat="41.14893900455803" lon="15.088656762779456"><ele>650.6666666666666</ele><time>2026-04-12T05:48:25.001Z</time></trkpt><trkpt lat="41.14887416139635" lon="15.088467249533116"><ele>651.0</ele><time>2026-04-12T05:48:26.001Z</time></trkpt><trkpt lat="41.14880345477305" lon="15.088276726984086"><ele>654.0</ele><time>2026-04-12T05:48:27.001Z</time></trkpt><trkpt lat="41.14874395478839" lon="15.088082073917866"><ele>657.0</ele><time>2026-04-12T05:48:28.001Z</time></trkpt><trkpt lat="41.14866385677037" lon="15.087888582081439"><ele>660.0</ele><time>2026-04-12T05:48:29.001Z</time></trkpt><trkpt lat="41.14858365603161" lon="15.08770170247188"><ele>660.0</ele><time>2026-04-12T05:48:30.001Z</time></trkpt><trkpt lat="41.14849655983401" lon="15.087503065064682"><ele>660.0</ele><time>2026-04-12T05:48:31.001Z</time></trkpt><trkpt lat="41.14841082259685" lon="15.08730894926594"><ele>660.0</ele><time>2026-04-12T05:48:32.001Z</time></trkpt><trkpt lat="41.14832764527566" lon="15.087124672021698"><ele>664.6666666666666</ele><time>2026-04-12T05:48:33.001Z</time></trkpt><trkpt lat="41.148237647976956" lon="15.086928333825679"><ele>669.3333333333333</ele><time>2026-04-12T05:48:34.001Z</time></trkpt><trkpt lat="41.14814903793153" lon="15.086737693885713"><ele>674.0</ele><time>2026-04-12T05:48:35.001Z</time></trkpt><trkpt lat="41.14805955056022" lon="15.086545731524986"><ele>674.0</ele><time>2026-04-12T05:48:36.001Z</time></trkpt><trkpt lat="41.1479703166447" lon="15.086351788389914"><ele>674.0</ele><time>2026-04-12T05:48:37.022Z</time></trkpt><trkpt lat="41.1478817020766" lon="15.086156247369667"><ele>674.0</ele><time>2026-04-12T05:48:38.013Z</time></trkpt><trkpt lat="41.14779371439965" lon="15.08595911599562"><ele>674.0</ele><time>2026-04-12T05:48:39.023Z</time></trkpt><trkpt lat="41.14771117692543" lon="15.085774195552956"><ele>674.0</ele><time>2026-04-12T05:48:40.018Z</time></trkpt><trkpt lat="41.147627720192496" lon="15.085589100439545"><ele>674.0</ele><time>2026-04-12T05:48:41.017Z</time></trkpt><trkpt lat="41.147347977423244" lon="15.084994621588928"><ele>667.0</ele><time>2026-04-12T05:48:45.001Z</time></trkpt><trkpt lat="41.147276573675654" lon="15.084827872886002"><ele>660.0</ele><time>2026-04-12T05:48:46.001Z</time></trkpt><trkpt lat="41.147212092823196" lon="15.084651279605463"><ele>653.0</ele><time>2026-04-12T05:48:47.001Z</time></trkpt><trkpt lat="41.14713445167795" lon="15.084535706321919"><ele>646.0</ele><time>2026-04-12T05:48:48Z</time></trkpt><trkpt lat="41.14707634669023" lon="15.084374957845675"><ele>646.0</ele><time>2026-04-12T05:48:49Z</time></trkpt><trkpt lat="41.14700075231254" lon="15.084257278490638"><ele>646.0</ele><time>2026-04-12T05:48:50Z</time></trkpt><trkpt lat="41.14693953398461" lon="15.084133394755856"><ele>646.0</ele><time>2026-04-12T05:48:51Z</time></trkpt><trkpt lat="41.14687370044544" lon="15.083993065679968"><ele>646.0</ele><time>2026-04-12T05:48:52Z</time></trkpt><trkpt lat="41.14680860628271" lon="15.083838099567828"><ele>645.5</ele><time>2026-04-12T05:48:53Z</time></trkpt><trkpt lat="41.14674727156335" lon="15.083688143673998"><ele>645.0</ele><time>2026-04-12T05:48:54Z</time></trkpt><trkpt lat="41.14669379123235" lon="15.08354433434123"><ele>644.5</ele><time>2026-04-12T05:48:55Z</time></trkpt><trkpt lat="41.14663991327132" lon="15.08339990491921"><ele>644.0</ele><time>2026-04-12T05:48:56Z</time></trkpt><trkpt lat="41.14657950431559" lon="15.08325002750866"><ele>643.0</ele><time>2026-04-12T05:48:57Z</time></trkpt><trkpt lat="41.146515455410494" lon="15.083120217448515"><ele>642.0</ele><time>2026-04-12T05:48:58Z</time></trkpt><trkpt lat="41.146446471031915" lon="15.082997912518803"><ele>641.0</ele><time>2026-04-12T05:48:59Z</time></trkpt><trkpt lat="41.14637290356223" lon="15.082878412561687"><ele>640.0</ele><time>2026-04-12T05:49:00Z</time></trkpt><trkpt lat="41.1462920850559" lon="15.082756881388416"><ele>640.0</ele><time>2026-04-12T05:49:01Z</time></trkpt><trkpt lat="41.14619786477952" lon="15.082644913684238"><ele>640.0</ele><time>2026-04-12T05:49:02Z</time></trkpt><trkpt lat="41.14609601718973" lon="15.082539125737044"><ele>640.0</ele><time>2026-04-12T05:49:03Z</time></trkpt><trkpt lat="41.145987330853046" lon="15.082448001373477"><ele>640.0</ele><time>2026-04-12T05:49:04Z</time></trkpt><trkpt lat="41.14586340080421" lon="15.082374829568625"><ele>636.0</ele><time>2026-04-12T05:49:05Z</time></trkpt><trkpt lat="41.145732746748486" lon="15.082318019176244"><ele>632.0</ele><time>2026-04-12T05:49:06Z</time></trkpt><trkpt lat="41.145594565302716" lon="15.082285007830531"><ele>628.0</ele><time>2026-04-12T05:49:07Z</time></trkpt><trkpt lat="41.14546895132077" lon="15.082252443399053"><ele>624.0</ele><time>2026-04-12T05:49:08Z</time></trkpt><trkpt lat="41.1453469084947" lon="15.082206668611223"><ele>621.75</ele><time>2026-04-12T05:49:09Z</time></trkpt><trkpt lat="41.14522211210697" lon="15.08216761861705"><ele>619.5</ele><time>2026-04-12T05:49:10Z</time></trkpt><trkpt lat="41.14509905356474" lon="15.082134490733347"><ele>617.25</ele><time>2026-04-12T05:49:11Z</time></trkpt><trkpt lat="41.144973685986706" lon="15.08209714856396"><ele>615.0</ele><time>2026-04-12T05:49:12Z</time></trkpt><trkpt lat="41.144853265028516" lon="15.082080462074282"><ele>613.5</ele><time>2026-04-12T05:49:13Z</time></trkpt><trkpt lat="41.14472984033953" lon="15.082080087523474"><ele>612.0</ele><time>2026-04-12T05:49:14Z</time></trkpt><trkpt lat="41.144607908641795" lon="15.082086888608087"><ele>610.5</ele><time>2026-04-12T05:49:15Z</time></trkpt><trkpt lat="41.14448430135461" lon="15.082102198164737"><ele>609.0</ele><time>2026-04-12T05:49:16Z</time></trkpt><trkpt lat="41.144362858843245" lon="15.082128416292392"><ele>609.0</ele><time>2026-04-12T05:49:17Z</time></trkpt><trkpt lat="41.14424543665211" lon="15.082160005174144"><ele>609.0</ele><time>2026-04-12T05:49:18Z</time></trkpt><trkpt lat="41.14412584612792" lon="15.082193456421185"><ele>609.0</ele><time>2026-04-12T05:49:19Z</time></trkpt><trkpt lat="41.14400091715803" lon="15.082215664146993"><ele>609.0</ele><time>2026-04-12T05:49:20Z</time></trkpt><trkpt lat="41.14387583002344" lon="15.082217485382651"><ele>607.0</ele><time>2026-04-12T05:49:21Z</time></trkpt><trkpt lat="41.14375117310941" lon="15.082246988297486"><ele>605.0</ele><time>2026-04-12T05:49:22Z</time></trkpt><trkpt lat="41.143630671429364" lon="15.082286758777801"><ele>603.0</ele><time>2026-04-12T05:49:23Z</time></trkpt><trkpt lat="41.14350768650809" lon="15.082329983822508"><ele>601.0</ele><time>2026-04-12T05:49:24Z</time></trkpt><trkpt lat="41.14338802702418" lon="15.082373447263429"><ele>601.0</ele><time>2026-04-12T05:49:25Z</time></trkpt><trkpt lat="41.143271623090136" lon="15.082437226804593"><ele>601.0</ele><time>2026-04-12T05:49:26Z</time></trkpt><trkpt lat="41.143149141407484" lon="15.082472586998367"><ele>601.0</ele><time>2026-04-12T05:49:27Z</time></trkpt><trkpt lat="41.143028050824334" lon="15.082513172622752"><ele>601.0</ele><time>2026-04-12T05:49:28Z</time></trkpt><trkpt lat="41.142909070898625" lon="15.082543831825523"><ele>601.0</ele><time>2026-04-12T05:49:29Z</time></trkpt><trkpt lat="41.14278529045231" lon="15.082556674885078"><ele>601.0</ele><time>2026-04-12T05:49:30Z</time></trkpt><trkpt lat="41.142671014661374" lon="15.082600428802971"><ele>601.0</ele><time>2026-04-12T05:49:31Z</time></trkpt><trkpt lat="41.142557531479476" lon="15.082621157039036"><ele>601.0</ele><time>2026-04-12T05:49:32Z</time></trkpt><trkpt lat="41.14244374098164" lon="15.082639935786423"><ele>600.0</ele><time>2026-04-12T05:49:33Z</time></trkpt><trkpt lat="41.1423329046217" lon="15.08265486264361"><ele>599.0</ele><time>2026-04-12T05:49:34Z</time></trkpt><trkpt lat="41.14222630835085" lon="15.082670269318154"><ele>598.0</ele><time>2026-04-12T05:49:35Z</time></trkpt><trkpt lat="41.1421180868211" lon="15.08268475820252"><ele>597.0</ele><time>2026-04-12T05:49:36Z</time></trkpt><trkpt lat="41.14200671085586" lon="15.08269196031299"><ele>596.0</ele><time>2026-04-12T05:49:37Z</time></trkpt><trkpt lat="41.14189593678345" lon="15.082698779477614"><ele>596.0</ele><time>2026-04-12T05:49:38Z</time></trkpt><trkpt lat="41.1417845697446" lon="15.082704110778689"><ele>596.0</ele><time>2026-04-12T05:49:39Z</time></trkpt><trkpt lat="41.14167372808516" lon="15.08270468401452"><ele>596.0</ele><time>2026-04-12T05:49:40Z</time></trkpt><trkpt lat="41.14156276119236" lon="15.082712782366157"><ele>596.0</ele><time>2026-04-12T05:49:41Z</time></trkpt><trkpt lat="41.14145305138142" lon="15.082716854501957"><ele>596.0</ele><time>2026-04-12T05:49:42Z</time></trkpt><trkpt lat="41.14134394443285" lon="15.08270873682228"><ele>595.2</ele><time>2026-04-12T05:49:43Z</time></trkpt><trkpt lat="41.14124263363061" lon="15.082694178579068"><ele>594.4000000000001</ele><time>2026-04-12T05:49:44Z</time></trkpt><trkpt lat="41.141143441623555" lon="15.082676158344286"><ele>593.6</ele><time>2026-04-12T05:49:45Z</time></trkpt><trkpt lat="41.14105035851787" lon="15.082647840653456"><ele>592.8000000000001</ele><time>2026-04-12T05:49:46Z</time></trkpt><trkpt lat="41.14096167026389" lon="15.082614347763572"><ele>592.0</ele><time>2026-04-12T05:49:47Z</time></trkpt><trkpt lat="41.14088414925461" lon="15.08257556031771"><ele>592.0</ele><time>2026-04-12T05:49:48Z</time></trkpt><trkpt lat="41.140810324788404" lon="15.08252770323562"><ele>592.0</ele><time>2026-04-12T05:49:49Z</time></trkpt><trkpt lat="41.14074011881171" lon="15.0824850202007"><ele>592.0</ele><time>2026-04-12T05:49:50Z</time></trkpt><trkpt lat="41.14059658018157" lon="15.08247335948906"><ele>592.0</ele><time>2026-04-12T05:49:52Z</time></trkpt><trkpt lat="41.14053342297043" lon="15.082402200245092"><ele>592.0</ele><time>2026-04-12T05:49:53Z</time></trkpt><trkpt lat="41.14049387584347" lon="15.082270368868821"><ele>591.8333333333334</ele><time>2026-04-12T05:49:56Z</time></trkpt><trkpt lat="41.14052725684272" lon="15.082116905426998"><ele>591.6666666666667</ele><time>2026-04-12T05:49:58Z</time></trkpt><trkpt lat="41.14056118384241" lon="15.08203840292445"><ele>591.5</ele><time>2026-04-12T05:49:59Z</time></trkpt><trkpt lat="41.1406035584825" lon="15.081956477832442"><ele>591.3333333333334</ele><time>2026-04-12T05:50:00Z</time></trkpt><trkpt lat="41.14064207007134" lon="15.081868025141434"><ele>591.1666666666666</ele><time>2026-04-12T05:50:01Z</time></trkpt><trkpt lat="41.14068890238423" lon="15.081783130152559"><ele>591.0</ele><time>2026-04-12T05:50:02Z</time></trkpt><trkpt lat="41.140730352485605" lon="15.081695662023664"><ele>591.0</ele><time>2026-04-12T05:50:03Z</time></trkpt><trkpt lat="41.140771748969144" lon="15.081623824229625"><ele>591.0</ele><time>2026-04-12T05:50:04Z</time></trkpt><trkpt lat="41.140810473900565" lon="15.081553972939611"><ele>591.0</ele><time>2026-04-12T05:50:05Z</time></trkpt><trkpt lat="41.14084972424862" lon="15.081485315608907"><ele>591.0</ele><time>2026-04-12T05:50:06Z</time></trkpt><trkpt lat="41.140929516756906" lon="15.08135376540357"><ele>591.0</ele><time>2026-04-12T05:50:08.001Z</time></trkpt><trkpt lat="41.141001810591106" lon="15.081234108670587"><ele>591.0</ele><time>2026-04-12T05:50:10.001Z</time></trkpt><trkpt lat="41.14106670652824" lon="15.081111611330707"><ele>589.8</ele><time>2026-04-12T05:50:12.001Z</time></trkpt><trkpt lat="41.14112733619794" lon="15.080997687036287"><ele>588.6</ele><time>2026-04-12T05:50:14.001Z</time></trkpt><trkpt lat="41.14119093088589" lon="15.080887663461327"><ele>587.4</ele><time>2026-04-12T05:50:16.001Z</time></trkpt><trkpt lat="41.14123540922276" lon="15.080813484380883"><ele>586.2</ele><time>2026-04-12T05:50:18.001Z</time></trkpt><trkpt lat="41.14112122972542" lon="15.080656206903633"><ele>585.0</ele><time>2026-04-12T05:50:20.001Z</time></trkpt><trkpt lat="41.14104717176824" lon="15.080585809164466"><ele>584.3333333333334</ele><time>2026-04-12T05:50:22.001Z</time></trkpt><trkpt lat="41.14099172663026" lon="15.08054059720305"><ele>583.6666666666666</ele><time>2026-04-12T05:50:23.001Z</time></trkpt><trkpt lat="41.14089549983001" lon="15.080435678013368"><ele>583.0</ele><time>2026-04-12T05:50:25.001Z</time></trkpt><trkpt lat="41.14083846382088" lon="15.080380906971449"><ele>582.3333333333333</ele><time>2026-04-12T05:50:26.001Z</time></trkpt><trkpt lat="41.140781909636715" lon="15.080326598617706"><ele>581.6666666666666</ele><time>2026-04-12T05:50:27.001Z</time></trkpt><trkpt lat="41.1407166201861" lon="15.08029028569218"><ele>581.0</ele><time>2026-04-12T05:50:28.001Z</time></trkpt><trkpt lat="41.14067299381625" lon="15.080223972165511"><ele>580.4</ele><time>2026-04-12T05:50:29.001Z</time></trkpt><trkpt lat="41.140587223001205" lon="15.080109802715329"><ele>579.8</ele><time>2026-04-12T05:50:31.001Z</time></trkpt><trkpt lat="41.14052000861667" lon="15.079980775764023"><ele>579.1999999999999</ele><time>2026-04-12T05:50:33.001Z</time></trkpt><trkpt lat="41.140455327138014" lon="15.079850175287078"><ele>578.6</ele><time>2026-04-12T05:50:35.001Z</time></trkpt><trkpt lat="41.14041127221351" lon="15.079744657126492"><ele>578.0</ele><time>2026-04-12T05:50:37.001Z</time></trkpt><trkpt lat="41.14030944008828" lon="15.079793760099323"><ele>578.0</ele><time>2026-04-12T05:50:38.001Z</time></trkpt><trkpt lat="41.140219889896265" lon="15.079822049082422"><ele>578.0</ele><time>2026-04-12T05:50:40.001Z</time></trkpt><trkpt lat="41.14013358665592" lon="15.079842639103946"><ele>578.0</ele><time>2026-04-12T05:50:42.001Z</time></trkpt><trkpt lat="41.140053119009934" lon="15.079878774675175"><ele>578.0</ele><time>2026-04-12T05:50:44.001Z</time></trkpt><trkpt lat="41.13998997464781" lon="15.079907081233152"><ele>578.0</ele><time>2026-04-12T05:50:46.001Z</time></trkpt><trkpt lat="41.139903506525094" lon="15.079915695505576"><ele>578.0</ele><time>2026-04-12T05:50:49.001Z</time></trkpt><trkpt lat="41.13981289444869" lon="15.0799033790464"><ele>575.8</ele><time>2026-04-12T05:50:52.001Z</time></trkpt><trkpt lat="41.1397205258385" lon="15.079884925069287"><ele>573.5999999999999</ele><time>2026-04-12T05:50:55Z</time></trkpt><trkpt lat="41.139656839932094" lon="15.079871139934905"><ele>571.4000000000001</ele><time>2026-04-12T05:50:57Z</time></trkpt><trkpt lat="41.13958156510926" lon="15.079846498878243"><ele>569.2</ele><time>2026-04-12T05:51:00Z</time></trkpt><trkpt lat="41.13949102157643" lon="15.0800057000827"><ele>567.0</ele><time>2026-04-12T05:51:05Z</time></trkpt><trkpt lat="41.13951606148818" lon="15.080106316129106"><ele>567.0</ele><time>2026-04-12T05:51:37Z</time></trkpt><trkpt lat="41.13951088363156" lon="15.080217699927335"><ele>567.0</ele><time>2026-04-12T05:51:40Z</time></trkpt><trkpt lat="41.13952034396923" lon="15.080335653679755"><ele>567.0</ele><time>2026-04-12T05:51:42Z</time></trkpt><trkpt lat="41.139544358416835" lon="15.079943093666767"><ele>567.0</ele><time>2026-04-12T05:52:06.408Z</time></trkpt><trkpt lat="41.13966596425515" lon="15.080064116852961"><ele>567.0</ele><time>2026-04-12T05:52:36.401Z</time></trkpt><trkpt lat="41.13964628387002" lon="15.080308825084318"><ele>567.0</ele><time>2026-04-12T05:52:45.593Z</time></trkpt><trkpt lat="41.139503630890175" lon="15.080661295678501"><ele>567.0</ele><time>2026-04-12T05:53:19.445Z</time></trkpt><trkpt lat="41.13944491833063" lon="15.080785144906748"><ele>574.0</ele><time>2026-04-12T05:58:53.406Z</time></trkpt><trkpt lat="41.139503630890175" lon="15.080661295678501"><ele>567.0</ele><time>2026-04-12T05:59:58.406Z</time></trkpt><trkpt lat="41.1394534483839" lon="15.080758891477924"><ele>567.0</ele><time>2026-04-12T06:00:15.493Z</time></trkpt></trkseg></trk></gpx>